     2.10           OBSERVATION DATA    G (GPS)             RINEX VERSION / TYPE
teqc 2000Jul20 Karen Wendt 20040525 20:58:34UTC             PGM / RUN BY / DATE
Linux 2.0.36|Pentium II|gcc -static|Linux|486/DX+           COMMENT
teqc 2000Jul20 Karen Wendt 20040525 20:58:33UTC             COMMENT
BIT 2 OF LLI FLAGS DATA COLLECTED UNDER A/S CONDITION       COMMENT
sage Sage_1966_Calif_Div_Hwys                               MARKER NAME
GDH USGS                                                    OBSERVER / AGENCY
04600 ASHTECH Z-XII3 CD00                                   REC # / TYPE / VERS
CR620022602 ASH701945E_M NONE                               ANT # / TYPE
 -2457268.0000 -4249459.0000  4061155.0000                  APPROX POSITION XYZ
        1.1742        0.0000        0.0000                  ANTENNA: DELTA H/E/N
     1     1                                                WAVELENGTH FACT L1/2
     5    C1    L1    L2    P1    P2                        # / TYPES OF OBSERV
    30.0000                                                 INTERVAL
                                                            COMMENT
National Earthquake Hazard Reduction Program                COMMENT
Crustal Strain Project                                      COMMENT
345 Middlefield Road, MS/977                                COMMENT
U.S. Geological Survey, Menlo Park, California 94025        COMMENT
Contact: kwendt@usgs.gov (Ph: 650-329-4866)                 COMMENT
Antenna height is vertical to base of antenna               COMMENT
                                                            COMMENT
SNR is mapped to RINEX snr flag value [1-9]                 COMMENT
L1: 1 -> 1; 90 -> 5; 210 -> 9                               COMMENT
L2: 1 -> 1; 150 -> 5; 250 -> 9                              COMMENT
  2004     5    22     0     0   30.0000000     GPS         TIME OF FIRST OBS
                                                            END OF HEADER
 04  5 22  0  0 30.0000000  0  6G14G11G25G30G20G 1
  22891603.610   -11565919.49349  -8590012.76346  22891603.633    22891610.041
  21492606.660   -20411216.46049 -14864736.80247  21492606.828    21492612.716
  20662536.117   -27680233.34149 -20519305.99048  20662536.404    20662542.523
  24109924.536    -3868689.53349  -3004465.07845  24109925.236    24109933.521
  22474704.555   -14221967.91149 -10771895.45646  22474704.296    22474711.137
  23297297.053   -13546411.56049 -10222573.47046  23297296.917    23297305.837
 04  5 22  0  1  0.0000000  0  6G14G11G25G30G20G 1
  22906577.805   -11487229.17849  -8528695.67246  22906577.876    22906584.381
  21497271.603   -20386702.11149 -14845634.73047  21497271.778    21497277.661
  20663352.450   -27675943.41049 -20515963.17748  20663352.719    20663358.855
  24108856.680    -3874300.80549  -3008837.46045  24108857.296    24108865.535
  22458779.274   -14305655.58149 -10837106.59646  22458779.061    22458785.877
  23283165.656   -13620671.62649 -10280438.35246  23283165.560    23283174.539
 04  5 22  0  1 30.0000000  0  6G14G11G25G30G20G 1
  22921565.923   -11408466.05849  -8467321.85346  22921565.961    22921572.552
  21502037.991   -20361654.68649 -14826117.27747  21502038.159    21502044.022
  20664269.463   -27671124.33549 -20512208.04848  20664269.734    20664275.882
  24107890.701    -3879375.15149  -3012791.48345  24107891.564    24107900.039
  22442880.805   -14389202.46749 -10902208.03246  22442880.577    22442887.437
  23269067.400   -13694757.25449 -10338167.30446  23269067.380    23269076.514
 04  5 22  0  2  0.0000000  0  6G14G11G25G30G20G 1
  22936567.527   -11329632.06149  -8405892.81046  22936567.545    22936574.220
  21506905.457   -20336076.11949 -14806185.94647  21506905.599    21506911.470
  20665286.914   -27665777.54049 -20508041.70448  20665287.189    20665293.335
  24107027.398    -3883912.37449  -3016326.97845  24107028.331    24107036.551
  22427009.297   -14472607.49649 -10967198.92846  22427009.085    22427015.976
  23255002.343   -13768669.26549 -10395760.99146  23255002.297    23255011.408
 04  5 22  0  2 30.0000000  0  6G14G11G25G30G20G 1
  22951582.111   -11250729.95549  -8344410.69646  22951582.160    22951588.856
  21511873.385   -20309969.47849 -14785843.13347  21511873.510    21511879.418
  20666404.277   -27659905.80949 -20503466.32448  20666404.556    20666410.673
  24106266.371    -3887914.07549  -3019445.15545  24106267.128    24106275.101
  22411164.714   -14555871.07749 -11032079.61746  22411164.514    22411171.389
  23240970.004   -13842409.60149 -10453220.89746  23240969.971    23240978.995
 04  5 22  0  3  0.0000000  0  6G14G11G25G30G20G 1
  22966609.843   -11171759.02849  -8282874.94946  22966609.867    22966616.536
  21516941.970   -20283333.97949 -14765088.21447  21516942.111    21516948.027
  20667621.711   -27653508.17449 -20498481.14748  20667621.993    20667628.100
  24105607.307    -3891377.51649  -3022143.92545  24105608.005    24105615.935
  22395347.747   -14638989.59849 -11096847.26446  22395347.544    22395354.412
  23226970.650   -13915976.49649 -10510545.66046  23226970.573    23226979.526
 04  5 22  0  3 30.0000000  0  6G14G11G25G30G20G 1
  22981650.776   -11092718.87349  -8221285.25246  22981650.814    22981657.367
  21522111.196   -20256169.50949 -14743921.11647  21522111.352    21522117.252
  20668939.359   -27646583.99849 -20493085.67948  20668939.641    20668945.736
  24105050.941    -3894300.42749  -3024421.51045  24105051.820    24105059.781
  22379558.951   -14721960.01149 -11161499.50146  22379558.774    22379565.626
  23213004.554   -13989368.37049 -10567734.03646  23213004.471    23213013.374
 04  5 22  0  4  0.0000000  0  6G14G11G25G30G20G 1
  22996704.456   -11013611.81649  -8159643.41846  22996704.483    22996710.985
  21527380.597   -20228478.89249 -14722344.03247  21527380.744    21527386.633
  20670356.701   -27639135.57649 -20487281.70648  20670357.000    20670363.106
  24104597.417    -3896683.60149  -3026278.52345  24104598.333    24104606.347
  22363798.423   -14804782.27849 -11226036.30146  22363798.195    22363805.017
  23199071.512   -14062586.56049 -10624787.09346  23199071.467    23199080.315
 04  5 22  0  4 30.0000000  0  6G14G11G25G30G20G 1
  23011770.813   -10934437.93749  -8097949.53046  23011770.833    23011777.253
  21532750.058   -20200262.29649 -14700357.09847  21532750.217    21532756.091
  20671873.833   -27631162.96349 -20481069.27648  20671874.129    20671880.226
  24104247.008    -3898525.55049  -3027713.77145  24104247.787    24104255.886
  22348066.668   -14887453.59749 -11290455.47946  22348066.406    22348073.160
  23185171.722   -14135630.00949 -10681703.98646  23185171.680    23185180.514
 04  5 22  0  5  0.0000000  0  6G14G11G25G30G20G 1
  23026849.588   -10855199.11649  -8036205.04546  23026849.564    23026855.953
  21538219.119   -20171522.11949 -14677962.17647  21538219.281    21538225.188
  20673490.398   -27622667.80849 -20474449.66748  20673490.700    20673496.773
  24103999.448    -3899826.22249  -3028727.27345  24104000.307    24104008.320
  22332363.661   -14969973.39649 -11354756.58746  22332363.386    22332370.129
  23171304.974   -14208499.64149 -10738485.41746  23171304.970    23171313.861
 04  5 22  0  5 30.0000000  0  6G14G11G25G30G20G 1
  23041940.678   -10775894.81849  -7974409.52546  23041940.687    23041947.122
  21543787.810   -20142258.17749 -14655159.12447  21543787.986    21543793.940
  20675206.548   -27613649.31849 -20467422.26848  20675206.862    20675212.941
  24103855.309    -3900583.75749  -3029317.54145  24103856.058    24103864.024
  22316690.066   -15052338.39949 -11418937.07646  22316689.807    22316696.530
  23157471.674   -14281193.85149 -10795130.16246  23157471.676    23157480.576
 04  5 22  0  6  0.0000000  0  6G14G11G25G30G20G 1
  23057043.808   -10696527.18249  -7912564.65546  23057043.831    23057050.372
  21549455.803   -20112472.95649 -14631949.88547  21549455.982    21549461.914
  20677021.826   -27604109.93949 -20459988.98348  20677022.116    20677028.212
  24103814.460    -3900798.91349  -3029485.15845  24103815.246    24103822.899
  22301046.103   -15134548.04449 -11482996.50746  22301045.837    22301052.590
  23143671.526   -14353713.58549 -10851638.97646  23143671.550    23143680.450
 04  5 22  0  6 30.0000000  0  6G14G11G25G30G20G 1
  23072158.881   -10617096.65549  -7850670.78146  23072158.896    23072165.481
  21555222.776   -20082167.42649 -14608335.20247  21555222.940    21555228.837
  20678936.072   -27594050.30349 -20452150.29648  20678936.370    20678942.439
  24103876.858    -3900470.24049  -3029229.03745  24103877.513    24103885.379
  22285432.040   -15216600.32849 -11546933.31646  22285431.747    22285438.540
  23129904.583   -14426058.51849 -10908011.58146  23129904.661    23129913.578
 04  5 22  0  7  0.0000000  0  6G14G11G25G30G20G 1
  23087286.006   -10537603.19149  -7788727.86446  23087285.994    23087292.626
  21561088.640   -20051342.22049 -14584315.58547  21561088.829    21561094.725
  20680949.405   -27583470.20049 -20443906.06048  20680949.686    20680955.760
  24104043.069    -3899596.42549  -3028548.11445  24104043.867    24104051.372
  22269848.427   -15298492.58649 -11610745.43046  22269848.125    22269854.915
  23116171.159   -14498227.61549 -10964247.16246  23116171.248    23116180.173
 04  5 22  0  7 30.0000000  0  6G14G11G25G30G20G 1
  23102424.560   -10458049.56649  -7726738.06646  23102424.574    23102431.171
  21567052.748   -20020000.62249 -14559893.58247  21567052.920    21567058.866
  20683061.276   -27572372.40549 -20435258.42748  20683061.554    20683067.613
  24104312.780    -3898178.79249  -3027443.45345  24104313.481    24104321.253
  22254295.293   -15380224.93449 -11674432.94146  22254294.962    22254301.711
  23102470.894   -14570222.65649 -11020347.11846  23102470.972    23102479.892
 04  5 22  0  8  0.0000000  0  6G14G11G25G30G20G 1
  23117574.723   -10378435.35249  -7664701.04546  23117574.735    23117581.236
  21573115.237   -19988142.34449 -14535068.97547  21573115.403    21573121.306
  20685271.741   -27560756.27949 -20426206.89648  20685272.014    20685278.061
  24104686.505    -3896215.29249  -3025913.43045  24104687.161    24104694.609
  22238773.181   -15461794.21349 -11737993.38446  22238772.838    22238779.564
  23088804.097   -14642042.05649 -11076310.22546  23088804.144    23088813.020
 04  5 22  0  8 30.0000000  0  6G14G11G25G30G20G 1
  23132736.046   -10298762.33749  -7602618.21746  23132735.990    23132742.564
  21579275.538   -19955769.83249 -14509843.66747  21579275.668    21579281.604
  20687580.400   -27548624.16249 -20416753.29948  20687580.696    20687586.742
  24105163.951    -3893706.48949  -3023958.51045  24105164.541    24105171.932
  22223282.181   -15543199.69149 -11801426.18847  22223281.812    22223288.567
  23075170.436   -14713686.90049 -11132137.30646  23075170.452    23075179.373
 04  5 22  0  9  0.0000000  0  6G14G11G25G30G20G 1
  23147908.627   -10219029.84849  -7540489.03746  23147908.636    23147915.238
  21585533.676   -19922883.17849 -14484217.72847  21585533.816    21585539.775
  20689987.325   -27535975.60649 -20406897.28048  20689987.620    20689993.671
  24105745.538    -3890650.43649  -3021577.14945  24105745.950    24105753.270
  22207822.972   -15624438.03449 -11864728.76047  22207822.634    22207829.403
  23061570.401   -14785155.57449 -11187827.13446  23061570.357    23061579.253
 04  5 22  0  9 30.0000000  0  6G14G11G25G30G20G 1
  23163092.043   -10139240.64549  -7478315.68346  23163092.075    23163098.662
  21591889.028   -19889485.49349 -14458193.57547  21591889.196    21591895.136
  20692492.010   -27522813.28449 -20396640.92348  20692492.296    20692498.370
  24106430.917    -3887048.36049  -3018770.30945  24106431.377    24106438.727
  22192395.590   -15705509.30249 -11927901.14047  22192395.245    22192402.010
  23048003.534   -14856449.70949 -11243380.94746  23048003.539    23048012.393
 04  5 22  0 10  0.0000000  0  6G14G11G25G30G20G 1
  23178286.565   -10059393.45949  -7416097.14246  23178286.516    23178293.087
  21598341.704   -19855576.48549 -14431770.98947  21598341.889    21598347.840
  20695094.683   -27509136.09849 -20385983.37648  20695094.984    20695101.047
  24107220.585    -3882897.97849  -3015536.25745  24107220.888    24107228.573
  22177000.678   -15786409.67449 -11990940.36247  22177000.392    22177007.149
  23034470.287   -14927567.45949 -11298797.31946  23034470.268    23034478.968
 04  5 22  0 10 30.0000000  0  6G14G11G25G30G20G 1
  23193491.739    -9979490.32749  -7353835.00746  23193491.670    23193498.194
  21604891.213   -19821158.62049 -14404951.89847  21604891.395    21604897.385
  20697794.891   -27494946.44849 -20374926.50748  20697795.185    20697801.274
  24108114.626    -3878199.96349  -3011875.45945  24108115.079    24108122.547
  22161638.443   -15867138.75949 -12053846.11247  22161638.137    22161644.920
  23020970.421   -14998509.84049 -11354077.03946  23020970.354    23020979.017
 04  5 22  0 11  0.0000000  0  6G14G11G25G30G20G 1
  23208707.332    -9899532.38049  -7291530.14146  23208707.266    23208713.761
  21611537.215   -19786233.75349 -14377737.73547  21611537.374    21611543.379
  20700592.409   -27480245.34149 -20363471.09348  20700592.688    20700598.780
  24109112.970    -3872953.99449  -3007787.67145  24109113.438    24109120.861
  22146309.073   -15947694.76249 -12116616.98447  22146308.809    22146315.625
  23007503.795   -15069277.04649 -11409220.25246  23007503.787    23007512.374
 04  5 22  0 11 30.0000000  0  6G14G11G25G30G20G 1
  23223933.581    -9819518.27249  -7229181.54046  23223933.525    23223939.979
  21618279.764   -19750801.48949 -14350128.20347  21618279.926    21618285.926
  20703487.450   -27465031.89849 -20351616.46248  20703487.734    20703493.821
  24110215.946    -3867157.72149  -3003271.06045  24110216.584    24110224.254
  22131013.455   -16028073.72949 -12179249.91447  22131013.198    22131020.022
  22994070.955   -15139866.74349 -11464225.15046  22994070.896    22994079.510
 04  5 22  0 12  0.0000000  0  6G14G11G25G30G20G 1
  23239169.821    -9739451.21849  -7166791.67346  23239169.807    23239176.244
  21625118.188   -19714865.53549 -14322126.18547  21625118.332    21625124.336
  20706479.224   -27449309.97749 -20339365.61248  20706479.503    20706485.594
  24111423.193    -3860813.02349  -2998327.13545  24111423.859    24111431.693
  22115751.434   -16108276.10649 -12241745.24347  22115751.164    22115757.976
  22980671.436   -15210281.35749 -11519093.61846  22980671.432    22980680.082
 04  5 22  0 12 30.0000000  0  6G14G11G25G30G20G 1
  23254416.342    -9659330.87749  -7104360.27146  23254416.242    23254422.621
  21632052.344   -19678425.99649 -14293731.76047  21632052.532    21632058.539
  20709567.818   -27433079.25849 -20326718.29548  20709568.094    20709574.168
  24112735.189    -3853918.54849  -2992954.81945  24112735.860    24112743.703
  22100523.540   -16188299.19249 -12304100.86447  22100523.296    22100530.094
  22967305.535   -15280519.60449 -11573824.66746  22967305.515    22967314.107
 04  5 22  0 13  0.0000000  0  6G14G11G25G30G20G 1
  23269672.899    -9579157.89749  -7041887.85946  23269672.760    23269679.066
  21639082.043   -19641484.92149 -14264946.53147  21639082.225    21639088.200
  20712753.101   -27416340.44949 -20313675.06848  20712753.379    20712759.478
  24114151.778    -3846473.70949  -2987153.65945  24114152.430    24114160.354
  22085330.219   -16268140.84249 -12366315.11147  22085329.934    22085336.675
  22953973.185   -15350581.24149 -11628418.07846  22953973.175    22953981.766
 04  5 22  0 13 30.0000000  0  6G14G11G25G30G20G 1
  23284939.072    -9498933.76149  -6979375.57246  23284938.992    23284945.255
  21646206.747   -19604044.48249 -14235772.18347  21646206.923    21646212.926
  20716034.651   -27399095.58049 -20300237.50848  20716034.957    20716041.036
  24115673.235    -3838479.10149  -2980924.10245  24115673.826    24115681.737
  22070171.551   -16347800.02649 -12428387.17647  22070171.308    22070177.988
  22940674.331   -15420467.04549 -11682874.49146  22940674.322    22940682.830
 04  5 22  0 14  0.0000000  0  6G14G11G25G30G20G 1
  23300215.082    -9418657.71449  -6916822.85346  23300215.067    23300221.320
  21653426.451   -19566104.60649 -14206208.68047  21653426.655    21653432.657
  20719412.568   -27381344.61149 -20286405.58248  20719412.859    20719418.915
  24117299.488    -3829932.72349  -2974264.57245  24117300.061    24117307.876
  22055048.353   -16427273.20249 -12490314.30047  22055048.088    22055054.701
  22927409.296   -15490175.36549 -11737192.61246  22927409.224    22927417.714
 04  5 22  0 14 30.0000000  0  6G14G11G25G30G20G 1
  23315500.394    -9338332.64149  -6854231.92845  23315500.414    23315506.710
  21660740.552   -19527668.99249 -14176258.88147  21660740.751    21660746.778
  20722886.243   -27363090.42649 -20272181.54548  20722886.534    20722892.583
  24119030.500    -3820836.60649  -2967176.71145  24119031.062    24119038.884
  22039960.448   -16506560.91849 -12552096.90747  22039960.143    22039966.736
  22914177.561   -15559708.43249 -11791374.15946  22914177.465    22914185.990
 04  5 22  0 15  0.0000000  0  6G14G11G25G30G20G 1
  23330795.406    -9257956.97049  -6791601.56545  23330795.397    23330801.660
  21668149.025   -19488737.13949 -14145922.40447  21668149.223    21668155.298
  20726455.866   -27344331.90549 -20257564.51748  20726456.173    20726462.205
  24120866.587    -3811188.10849  -2959658.39045  24120867.122    24120874.703
  22024908.572   -16585658.89249 -12613731.67247  22024908.273    22024914.865
  22900979.525   -15629063.75149 -11845417.19446  22900979.443    22900988.053
 04  5 22  0 15 30.0000000  0  6G14G11G25G30G20G 1
  23346099.464    -9177533.40749  -6728933.89245  23346099.472    23346105.816
  21675651.271   -19449312.67649 -14115202.06947  21675651.469    21675657.579
  20730120.846   -27325072.41149 -20242557.11748  20730121.136    20730127.173
  24122807.333    -3800989.03549  -2951711.02645  24122807.998    24122815.435
  22009892.714   -16664567.07949 -12675218.54447  22009892.468    22009899.102
  22887814.909   -15698243.15049 -11899323.16746  22887814.926    22887823.568
 04  5 22  0 16  0.0000000  0  6G14G11G25G30G20G 1
  23361412.770    -9097061.29349  -6666228.40546  23361412.810    23361419.291
  21683247.224   -19409395.98049 -14084098.18247  21683247.400    21683253.521
  20733881.155   -27305311.93049 -20227159.33748  20733881.433    20733887.475
  24124853.245    -3790237.86249  -2943333.45645  24124853.762    24124861.342
  21994913.692   -16743282.16349 -12736554.94147  21994913.458    21994920.127
  22874684.212   -15767245.16049 -11953090.89146  22874684.226    22874692.854
 04  5 22  0 16 30.0000000  0  6G14G11G25G30G20G 1
  23376734.988    -9016542.62249  -6603486.62646  23376735.043    23376741.551
  21690936.253   -19368990.11349 -14052613.12047  21690936.407    21690942.511
  20737736.336   -27285052.72749 -20211372.94848  20737736.614    20737742.667
  24127003.898    -3778935.62549  -2934526.52845  24127004.423    24127012.010
  21979971.528   -16821803.73549 -12797740.55847  21979971.302    21979977.932
  22861587.031   -15836071.02249 -12006721.37746  22861587.033    22861595.678
 04  5 22  0 17  0.0000000  0  6G14G11G25G30G20G 1
  23392066.069    -8935977.26949  -6540708.48646  23392066.159    23392072.684
  21698718.170   -19328095.71449 -14020747.38247  21698718.350    21698724.462
  20741686.388   -27264295.13449 -20195198.20148  20741686.669    20741692.697
  24129259.624    -3767081.39749  -2925289.48745  24129260.191    24129267.759
  21965066.787   -16900128.95249 -12858773.16047  21965066.491    21965073.086
  22848523.534   -15904719.75949 -12060213.83946  22848523.566    22848532.246
 04  5 22  0 17 30.0000000  0  6G14G11G25G30G20G 1
  23407405.948    -8855365.59649  -6477894.23546  23407406.059    23407412.589
  21706592.846   -19286713.97849 -13988501.90247  21706593.048    21706599.158
  20745731.205   -27243039.66349 -20178635.49548  20745731.479    20745737.469
  24131620.560    -3754674.72749  -2915621.96845  24131621.037    24131628.547
  21950199.817   -16978255.26249 -12919650.78047  21950199.523    21950206.115
  22835493.841   -15973191.13049 -12113568.09446  22835493.856    22835502.508
 04  5 22  0 18  0.0000000  0  6G14G11G25G30G20G 1
  23422754.272    -8774709.81349  -6415045.63746  23422754.354    23422760.912
  21714559.674   -19244848.38849 -13955879.39047  21714559.863    21714565.976
  20749870.145   -27221289.35049 -20161687.19948  20749870.424    20749876.422
  24134086.287    -3741716.99149  -2905525.01645  24134086.760    24134094.402
  21935370.663   -17056182.54649 -12980373.31247  21935370.409    21935376.978
  22822497.707   -16041486.64249 -12166785.30346  22822497.664    22822506.230
 04  5 22  0 18 30.0000000  0  6G14G11G25G30G20G 1
  23438111.064    -8694009.34849  -6352162.20046  23438111.143    23438117.766
  21722618.449   -19202499.39549 -13922880.19947  21722618.614    21722624.713
  20754103.239   -27199044.31249 -20144353.40248  20754103.513    20754109.495
  24136657.183    -3728206.71849  -2894997.52045  24136657.860    24136665.401
  21920580.042   -17133907.60849 -13040938.26347  21920579.779    21920586.374
  22809535.149   -16109604.85449 -12219864.36946  22809535.158    22809543.692
 04  5 22  0 19  0.0000000  0  6G14G11G25G30G20G 1
  23453476.226    -8613264.62549  -6289244.28846  23453476.385    23453483.003
  21730768.872   -19159668.64149 -13889505.61147  21730769.052    21730775.148
  20758430.204   -27176305.91649 -20126635.17348  20758430.478    20758436.481
  24139333.352    -3714143.57149  -2884039.25945  24139333.967    24139341.828
  21905828.341   -17211428.16149 -13101343.86847  21905828.061    21905834.653
  22796606.391   -16177545.51949 -12272805.07846  22796606.458    22796614.981
 04  5 22  0 19 30.0000000  0  6G14G11G25G30G20G 1
  23468849.716    -8532476.71649  -6226292.72546  23468849.823    23468856.469
  21739010.546   -19116358.40449 -13855757.40147  21739010.696    21739016.832
  20762850.716   -27153075.90349 -20108533.86548  20762850.997    20762857.014
  24142114.556    -3699528.22949  -2872650.65845  24142115.202    24142122.954
  21891115.791   -17288742.76749 -13161588.98647  21891115.526    21891122.134
  22783711.411   -16245309.02949 -12325607.75046  22783711.515    22783720.009
 04  5 22  0 20  0.0000000  0  6G14G11G25G30G20G 1
  23484231.319    -8451646.58449  -6163308.26446  23484231.434    23484238.005
  21747343.013   -19072570.82649 -13821637.24147  21747343.198    21747349.359
  20767364.514   -27129355.70249 -20090050.58648  20767364.793    20767370.811
  24145000.867    -3684360.89549  -2860831.96545  24145001.583    24145009.238
  21876442.802   -17365849.62549 -13221672.21947  21876442.574    21876449.188
  22770850.147   -16312895.54849 -12378272.50946  22770850.168    22770858.620
 04  5 22  0 20 30.0000000  0  6G14G11G25G30G20G 1
  23499620.720    -8370775.14449  -6100291.60546  23499620.831    23499627.381
  21755766.015   -19028308.00849 -13787146.77047  21755766.216    21755772.307
  20771971.366   -27105146.58749 -20071186.34648  20771971.653    20771977.650
  24147992.272    -3668641.69849  -2848583.22545  24147992.892    24148000.474
  21861809.648   -17442747.26049 -13281592.42547  21861809.394    21861816.027
  22758022.464   -16380305.24049 -12430799.48446  22758022.459    22758030.891
 04  5 22  0 21  0.0000000  0  6G14G11G25G30G20G 1
  23515017.878    -8289862.89749  -6037243.15346  23515017.912    23515024.461
  21764279.220   -18983571.07149 -13752286.85447  21764279.393    21764285.467
  20776670.967   -27080450.11449 -20051942.34048  20776671.240    20776677.244
  24151088.532    -3652370.73649  -2835904.57845  24151089.178    24151096.901
  21847216.718   -17519433.41349 -13341347.84947  21847216.477    21847223.098
  22745228.447   -16447537.85949 -12483188.47646  22745228.456    22745236.828
 04  5 22  0 21 30.0000000  0  6G14G11G25G30G20G 1
  23530422.760    -8208909.67649  -5974162.78046  23530422.847    23530429.462
  21772882.306   -18938361.70249 -13717058.80247  21772882.467    21772888.590
  20781463.207   -27055266.66949 -20032318.87648  20781463.472    20781469.496
  24154290.043    -3635546.98649  -2822795.17445  24154290.593    24154298.405
  21832664.594   -17595905.33549 -13400936.33347  21832664.331    21832670.940
  22732468.312   -16514592.67849 -12535438.93046  22732468.359    22732476.658
 04  5 22  0 22  0.0000000  0  6G14G11G25G30G20G 1
  23545835.369    -8127916.32649  -5911051.12646  23545835.397    23545842.003
  21781574.861   -18892682.08549 -13681464.33447  21781575.039    21781581.189
  20786347.813   -27029597.83449 -20012317.18848  20786348.091    20786354.107
  24157596.765    -3618171.23549  -2809255.62445  24157597.245    24157604.826
  21818153.486   -17672161.40849 -13460356.62747  21818153.227    21818159.893
  22719741.949   -16581470.11049 -12587551.15446  22719741.950    22719750.259
 04  5 22  0 22 30.0000000  0  6G14G11G25G30G20G 1
  23561255.332    -8046883.84949  -5847908.97446  23561255.372    23561262.103
  21790356.587   -18846534.10549 -13645504.90047  21790356.750    21790362.894
  20791324.468   -27003445.33049 -19991938.61648  20791324.735    20791330.756
  24161008.200    -3600243.69149  -2795286.11045  24161008.862    24161016.575
  21803683.830   -17748199.84449 -13519607.33347  21803683.564    21803690.203
  22707049.328   -16648170.32249 -12639525.29746  22707049.247    22707057.592
 04  5 22  0 23  0.0000000  0  6G14G11G25G30G20G 1
  23576682.560    -7965812.48749  -5784736.53145  23576682.623    23576689.517
  21799227.063   -18799919.52949 -13609181.89047  21799227.219    21799233.370
  20796392.959   -26976810.26949 -19971184.02448  20796393.227    20796399.239
  24164524.708    -3581764.13649  -2780886.46145  24164525.258    24164532.898
  21789256.100   -17824018.31549 -13578686.63647  21789255.812    21789262.411
  22694390.358   -16714692.88749 -12691360.99646  22694390.321    22694398.703
 04  5 22  0 23 30.0000000  0  6G14G11G25G30G20G 1
  23592117.323    -7884702.05549  -5721533.64245  23592117.467    23592124.404
  21808186.070   -18752839.31149 -13572496.03747  21808186.287    21808192.468
  20801553.150   -26949693.33549 -19950053.94948  20801553.424    20801559.445
  24168146.326    -3562732.00449  -2766056.24645  24168147.020    24168154.391
  21774870.727   -17899613.90549 -13637592.27247  21774870.451    21774877.009
  22681765.516   -16781036.86649 -12743057.54546  22681765.501    22681773.843
 04  5 22  0 24  0.0000000  0  6G14G11G25G30G20G 1
  23607559.159    -7803555.11049  -5658302.32045  23607559.247    23607566.286
  21817233.067   -18705297.31649 -13535450.35647  21817233.274    21817239.457
  20806804.358   -26922097.93849 -19928551.04248  20806804.629    20806810.663
  24171872.646    -3543149.30749  -2750797.01945  24171873.220    24171880.976
  21760527.685   -17974986.85049 -13696324.41547  21760527.430    21760533.999
  22669174.270   -16847204.26049 -12794616.49846  22669174.227    22669182.562
 04  5 22  0 24 30.0000000  0  6G14G11G25G30G20G 1
  23623008.030    -7722371.17249  -5595042.15145  23623008.082    23623015.156
  21826367.720   -18657294.59249 -13498045.67047  21826367.910    21826374.092
  20812146.525   -26894024.53649 -19906675.66948  20812146.811    20812152.870
  24175704.001    -3523015.32549  -2735108.24045  24175704.578    24175712.196
  21746227.641   -18050133.73749 -13754880.41547  21746227.390    21746234.003
  22656616.727   -16913193.99449 -12846037.02546  22656616.701    22656625.074
 04  5 22  0 25  0.0000000  0  6G14G11G25G30G20G 1
  23638463.679    -7641150.44149  -5531753.33845  23638463.723    23638471.003
  21835589.699   -18608832.70349 -13460283.19947  21835589.866    21835596.107
  20817579.552   -26865474.01549 -19884428.51048  20817579.809    20817585.863
  24179640.258    -3502329.69449  -2718989.59445  24179640.933    24179648.534
  21731971.056   -18125052.42449 -13813258.59547  21731970.820    21731977.468
  22644093.105   -16979005.63349 -12897318.76746  22644093.110    22644101.480
 04  5 22  0 25 30.0000000  0  6G14G11G25G30G20G 1
  23653926.080    -7559895.07249  -5468437.51345  23653926.108    23653933.477
  21844898.448   -18559914.96449 -13422165.51347  21844898.621    21844904.907
  20823102.763   -26836449.35949 -19861811.89548  20823103.046    20823109.069
  24183681.448    -3481094.26649  -2702442.50245  24183681.985    24183689.533
  21717758.067   -18199742.27549 -13871458.45747  21717757.799    21717764.469
  22631603.153   -17044640.61449 -12948462.85346  22631603.157    22631611.494
 04  5 22  0 26  0.0000000  0  6G14G11G25G30G20G 1
  23669395.353    -7478604.11049  -5405093.95345  23669395.368    23669402.596
  21854293.762   -18510542.46449 -13383693.47147  21854293.937    21854300.218
  20828716.108   -26806950.97949 -19838826.15048  20828716.380    20828722.411
  24187827.272    -3459308.05249  -2685466.21245  24187827.826    24187835.116
  21703589.218   -18274199.96349 -13929477.41847  21703588.958    21703595.632
  22619147.085   -17110097.63549 -12999468.27246  22619147.061    22619155.400
 04  5 22  0 26 30.0000000  0  6G14G11G25G30G20G 1
  23684871.177    -7397278.79849  -5341723.64345  23684871.224    23684878.321
  21863775.213   -18460717.34849 -13344868.74247  21863775.373    21863781.629
  20834419.273   -26776980.64749 -19815472.65048  20834419.552    20834425.587
  24192077.329    -3436971.82049  -2668061.39345  24192078.152    24192085.961
  21689464.868   -18348423.89849 -13987314.23347  21689464.606    21689471.278
  22606724.793   -17175377.02149 -13050335.27646  22606724.750    22606733.081
 04  5 22  0 27  0.0000000  0  6G14G11G25G30G20G 1
  23700353.223    -7315920.56949  -5278327.66745  23700353.287    23700360.255
  21873342.151   -18410442.76749 -13305693.77947  21873342.350    21873348.605
  20840211.746   -26746540.84249 -19791753.32248  20840212.031    20840218.085
  24196432.327    -3414086.83249  -2650228.93245  24196433.247    24196440.871
  21675385.179   -18422413.06349 -14044968.10947  21675384.953    21675391.557
  22594336.134   -17240479.87349 -13101064.72146  22594336.096    22594344.326
 04  5 22  0 27 30.0000000  0  6G14G11G25G30G20G 1
  23715841.758    -7234528.14049  -5214905.06945  23715841.765    23715848.908
  21882994.673   -18359718.76549 -13266168.61647  21882994.858    21883001.101
  20846093.655   -26715631.10949 -19767667.82448  20846093.949    20846099.998
  24200891.994    -3390651.65649  -2631967.76245  24200892.880    24200900.630
  21661350.951   -18496163.55049 -14102436.00547  21661350.709    21661357.322
  22581981.442   -17305404.16149 -13151655.03146  22581981.409    22581989.591
 04  5 22  0 28  0.0000000  0  6G14G11G25G30G20G 1
  23731336.309    -7153103.55549  -5151457.39345  23731336.358    23731343.502
  21892732.028   -18308549.07549 -13226296.16647  21892732.217    21892738.421
  20852064.375   -26684254.76149 -19743218.72448  20852064.656    20852070.730
  24205456.025    -3366667.92449  -2613279.15145  24205456.772    24205464.435
  21647362.206   -18569674.70849 -14159717.40547  21647361.973    21647368.589
  22569660.387   -17370151.45749 -13202107.41646  22569660.389    22569668.590
 04  5 22  0 28 30.0000000  0  6G14G11G25G30G20G 1
  23746837.180    -7071646.42849  -5087984.35745  23746837.266    23746844.299
  21902553.929   -18256934.64449 -13186077.16847  21902554.107    21902560.349
  20858123.823   -26652412.30349 -19718406.42448  20858124.101    20858130.175
  24210124.292    -3342135.43749  -2594162.95445  24210125.019    24210132.689
  21633419.565   -18642943.71349 -14216810.11547  21633419.295    21633425.946
  22557373.187   -17434720.75649 -13252421.10446  22557373.205    22557381.385
 04  5 22  0 29  0.0000000  0  6G14G11G25G30G20G 1
  23762344.107    -6990157.30849  -5024486.40545  23762344.201    23762351.282
  21912460.059   -18204877.70549 -13145513.36247  21912460.249    21912466.504
  20864271.621   -26620105.21249 -19693232.07348  20864271.915    20864277.985
  24214896.988    -3317054.57249  -2574619.44045  24214897.745    24214905.528
  21619523.391   -18715968.54849 -14273712.56347  21619523.136    21619529.797
  22545119.866   -17499112.05649 -13302596.08946  22545119.898    22545128.066
 04  5 22  0 29 30.0000000  0  6G14G11G25G30G20G 1
  23777856.828    -6908637.48049  -4960964.47945  23777856.853    23777863.925
  21922449.807   -18152381.39249 -13104607.18947  21922449.994    21922456.235
  20870507.385   -26587336.02249 -19667697.64448  20870507.688    20870513.779
  24219773.821    -3291426.55349  -2554649.57345  24219774.348    24219782.653
  21605673.941   -18788747.82549 -14330423.66647  21605673.693    21605680.348
  22532900.328   -17563326.12549 -13352632.97646  22532900.318    22532908.489
 04  5 22  0 30  0.0000000  0  6G14G11G25G30G20G 1
  23793375.305    -6827086.90649  -4897418.64345  23793375.399    23793382.620
  21932522.863   -18099447.20449 -13063359.81047  21932523.060    21932529.290
  20876830.944   -26554105.62449 -19641803.83148  20876831.240    20876837.357
  24224754.906    -3265251.07449  -2534253.09045  24224755.671    24224763.301
  21591871.754   -18861278.68849 -14386941.20747  21591871.508    21591878.121
  22520714.544   -17627362.34349 -13402531.28446  22520714.544    22520722.747
 04  5 22  0 30 30.0000000  0  6G14G11G25G30G20G 1
  23808899.677    -6745506.50449  -4833849.54745  23808899.702    23808906.926
  21942678.909   -18046077.25449 -13021772.88147  21942679.049    21942685.285
  20883241.920   -26520415.77049 -19615552.00848  20883242.192    20883248.303
  24229839.896    -3238529.10949  -2513430.79745  24229840.660    24229848.534
  21578117.165   -18933559.69949 -14443264.05747  21578116.910    21578123.497
  22508562.547   -17691221.10649 -13452291.30546  22508562.557    22508570.818
 04  5 22  0 31  0.0000000  0  6G14G11G25G30G20G 1
  23824429.608    -6663895.49949  -4770256.63345  23824429.551    23824437.002
  21952917.581   -17992272.87049 -12979847.43647  21952917.741    21952923.954
  20889740.204   -26486267.17749 -19588942.72448  20889740.474    20889746.561
  24235028.885    -3211260.10949  -2492182.24745  24235029.768    24235037.806
  21564410.701   -19005587.65049 -14499389.71747  21564410.429    21564416.994
  22496444.596   -17754901.21449 -13501912.11346  22496444.626    22496452.861
 04  5 22  0 31 30.0000000  0  6G14G11G25G30G20G 1
  23839965.147    -6582256.00849  -4706641.50445  23839965.106    23839972.555
  21963238.253   -17938037.72849 -12937586.32647  21963238.426    21963244.627
  20896325.113   -26451663.19949 -19561978.59248  20896325.385    20896331.474
  24240321.632    -3183446.00049  -2470508.89845  24240322.484    24240330.598
  21550752.526   -19077361.95449 -14555317.72647  21550752.255    21550758.802
  22484360.462   -17818404.13149 -13551394.85646  22484360.431    22484368.597
 04  5 22  0 32  0.0000000  0  6G14G11G25G30G20G 1
  23855506.156    -6500587.89749  -4643004.06345  23855506.047    23855513.495
  21973640.606   -17883373.17049 -12894990.60947  21973640.765    21973647.020
  20902996.547   -26416604.54149 -19534660.16648  20902996.836    20903002.914
  24245718.370    -3155086.79349  -2448410.82445  24245719.099    24245727.081
  21537143.092   -19148879.81249 -14611045.90447  21537142.826    21537149.366
  22472310.048   -17881729.34349 -13600739.12846  22472310.004    22472318.115
 04  5 22  0 32 30.0000000  0  6G14G11G25G30G20G 1
  23871052.551    -6418892.10749  -4579345.05145  23871052.473    23871059.789
  21984124.126   -17828281.91349 -12852062.39647  21984124.277    21984130.587
  20909754.102   -26381093.24149 -19506989.02848  20909754.408    20909760.496
  24251218.527    -3126183.80449  -2425889.06445  24251219.320    24251227.309
  21523582.806   -19220139.51849 -14666572.92347  21523582.534    21523589.079
  22460293.341   -17944877.17549 -13649945.17646  22460293.313    22460301.433
 04  5 22  0 33  0.0000000  0  7G14G11G25G16G30G20G 1
  23886603.819    -6337170.04449  -4515665.59445  23886603.708    23886610.958
  21994688.187   -17772767.20549 -12808804.22547  21994688.374    21994694.724
  20916597.327   -26345131.96249 -19478967.26348  20916597.621    20916603.720
  24657906.369    -5776578.79549  -4477159.65445  24657906.277    24657916.580
  24256821.921    -3096738.10149  -2402944.38945  24256822.721    24256830.756
  21510071.796   -19291140.13349 -14721898.06047  21510071.527    21510078.068
  22448310.233   -18007848.64149 -13699013.80946  22448310.188    22448318.256
 04  5 22  0 33 30.0000000  0  7G14G11G25G16G30G20G 1
  23902159.768    -6255423.25049  -4451966.83445  23902159.699    23902166.840
  22005332.319   -17716832.15349 -12765218.50947  22005332.515    22005338.834
  20923525.611   -26308723.53449 -19450597.06848  20923525.904    20923531.992
  24639918.420    -5871106.22549  -4550817.22445  24639918.379    24639928.512
  24262528.439    -3066751.66349  -2379578.33645  24262529.090    24262536.907
  21496610.291   -19361880.55349 -14777020.44747  21496610.037    21496616.586
  22436360.548   -18070644.70049 -13747945.75246  22436360.481    22436368.498
 04  5 22  0 34  0.0000000  0  7G14G11G25G16G30G20G 1
  23917720.946    -6173649.08849  -4388246.75845  23917720.876    23917727.976
  22016056.662   -17660475.79949 -12721304.50247  22016056.821    22016063.130
  20930539.303   -26271866.38449 -19421877.21348  20930539.599    20930545.667
  24621923.922    -5965667.73249  -4624501.39245  24621923.737    24621933.607
  24268338.056    -3036221.60949  -2355788.71745  24268338.659    24268346.595
  21483199.327   -19432355.37649 -14831935.87247  21483199.081    21483205.607
  22424444.813   -18133262.22149 -13796738.57846  22424444.710    22424452.715
 04  5 22  0 34 30.0000000  0  7G14G11G25G16G30G20G 1
  23933287.386    -6091846.33549  -4324504.43945  23933287.380    23933294.692
  22026860.897   -17603699.37549 -12677063.18347  22026861.051    22026867.391
  20937638.344   -26234560.69149 -19392807.85248  20937638.624    20937644.714
  24603923.648    -6060259.00449  -4698208.64945  24603923.488    24603933.349
  24274251.104    -3005147.56049  -2331575.18145  24274251.675    24274259.711
  21469839.525   -19502561.31149 -14886641.78147  21469839.299    21469845.828
  22412563.291   -18195699.69649 -13845391.10646  22412563.166    22412571.235
 04  5 22  0 35  0.0000000  0  7G14G11G25G16G30G20G 1
  23948858.892    -6010018.33649  -4260742.41245  23948858.850    23948866.257
  22037744.071   -17546507.87949 -12632498.42547  22037744.247    22037750.601
  20944821.853   -26196810.92249 -19363392.45548  20944822.151    20944828.252
  24585918.053    -6154879.82249  -4771938.99845  24585917.723    24585927.679
  24280267.242    -2973532.77449  -2306940.29945  24280267.851    24280275.800
  21456530.864   -19572498.82049 -14941138.52347  21456530.623    21456537.156
  22400715.556   -18257959.79049 -13893905.41446  22400715.448    22400723.503
 04  5 22  0 35 30.0000000  0  7G14G11G25G16G30G20G 1
  23964435.237    -5928164.61349  -4196960.33245  23964435.167    23964442.495
  22048706.134   -17488902.04049 -12587610.81647  22048706.298    22048712.686
  20952089.698   -26158618.04749 -19333631.78348  20952090.010    20952096.125
  24567907.390    -6249526.49649  -4845689.58845  24567907.331    24567916.810
  24286386.282    -2941377.04249  -2281883.89845  24286386.904    24286394.853
  21443273.871   -19642164.68649 -14995423.59747  21443273.641    21443280.181
  22388901.717   -18320041.59549 -13942280.80246  22388901.656    22388909.675
 04  5 22  0 36  0.0000000  0  7G14G11G25G16G30G20G 1
  23980016.243    -5846286.06249  -4133158.94345  23980016.240    23980023.560
  22059746.503   -17430884.89649 -12542402.70047  22059746.645    22059753.017
  20959441.465   -26119984.22849 -19303527.51948  20959441.790    20959447.891
  24549892.086    -6344196.51149  -4919458.22845  24549892.104    24549901.398
  24292607.940    -2908681.68249  -2256407.04545  24292608.517    24292616.727
  21430068.882   -19711557.56549 -15049495.95447  21430068.622    21430075.158
  22377121.660   -18381945.68649 -13990517.70746  22377121.661    22377129.670
 04  5 22  0 36 30.0000000  0  7G14G11G25G16G30G20G 1
  23995601.876    -5764382.78749  -4069338.27845  23995601.781    23995609.275
  22070864.693   -17372458.52949 -12496875.70647  22070864.828    22070871.245
  20966876.972   -26080910.75349 -19273080.66548  20966877.253    20966883.351
  24531873.035    -6438886.81649  -4993242.71845  24531873.147    24531882.519
  24298932.529    -2875447.17949  -2230510.01945  24298933.059    24298941.063
  21416916.320   -19780674.82349 -15103353.54147  21416916.058    21416922.557
  22365375.537   -18443671.67349 -14038615.83546  22365375.563    22365383.605
 04  5 22  0 37  0.0000000  0  7G14G11G25G16G30G20G 1
  24011192.038    -5682455.87449  -4005499.16445  24011191.967    24011199.397
  22082060.116   -17313626.10449 -12451032.29747  22082060.298    22082066.710
  20974395.587   -26041400.13049 -19242293.17348  20974395.888    20974401.967
  24513850.461    -6533595.20649  -5067041.35845  24513850.606    24513859.893
  24305359.146    -2841674.91649  -2204194.02445  24305359.570    24305367.801
  21403816.416   -19849515.23849 -15156995.40747  21403816.156    21403822.617
  22353663.206   -18505220.41549 -14086575.84946  22353663.211    22353671.217
 04  5 22  0 37 30.0000000  0  7G14G11G25G16G30G20G 1
  24026786.714    -5600505.50949  -3941641.79545  24026786.661    24026794.055
  22093332.579   -17254389.02949 -12404873.57747  22093332.764    22093339.200
  20981997.291   -26001453.27849 -19211165.76848  20981997.555    20982003.619
  24495825.091    -6628318.34649  -5140851.43345  24495825.154    24495834.609
  24311887.906    -2807365.30949  -2177459.27445  24311888.510    24311896.555
  21390769.735   -19918076.07449 -15210419.42347  21390769.459    21390775.920
  22341984.633   -18566591.39749 -14134397.34746  22341984.616    22341992.626
 04  5 22  0 38  0.0000000  0  7G14G11G25G16G30G20G 1
  24042385.966    -5518531.37249  -3877765.91845  24042385.932    24042393.245
  22104681.706   -17194749.27549 -12358401.08147  22104681.857    22104688.325
  20989681.592   -25961071.85249 -19179699.73248  20989681.866    20989687.945
  24477797.496    -6723052.63149  -5214670.18145  24477797.483    24477807.175
  24318518.986    -2772518.65949  -2150306.07045  24318519.679    24318527.492
  21377776.726   -19986354.72049 -15263623.54647  21377776.443    21377782.861
  22330340.018   -18627784.10349 -14182079.93646  22330339.988    22330347.983
 04  5 22  0 38 30.0000000  0  7G14G11G25G16G30G20G 1
  24057989.448    -5436535.35649  -3813872.97145  24057989.520    24057996.641
  22116106.724   -17134710.65649 -12311617.78447  22116106.908    22116113.378
  20997448.036   -25920259.04549 -19147897.55948  20997448.319    20997454.403
  24459768.181    -6817796.53749  -5288496.41545  24459768.165    24459778.033
  24325251.863    -2737137.18349  -2122736.11245  24325252.527    24325260.354
  21364837.573   -20054350.38449 -15316607.16647  21364837.301    21364843.740
  22318729.104   -18688799.68249 -14229624.50346  22318729.115    22318737.062
 04  5 22  0 39  0.0000000  0  7G14G11G25G16G30G20G 1
  24073597.104    -5354517.11649  -3749962.70245  24073597.156    24073604.146
  22127607.271   -17074275.05149 -12264525.15647  22127607.456    22127613.895
  21005296.397   -25879015.78749 -19115759.96248  21005296.666    21005302.759
  24441737.794    -6912546.59149  -5362327.57645  24441737.677    24441747.258
  24332086.348    -2701220.99449  -2094749.51745  24332087.016    24332095.185
  21351952.731   -20122060.39349 -15369368.19447  21351952.481    21351958.933
  22307152.075   -18749637.62949 -14277030.65246  22307152.030    22307159.940
 04  5 22  0 39 30.0000000  0  7G14G11G25G16G30G20G 1
  24089208.637    -5272478.08549  -3686036.26845  24089208.678    24089215.661
  22139182.803   -17013445.43549 -12217125.50347  22139182.992    22139189.379
  21013226.108   -25837344.77349 -19083289.05248  21013226.386    21013232.487
  24423706.618    -7007300.98049  -5436162.06045  24423706.570    24423715.940
  24339022.400    -2664772.28249  -2066347.91645  24339022.956    24339031.018
  21339122.554   -20189483.45649 -15421905.62747  21339122.283    21339128.754
  22295608.572   -18810298.98449 -14324299.20246  22295608.532    22295616.407
 04  5 22  0 40  0.0000000  0  6G14G11G25G16G20G 1
  24104823.749    -5190420.01649  -3622094.96945  24104823.868    24104830.762
  22150832.600   -16952225.82949 -12169421.95947  22150832.737    22150839.122
  21021236.645   -25795249.45349 -19050487.51248  21021236.891    21021243.012
  24405674.934    -7102057.96449  -5509998.51645  24405674.863    24405684.249
  21326347.071   -20256618.98249 -15474219.00647  21326346.807    21326353.258
  22284098.370   -18870785.01149 -14371431.13046  22284098.330    22284106.268
 04  5 22  0 40 30.0000000  0  6G14G11G25G16G20G 1
  24120443.103    -5108339.65749  -3558136.33045  24120443.244    24120450.171
  22162556.799   -16890615.00949 -12121413.57647  22162556.921    22162563.328
  21029328.185   -25752727.86949 -19017353.82648  21029328.469    21029334.598
  24387643.744    -7196811.18449  -5583832.02645  24387643.766    24387653.429
  21313627.437   -20323460.92349 -15526303.62147  21313627.183    21313633.642
  22272622.245   -18931092.15849 -14418423.68147  22272622.255    22272630.193
 04  5 22  0 41  0.0000000  0  6G14G11G25G16G20G 1
  24136066.444    -5026238.98249  -3494161.85645  24136066.469    24136073.626
  22174354.591   -16828617.07849 -12073103.54847  22174354.763    22174361.194
  21037500.265   -25709783.48749 -18983890.68348  21037500.551    21037506.665
  24369613.727    -7291559.10849  -5657661.43345  24369613.607    24369623.282
  21300963.808   -20390008.75549 -15578159.05547  21300963.540    21300969.992
  22261180.015   -18991221.91949 -14465278.00347  22261180.016    22261187.853
 04  5 22  0 41 30.0000000  0  6G14G11G25G16G20G 1
  24151693.739    -4944117.16549  -3430170.88445  24151693.760    24151700.926
  22186225.920   -16766233.11149 -12024492.71047  22186226.095    22186232.529
  21045752.624   -25666417.06149 -18950098.67148  21045752.908    21045759.047
  24351585.593    -7386297.73149  -5731483.62045  24351585.438    24351594.958
  21288356.674   -20456259.45349 -15629782.96347  21288356.418    21288362.870
  22249771.660   -19051173.26049 -14511993.30047  22249771.624    22249779.423
 04  5 22  0 42  0.0000000  0  6G14G11G25G16G20G 1
  24167324.608    -4861976.46349  -3366165.19645  24167324.560    24167331.836
  22198169.893   -16703467.09649 -11975584.17147  22198170.077    22198176.515
  21054084.619   -25622631.98549 -18915980.43648  21054084.900    21054091.045
  24333559.289    -7481025.85349  -5805297.62345  24333559.188    24333568.687
  21275806.169   -20522212.61449 -15681175.02147  21275805.926    21275812.380
  22238396.802   -19110947.91649 -14558570.92347  22238396.858    22238404.655
 04  5 22  0 42 30.0000000  0  6G14G11G25G16G20G 1
  24182959.403    -4779815.70249  -3302143.89545  24182959.295    24182966.647
  22210186.416   -16640319.97149 -11926378.67147  22210186.598    22210193.001
  21062496.283   -25578428.44249 -18881536.12948  21062496.577    21062502.738
  24315535.873    -7575738.97949  -5879099.97745  24315535.715    24315544.989
  21263313.029   -20587864.52149 -15732332.33947  21263312.785    21263319.235
  22227055.994   -19170544.22749 -14605009.57547  22227056.000    22227063.813
 04  5 22  0 43  0.0000000  0  6G14G11G25G16G20G 1
  24198597.661    -4697635.56349  -3238107.50645  24198597.649    24198605.224
  22222274.846   -16576795.09549 -11876878.81847  22222275.009    22222281.402
  21070987.100   -25533808.84749 -18846767.62348  21070987.389    21070993.538
  24297515.726    -7670434.63049  -5952888.65545  24297515.510    24297524.780
  21250877.561   -20653213.40549 -15783253.53447  21250877.324    21250883.756
  22215749.018   -19229962.74449 -14651309.68547  22215749.037    22215756.777
 04  5 22  0 43 30.0000000  0  6G14G11G25G16G20G 1
  24214239.775    -4615436.38849  -3174056.25045  24214239.681    24214247.207
  22234434.741   -16512894.62649 -11827086.29847  22234434.891    22234441.324
  21079556.721   -25488775.12549 -18811676.41948  21079557.006    21079563.176
  24279499.436    -7765109.93349  -6026661.49745  24279499.273    24279508.643
  21238500.171   -20718257.10549 -15833936.92847  21238499.922    21238506.337
  22204475.812   -19289203.48249 -14697471.26947  22204475.821    22204483.607
 04  5 22  0 44  0.0000000  0  6G14G11G25G16G20G 1
  24229885.050    -4533220.23849  -3109991.76645  24229884.999    24229892.371
  22246665.349   -16448622.47049 -11777004.14847  22246665.484    22246672.008
  21088204.487   -25443330.83049 -18776265.28948  21088204.790    21088210.963
  24261487.360    -7859763.04649  -6100417.05545  24261487.321    24261496.693
  21226180.993   -20782994.87049 -15884381.93147  21226180.741    21226187.115
  22193236.166   -19348267.94749 -14743495.49347  22193236.192    22193243.984
 04  5 22  0 44 30.0000000  0  6G14G11G25G16G20G 1
  24245533.716    -4450985.91649  -3045913.15845  24245533.786    24245541.228
  22258966.469   -16383979.91149 -11726633.38147  22258966.608    22258973.145
  21096930.357   -25397476.10549 -18740534.34448  21096930.669    21096936.819
  24243480.517    -7954389.85549  -6174152.12445  24243480.508    24243489.623
  21213920.665   -20847423.27749 -15934585.87447  21213920.399    21213926.765
  22182030.406   -19407154.61949 -14789381.18347  22182030.450    22182038.239
 04  5 22  0 45  0.0000000  0  6G14G11G25G16G20G 1
  24261185.756    -4368734.17449  -2981820.96245  24261185.721    24261193.138
  22271337.589   -16318969.40849 -11675975.90047  22271337.754    22271344.275
  21105733.890   -25351213.31949 -18704485.43048  21105734.214    21105740.366
  24225479.027    -8048987.89149  -6247864.71445  24225479.020    24225488.273
  21201719.550   -20911540.55749 -15984547.37847  21201719.255    21201725.655
  22170858.316   -19465863.99149 -14835128.71747  22170858.354    22170866.194
 04  5 22  0 45 30.0000000  0  6G14G11G25G16G20G 1
  24276841.177    -4286465.10549  -2917715.23745  24276841.093    24276848.516
  22283778.227   -16253593.66249 -11625033.82447  22283778.351    22283784.873
  21114614.775   -25304543.93949 -18668119.69647  21114615.076    21114621.240
  24207483.648    -8143553.67249  -6321552.20145  24207483.648    24207492.772
  21189578.063   -20975344.32549 -16034264.59547  21189577.810    21189584.207
  22159720.115   -19524395.80149 -14880737.88147  22159720.095    22159727.930
 04  5 22  0 46  0.0000000  0  6G14G11G25G16G20G 1
  24292499.633    -4204179.57049  -2853596.69245  24292499.642    24292507.028
  22296287.698   -16187855.80649 -11573809.56547  22296287.851    22296294.412
  21123572.533   -25257470.68849 -18631439.24647  21123572.825    21123579.009
  24189495.002    -8238084.97649  -6395212.85445  24189495.001    24189504.034
  21177496.579   -21038832.98949 -16083736.27247  21177496.314    21177502.704
  22148615.491   -19582750.74249 -14926209.23947  22148615.493    22148623.311
 04  5 22  0 46 30.0000000  0  6G14G11G25G16G20G 1
  24308161.270    -4121877.11149  -2789464.98745  24308161.210    24308168.620
  22308865.858   -16121757.23949 -11522304.24247  22308866.023    22308872.618
  21132606.943   -25209994.53849 -18594444.85247  21132607.240    21132613.395
  24171513.205    -8332577.94749  -6468843.59445  24171513.310    24171522.447
  21165475.633   -21102003.66649 -16132960.17047  21165475.346    21165481.720
  22137544.753   -19640927.86449 -14971542.03047  22137544.767    22137552.582
 04  5 22  0 47  0.0000000  0  6G14G11G25G16G20G 1
  24323825.948    -4039558.73049  -2725320.85145  24323825.755    24323833.274
  22321512.065   -16055301.08949 -11470520.28447  22321512.259    22321518.882
  21141717.536   -25162118.29049 -18557138.69747  21141717.813    21141723.974
  24153539.457    -8427030.09649  -6542442.52345  24153539.363    24153548.744
  21153515.498   -21164854.57249 -16181934.89547  21153515.206    21153521.582
  22126507.656   -19698927.82649 -15016736.78147  22126507.658    22126515.515
 04  5 22  0 47 30.0000000  0  6G14G11G25G16G20G 1
  24339493.710    -3957223.94649  -2661163.91745  24339493.618    24339501.210
  22334225.995   -15988489.23849 -11418459.15347  22334226.187    22334232.878
  21150904.046   -25113842.99949 -18519521.59947  21150904.324    21150910.462
  24135574.055    -8521437.69049  -6616006.76445  24135573.970    24135583.407
  21141616.707   -21227383.03249 -16230658.36647  21141616.443    21141622.786
  22115504.445   -19756749.88449 -15061792.90847  22115504.435    22115512.317
 04  5 22  0 48  0.0000000  0  6G14G11G25G16G20G 1
  24355164.434    -3874874.27149  -2596995.42645  24355164.370    24355171.856
  22347006.905   -15921325.31749 -11366123.67946  22347007.099    22347013.823
  21160165.940   -25065171.38149 -18481595.67547  21160166.222    21160172.367
  24117617.754    -8615798.89449  -6689534.90045  24117617.700    24117626.790
  21129779.491   -21289587.94249 -16279129.71947  21129779.218    21129785.595
  22104534.886   -19814395.22149 -15106711.32847  22104534.849    22104542.720
 04  5 22  0 48 30.0000000  0  6G14G11G25G16G20G 1
  24370837.893    -3792509.98549  -2532815.54145  24370837.879    24370845.473
  22359854.287   -15853812.23849 -11313516.14246  22359854.435    22359861.176
  21169502.790   -25016105.74649 -18443362.72847  21169503.078    21169509.249
  24099670.772    -8710110.75449  -6763024.53845  24099670.765    24099679.622
  21118004.260   -21351467.13049 -16327347.26447  21118003.990    21118010.362
  22093598.909   -19871863.96749 -15151492.14547  22093598.909    22093606.731
 04  5 22  0 49  0.0000000  0  6G14G11G25G16G20G 1
  24386514.195    -3710131.10249  -2468624.25745  24386514.078    24386521.694
  22372767.710   -15785952.09949 -11260638.16946  22372767.845    22372774.512
  21178914.359   -24966647.56249 -18404823.89847  21178914.662    21178920.862
  24081733.725    -8804370.09049  -6836473.23745  24081733.663    24081742.690
  21106291.442   -21413018.30049 -16375309.20347  21106291.169    21106297.540
  22082696.658   -19929155.72349 -15196135.04147  22082696.647    22082704.463
 04  5 22  0 49 30.0000000  0  6G14G11G25G16G20G 1
  24402193.239    -3627736.82149  -2404420.96945  24402193.163    24402200.945
  22385746.970   -15717746.15349 -11207490.73446  22385747.119    22385753.706
  21188400.454   -24916797.98449 -18365980.08647  21188400.735    21188406.937
  24063807.400    -8898572.68949  -6909877.73745  24063807.374    24063816.320
  21094641.712   -21474238.04649 -16423012.89347  21094641.434    21094647.792
  22071828.268   -19986269.47049 -15240639.22047  22071828.241    22071836.024
 04  5 22  0 50  0.0000000  0  6G14G11G25G16G20G 1
  24417875.090    -3545328.91549  -2340207.06945  24417874.938    24417882.771
  22398791.176   -15649198.55849 -11154077.08446  22398791.309    22398797.954
  21197960.402   -24866560.23349 -18326833.80147  21197960.707    21197966.913
  24045891.982    -8992716.97049  -6983236.74745  24045892.025    24045901.199
  21083055.129   -21535125.74849 -16470457.84747  21083054.855    21083061.232
  22060993.432   -20043206.76249 -15285005.90647  22060993.392    22061001.191
 04  5 22  0 50 30.0000000  0  6G14G11G25G16G20G 1
  24433559.519    -3462906.78149  -2275982.11245  24433559.489    24433567.172
  22411900.028   -15580310.97649 -11100398.50946  22411900.164    22411906.897
  21207593.981   -24815935.37449 -18287385.87047  21207594.308    21207600.500
  24027988.876    -9086798.84649  -7056547.23445  24027988.909    24027997.839
  21071532.382   -21595678.32249 -16517641.65747  21071532.092    21071538.486
  22050192.412   -20099966.41349 -15329234.17647  22050192.370    22050200.148
 04  5 22  0 51  0.0000000  0  6G14G11G25G16G20G 1
  24449246.328    -3380471.58249  -2211746.95145  24449246.359    24449254.176
  22425072.865   -15511087.24649 -11046457.99846  22425073.055    22425079.826
  21217300.659   -24764926.61949 -18247638.80347  21217300.968    21217307.173
  24010097.739    -9180816.55649  -7129807.68745  24010097.856    24010106.774
  21060073.546   -21655894.65049 -16564563.45747  21060073.265    21060079.690
  22039424.971   -20156549.55949 -15373324.90647  22039424.934    22039432.756
 04  5 22  0 51 30.0000000  0  6G14G11G25G16G20G 1
  24464935.947    -3298022.85449  -2147501.23045  24464935.987    24464943.557
  22438309.364   -15441529.08749 -10992256.88746  22438309.532    22438316.329
  21227080.237   -24713534.81349 -18207593.25147  21227080.538    21227086.717
  23992219.646    -9274766.03249  -7203014.92245  23992219.832    23992228.850
  21048679.301   -21715771.78249 -16611220.94747  21048679.023    21048685.452
  22028691.251   -20212955.33349 -15417277.42647  22028691.234    22028699.096
 04  5 22  0 52  0.0000000  0  6G14G11G25G16G20G 1
  24480628.031    -3215561.09249  -2083245.36645  24480628.034    24480635.607
  22451609.032   -15371639.15749 -10937797.26146  22451609.184    22451615.981
  21236932.232   -24661762.15449 -18167250.94047  21236932.548    21236938.711
  23974355.217    -9368644.52749  -7276166.88345  23974355.240    23974364.185
  21037349.924   -21775307.81049 -16657612.65147  21037349.656    21037356.093
  22017991.308   -20269183.86749 -15461091.84147  22017991.282    22017999.126
 04  5 22  0 52 30.0000000  0  6G14G11G25G16G20G 1
  24496322.222    -3133087.64549  -2018980.42145  24496322.139    24496329.872
  22464971.085   -15301421.31549 -10883082.10746  22464971.264    22464978.069
  21246856.138   -24609611.81549 -18126614.32147  21246856.447    21246862.624
  23956504.495    -9462450.10449  -7349262.02945  23956504.647    23956513.574
  21026085.731   -21834501.53349 -16703737.61547  21026085.464    21026091.879
  22007324.827   -20325236.35949 -15504769.07147  22007324.816    22007332.625
 04  5 22  0 53  0.0000000  0  6G14G11G25G16G20G 1
  24512019.039    -3050600.63349  -1954704.86345  24512019.082    24512026.561
  22478395.435   -15230876.09949 -10828111.86846  22478395.611    22478402.413
  21256851.964   -24557083.51449 -18085683.19747  21256852.267    21256858.421
  23938668.837    -9556177.32149  -7422296.11945  23938668.855    23938677.782
  21014887.484   -21893348.67649 -16749592.52147  21014887.246    21014893.651
  21996692.286   -20381110.65549 -15548307.45747  21996692.277    21996700.063
 04  5 22  0 53 30.0000000  0  6G14G11G25G16G20G 1
  24527717.903    -2968102.74149  -1890420.84845  24527717.794    24527725.487
  22491881.207   -15160008.31349 -10772890.28146  22491881.375    22491888.131
  21266918.872   -24504181.77449 -18044461.07847  21266919.168    21266925.334
  23920848.023    -9649825.74249  -7495268.82245  23920848.081    23920856.770
  21003755.159   -21951849.58049 -16795177.63147  21003754.903    21003761.294
  21986093.167   -20436809.25549 -15591708.92947  21986093.184    21986100.909
 04  5 22  0 54  0.0000000  0  6G14G11G25G16G20G 1
  24543419.137    -2885592.53349  -1826127.23545  24543419.054    24543426.659
  22505428.092   -15088819.26249 -10717418.35146  22505428.256    22505434.985
  21277056.713   -24450907.14749 -18002948.39347  21277056.980    21277063.187
  23903043.020    -9743390.76449  -7568176.50745  23903043.028    23903051.942
  20992689.404   -22010000.58349 -16840490.08847  20992689.154    20992695.528
  21975527.793   -20492330.55949 -15634972.24647  21975527.799    21975535.525
 04  5 22  0 54 30.0000000  0  6G14G11G25G16G20G 1
  24559122.535    -2803070.62549  -1761824.51745  24559122.623    24559130.063
  22519035.564   -15017311.67949 -10661698.21346  22519035.736    22519042.460
  21287265.138   -24397261.41149 -17961146.53647  21287265.393    21287271.629
  23885254.424    -9836869.53549  -7641016.96745  23885254.533    23885263.468
  20981690.567   -22067799.57649 -16885528.25047  20981690.308    20981696.697
  21964996.136   -20547674.74849 -15678097.55747  21964996.140    21965003.884
 04  5 22  0 55  0.0000000  0  6G14G11G25G16G20G 1
  24574828.113    -2720537.90549  -1697513.40745  24574828.120    24574835.704
  22532703.066   -14945488.76549 -10605732.37346  22532703.224    22532709.924
  21297543.580   -24343247.56549 -17919057.84147  21297543.867    21297550.099
  23867483.029    -9930259.47449  -7713788.27545  23867483.135    23867491.800
  20970759.041   -22125244.99649 -16930290.90447  20970758.796    20970765.202
  21954498.041   -20602842.47149 -15721085.36647  21954498.047    21954505.776
 04  5 22  0 55 30.0000000  0  6G14G11G25G16G20G 1
  24590535.796    -2637993.75349  -1633193.35945  24590535.966    24590543.457
  22546430.143   -14873352.50049 -10549522.35446  22546430.331    22546437.099
  21307892.013   -24288866.48449 -17876682.98547  21307892.283    21307898.490
  23849728.824   -10023556.84349  -7786487.37145  23849728.897    23849737.736
  20959895.343   -22182334.04149 -16974775.86247  20959895.097    20959901.480
  21944033.685   -20657832.91849 -15763935.03647  21944033.682    21944041.425
 04  5 22  0 56  0.0000000  0  6G14G11G25G16G20G 1
  24606245.540    -2555439.05949  -1568865.07145  24606245.680    24606253.124
  22560216.281   -14800906.24749 -10493070.79146  22560216.417    22560223.266
  21318309.745   -24234120.99049 -17834024.17147  21318310.021    21318316.223
  23831992.850   -10116759.07249  -7859112.40745  23831993.005    23832001.717
  20949099.763   -22239065.23449 -17018981.97747  20949099.510    20949105.862
  21933603.002   -20712646.74649 -15806647.07547  21933602.952    21933610.698
 04  5 22  0 56 30.0000000  0  6G14G11G25G16G20G 1
  24621957.421    -2472873.42449  -1504528.29645  24621957.404    24621965.158
  22574060.995   -14728151.98049 -10436379.20946  22574061.133    22574068.050
  21328796.475   -24179012.85649 -17791082.78247  21328796.771    21328802.978
  23814275.579   -10209862.58049  -7931660.46345  23814275.750    23814284.588
  20938372.814   -22295435.90649 -17062907.16547  20938372.536    20938378.890
  21923205.949   -20767283.46449 -15849221.10647  21923205.910    21923213.661
 04  5 22  0 57  0.0000000  0  6G14G11G25G16G20G 1
  24637670.951    -2390297.38149  -1440183.39645  24637671.115    24637678.952
  22587963.769   -14655092.88549 -10379450.10546  22587963.888    22587970.840
  21339351.800   -24123544.27649 -17747860.52647  21339352.094    21339358.294
  23796577.812   -10302864.74149  -8004129.59845  23796578.022    23796586.933
  20927714.810   -22351444.16649 -17106549.95647  20927714.515    20927720.861
  21912842.547   -20821743.36649 -15891657.37047  21912842.535    21912850.235
 04  5 22  0 57 30.0000000  0  6G14G11G25G16G20G 1
  24653386.739    -2307711.38949  -1375830.76045  24653386.776    24653394.787
  22601923.971   -14581731.79649 -10322285.67646  22601924.103    22601931.084
  21349975.319   -24067717.57849 -17704359.21347  21349975.599    21349981.765
  23778899.784   -10395762.76749  -8076517.55645  23778899.860    23778908.912
  20917126.092   -22407088.11049 -17149908.86247  20917125.805    20917132.159
  21902512.767   -20876026.60649 -15933955.97347  21902512.736    21902520.423
 04  5 22  0 58  0.0000000  0  6G14G11G25G16G20G 1
  24669104.345    -2225115.25349  -1311470.21745  24669104.384    24669112.447
  22615941.121   -14508071.02349 -10264887.73446  22615941.279    22615948.381
  21360666.680   -24011534.13349 -17660579.91847  21360666.958    21360673.098
  23761242.421   -10488552.83349  -8148821.41045  23761242.504    23761251.471
  20906607.210   -22462365.26049 -17192981.95548  20906606.927    20906613.271
  21892216.662   -20930132.61749 -15976116.47047  21892216.634    21892224.337
 04  5 22  0 58 30.0000000  0  6G14G11G25G16G20G 1
  24684823.487    -2142510.19649  -1247102.74645  24684823.482    24684831.650
  22630014.598   -14434114.30749 -10207259.18446  22630014.767    22630021.909
  21371425.288   -23954997.17949 -17616525.16147  21371425.590    21371431.738
  23743605.841   -10581232.98149  -8221039.61845  23743605.923    23743614.983
  20896158.306   -22517274.33149 -17235768.23748  20896158.021    20896164.402
  21881954.075   -20984062.49849 -16018139.72247  21881954.059    21881961.792
 04  5 22  0 59  0.0000000  0  6G14G11G25G16G20G 1
  24700544.526    -2059894.90449  -1182727.24245  24700544.639    24700552.589
  22644144.256   -14359862.55249 -10149400.73146  22644144.455    22644151.538
  21382251.108   -23898107.11049 -17572195.25047  21382251.435    21382257.575
  23725991.261   -10673798.48249  -8293168.53245  23725991.328    23726000.226
  20885780.218   -22571811.44349 -17278264.67948  20885779.965    20885786.330
  21871725.385   -21037814.58549 -16060024.43947  21871725.370    21871733.073
 04  5 22  0 59 30.0000000  0  6G14G11G25G16G20G 1
  24716267.382    -1977271.28349  -1118345.29745  24716267.334    24716275.359
  22658329.219   -14285320.47749 -10091316.06746  22658329.395    22658336.414
  21393143.446   -23840867.54449 -17527593.00247  21393143.775    21393149.920
  23708398.482   -10766247.98949  -8365206.95245  23708398.578    23708407.718
  20875472.960   -22625976.53049 -17320471.23348  20875472.681    20875479.019
  21861530.209   -21091390.66449 -16101772.00347  21861530.208    21861537.862
 04  5 22  1  0  0.0000000  0  5G11G25G16G20G 1
  22672568.750   -14210491.21749 -10033007.61446  22672568.977    22672576.020
  21404101.850   -23783281.00649 -17482720.38547  21404102.138    21404108.270
  23690828.409   -10858578.94849  -8437153.08845  23690828.620    23690837.446
  20865236.810   -22679767.89649 -17362386.57448  20865236.537    20865242.857
  21851368.428   -21144791.34249 -16143382.89047  21851368.382    21851376.058
 04  5 22  1  0 30.0000000  0  5G11G25G16G20G 1
  22686861.032   -14135385.23649  -9974483.54246  22686861.233    22686868.246
  21415124.346   -23725357.48249 -17437585.18747  21415124.608    21415130.754
  23673280.181   -10950796.09349  -8509010.48445  23673280.219    23673288.988
  20855070.672   -22733191.29449 -17404015.19248  20855070.395    20855076.715
  21841238.478   -21198024.47349 -16184863.22947  21841238.445    21841246.104
 04  5 22  1  1  0.0000000  0  5G11G25G16G20G 1
  22701208.078   -14059991.43749  -9915735.19846  22701208.250    22701215.246
  21426213.233   -23667084.95149 -17392178.02847  21426213.531    21426219.655
  23655756.974   -11042882.17249  -8580765.79545  23655757.050    23655765.490
  20844977.617   -22786230.53449 -17445344.46148  20844977.353    20844983.682
  21831143.124   -21251075.76249 -16226201.86347  21831143.114    21831150.738
 04  5 22  1  1 30.0000000  0  5G11G25G16G20G 1
  22715609.295   -13984312.86849  -9856764.94846  22715609.461    22715616.451
  21437368.047   -23608466.07649 -17346500.99547  21437368.359    21437374.475
  23638258.741   -11134834.82449  -8652417.12045  23638258.754    23638267.260
  20834957.966   -22838884.02049 -17486373.14548  20834957.709    20834964.050
  21821082.260   -21303946.00049 -16267399.42847  21821082.259    21821089.857
 04  5 22  1  2  0.0000000  0  5G11G25G16G20G 1
  22730063.704   -13908354.83149  -9797576.93146  22730063.904    22730070.834
  21448587.955   -23549505.33949 -17300557.57747  21448588.261    21448594.344
  23620786.286   -11226653.28149  -8723963.86845  23620786.390    23620794.825
  20825011.673   -22891152.06949 -17527101.48548  20825011.415    20825017.754
  21811055.323   -21356637.63349 -16308457.80747  21811055.321    21811062.950
 04  5 22  1  2 30.0000000  0  5G11G25G16G20G 1
  22744570.724   -13832119.88649  -9738173.14346  22744570.961    22744577.905
  21459872.504   -23490204.88649 -17254349.44347  21459872.779    21459878.876
  23603339.880   -11318334.43649  -8795403.60945  23603339.828    23603348.396
  20815139.134   -22943032.53349 -17567527.81048  20815138.899    20815145.224
  21801062.410   -21409150.41049 -16349376.83047  21801062.419    21801070.069
 04  5 22  1  3  0.0000000  0  5G11G25G16G20G 1
  22759129.559   -13755612.85249  -9678557.34346  22759129.782    22759136.761
  21471220.934   -23430568.49049 -17207879.54347  21471221.223    21471227.327
  23585919.928   -11409876.94349  -8866735.38245  23585919.958    23585928.416
  20805340.430   -22994525.13149 -17607651.90648  20805340.173    20805346.494
  21791103.226   -21461486.21849 -16390157.95147  21791103.223    21791110.864
 04  5 22  1  3 30.0000000  0  5G11G25G16G20G 1
  22773739.867   -13678835.69149  -9618731.05046  22773740.038    22773747.013
  21482632.956   -23370597.69149 -17161149.06847  21482633.262    21482639.373
  23568526.945   -11501277.09549  -8937956.14545  23568526.948    23568535.587
  20795616.030   -23045627.15649 -17647471.66148  20795615.765    20795622.089
  21781177.843   -21513644.29649 -16430800.58247  21781177.844    21781185.450
 04  5 22  1  4  0.0000000  0  5G11G25G16G20G 1
  22788400.899   -13601791.68249  -9558696.80546  22788401.019    22788408.057
  21494108.195   -23310294.92549 -17114159.91647  21494108.508    21494114.637
  23551161.687   -11592532.14449  -9009063.95145  23551161.790    23551170.135
  20785966.222   -23096337.04449 -17686985.85248  20785965.975    20785972.318
  21771286.249   -21565625.06749 -16471305.05547  21771286.222    21771293.820
 04  5 22  1  4 30.0000000  0  5G11G25G16G20G 1
  22803111.828   -13524485.24549  -9498458.08746  22803112.004    22803119.043
  21505645.903   -23249664.08149 -17066915.12047  21505646.191    21505652.317
  23533824.279   -11683640.62649  -9080057.44345  23533824.322    23533832.800
  20776391.148   -23146654.34749 -17726194.13848  20776390.894    20776397.220
  21761428.023   -21617430.23849 -16511672.69447  21761427.967    21761435.585
 04  5 22  1  5  0.0000000  0  5G11G25G16G20G 1
  22817872.419   -13446918.02949  -9438016.15546  22817872.625    22817879.664
  21517245.853   -23188705.96649 -17019415.30647  21517246.141    21517252.284
  23516515.630   -11774598.51749  -9150933.68345  23516515.685    23516523.865
  20766891.453   -23196575.70349 -17765093.89048  20766891.200    20766897.522
  21751603.418   -21669058.72249 -16551902.65547  21751603.398    21751611.003
 04  5 22  1  5 30.0000000  0  5G11G25G16G20G 1
  22832682.296   -13369092.02849  -9377372.57746  22832682.463    22832689.477
  21528907.811   -23127421.87749 -16971661.48947  21528908.107    21528914.259
  23499236.183   -11865401.77649  -9221689.35145  23499236.218    23499244.584
  20757467.580   -23246098.33149 -17803682.93848  20757467.324    20757473.684
  21741812.599   -21720509.72449 -16591994.31147  21741812.566    21741820.176
 04  5 22  1  6  0.0000000  0  5G11G25G16G20G 1
  22847540.716   -13291010.55149  -9316529.94246  22847540.926    22847547.930
  21540631.314   -23065814.52649 -16923655.77847  21540631.601    21540637.749
  23481986.874   -11956047.69949  -9292322.48645  23481986.909    23481995.167
  20748119.919   -23295220.70449 -17841960.10348  20748119.676    20748126.014
  21732055.416   -21771783.65449 -16631947.99547  21732055.401    21732063.029
 04  5 22  1  6 30.0000000  0  5G11G25G16G20G 1
  22862447.342   -13212675.96949  -9255490.07546  22862447.577    22862454.563
  21552416.062   -23003885.27749 -16875399.23847  21552416.353    21552422.458
  23464767.785   -12046532.99649  -9362830.41945  23464767.919    23464776.211
  20738848.876   -23343940.34849 -17879923.45048  20738848.624    20738854.964
  21722332.081   -21822879.91249 -16671763.23447  21722332.072    21722339.706
 04  5 22  1  7  0.0000000  0  5G11G25G16G20G 1
  22877401.483   -13134092.16249  -9194256.01746  22877401.654    22877408.606
  21564261.487   -22941637.43149 -16826894.44347  21564261.762    21564267.860
  23447580.023   -12136855.30649  -9433211.33645  23447580.079    23447588.503
  20729654.660   -23392256.21549 -17917572.16548  20729654.399    20729660.743
  21712642.402   -21873799.63349 -16711440.91347  21712642.400    21712649.955
 04  5 22  1  7 30.0000000  0  5G11G25G16G20G 1
  22892402.281   -13055262.98849  -9132830.75546  22892402.429    22892409.391
  21576166.822   -22879074.39149 -16778144.04547  21576167.101    21576173.255
  23430423.321   -12227013.10749  -9503464.11545  23430423.415    23430431.742
  20720537.390   -23440167.79949 -17954905.85648  20720537.141    20720543.505
  21702986.071   -21924544.20549 -16750982.10947  21702986.025    21702993.540
 04  5 22  1  8  0.0000000  0  5G11G25G16G20G 1
  22907449.503   -12976189.63249  -9071215.23846  22907449.632    22907456.655
  21588132.128   -22816196.08649 -16729147.98847  21588132.437    21588138.657
  23413299.167   -12317001.35649  -9573584.73146  23413299.171    23413307.607
  20711497.855   -23487670.79749 -17991921.17248  20711497.579    20711503.928
  21693363.359   -21975111.67749 -16790385.30547  21693363.337    21693370.827
 04  5 22  1  8 30.0000000  0  5G11G25G16G20G 1
  22922542.565   -12896875.40049  -9009412.00846  22922542.694    22922549.776
  21600156.936   -22753005.35049 -16679908.47947  21600157.212    21600163.471
  23396207.677   -12406817.36549  -9643571.15146  23396207.722    23396215.968
  20702536.322   -23534763.99149 -18028617.15948  20702536.062    20702542.381
  21683774.261   -22025502.57349 -16829650.90847  21683774.235    21683781.718
 04  5 22  1  9  0.0000000  0  5G11G25G16G20G 1
  22937680.990   -12817322.70749  -8947422.97346  22937681.144    22937688.278
  21612240.873   -22689504.08749 -16630426.99547  21612241.137    21612247.369
  23379149.738   -12496457.63049  -9713420.63445  23379149.672    23379157.804
  20693653.234   -23581444.88949 -18064991.87848  20693652.962    20693659.271
  21674218.867   -22075716.46549 -16868778.59547  21674218.821    21674226.302
 04  5 22  1  9 30.0000000  0  5G11G25G16G20G 1
  22952863.950   -12737535.72749  -8885251.37146  22952864.133    22952871.270
  21624383.229   -22625695.52549 -16580706.05847  21624383.521    21624389.767
  23362125.409   -12585920.35349  -9783131.76846  23362125.517    23362133.590
  20684848.729   -23627712.81849 -18101044.80748  20684848.467    20684854.769
  21664696.843   -22125754.62049 -16907769.33747  21664696.833    21664704.323
 04  5 22  1 10  0.0000000  0  5G11G25G16G20G 1
  22968091.362   -12657515.29749  -8822897.87046  22968091.551    22968098.717
  21636584.076   -22561579.55549 -16530745.58347  21636584.344    21636590.621
  23345135.919   -12675200.43249  -9852700.57546  23345135.919    23345143.946
  20676123.541   -23673563.76549 -18136772.80848  20676123.308    20676129.592
  21655208.635   -22175614.99549 -16946621.55347  21655208.671    21655216.162
 04  5 22  1 10 30.0000000  0  5G11G25G16G20G 1
  22983362.323   -12577265.90549  -8760365.95546  22983362.510    22983369.725
  21648842.610   -22497160.75949 -16480549.14347  21648842.878    21648849.132
  23328181.505   -12764296.71249  -9922126.16146  23328181.506    23328189.645
  20667477.754   -23718997.55049 -18172175.75448  20667477.533    20667483.787
  21645753.942   -22225299.72149 -16985336.90247  21645753.956    21645761.422
 04  5 22  1 11  0.0000000  0  5G11G25G16G20G 1
  22998676.650   -12496788.80349  -8697656.59346  22998676.857    22998684.050
  21661158.740   -22432439.37449 -16430116.92047  21661158.982    21661165.229
  23311262.627   -12853204.42949  -9991404.83245  23311262.708    23311270.811
  20658912.073   -23764010.57749 -18207250.83548  20658911.833    20658918.099
  21636333.040   -22274806.96749 -17023913.94947  21636333.038    21636340.515
 04  5 22  1 11 30.0000000  0  5G11G25G16G20G 1
  23014033.558   -12416088.11549  -8634773.01246  23014033.746    23014040.960
  21673531.793   -22367418.60049 -16379451.40547  21673532.046    21673538.279
  23294380.422   -12941921.65049 -10060535.04446  23294380.377    23294388.511
  20650426.623   -23808601.96849 -18241997.36948  20650426.377    20650432.644
  21626945.683   -22324137.81749 -17062353.55147  21626945.667    21626953.159
 04  5 22  1 12  0.0000000  0  5G11G25G16G20G 1
  23029432.749   -12335165.39249  -8571716.41746  23029432.896    23029440.120
  21685961.607   -22302099.29349 -16328553.26247  21685961.891    21685968.177
  23277534.925   -13030443.89349 -10129513.35145  23277535.048    23277543.111
  20642022.027   -23852768.33549 -18276412.71248  20642021.776    20642028.073
  21617592.167   -22373290.91549 -17100654.64147  21617592.162    21617599.585
 04  5 22  1 12 30.0000000  0  5G11G25G16G20G 1
  23044873.344   -12254024.64449  -8508489.94946  23044873.526    23044880.768
  21698447.678   -22236484.67649 -16277425.01147  21698447.937    21698454.263
  23260727.153   -13118769.46549 -10198338.38646  23260727.154    23260735.260
  20633698.453   -23896509.13749 -18310496.45148  20633698.198    20633704.482
  21608272.256   -22422267.47949 -17138818.16547  21608272.214    21608279.618
 04  5 22  1 13  0.0000000  0  5G11G25G16G20G 1
  23060355.075   -12172668.09749  -8445095.31446  23060355.229    23060362.526
  21710989.630   -22170576.19449 -16226067.77147  21710989.904    21710996.214
  23243957.477   -13206894.40549 -10267007.08046  23243957.493    23243965.580
  20625456.339   -23939821.78549 -18344246.55648  20625456.084    20625462.325
  21598986.062   -22471066.71849 -17176843.51947  21598986.033    21598993.388
 04  5 22  1 13 30.0000000  0  5G11G25G16G20G 1
  23075877.372   -12091098.29649  -8381534.52546  23075877.523    23075884.783
  21723587.180   -22104375.84949 -16174483.10847  21723587.473    21723593.759
  23227226.547   -13294815.51749 -10335516.97745  23227226.496    23227234.408
  20617296.153   -23982704.01349 -18377661.27748  20617295.893    20617302.100
  21589733.631   -22519688.42949 -17214730.54747  21589733.608    21589740.954
 04  5 22  1 14  0.0000000  0  5G11G25G16G20G 1
  23091439.490   -12009319.17649  -8317810.61746  23091439.619    23091446.876
  21736239.680   -22037886.80349 -16122673.48247  21736239.954    21736246.214
  23210534.789   -13382530.72149 -10403866.39546  23210534.881    23210542.981
  20609217.971   -24025155.05849 -18410740.01248  20609217.705    20609223.909
  21580514.725   -22568133.74649 -17252480.11847  21580514.691    21580522.114
 04  5 22  1 14 30.0000000  0  5G11G25G16G20G 1
  23107041.132   -11927332.34949  -8253924.86346  23107041.218    23107048.469
  21748946.913   -21971109.82649 -16070639.49547  21748947.207    21748953.408
  23193883.060   -13470035.84149 -10472052.13246  23193883.079    23193891.083
  20601222.477   -24067171.61249 -18443480.17548  20601222.231    20601228.396
  21571329.660   -22616401.49549 -17290091.32947  21571329.619    21571337.060
 04  5 22  1 15  0.0000000  0  5G11G25G16G20G 1
  23122681.433   -11845142.08549  -8189880.60046  23122681.540    23122688.806
  21761708.298   -21904048.23249 -16018383.72847  21761708.593    21761714.844
  23177271.790   -13557328.86849 -10540072.61246  23177271.789    23177279.771
  20593309.774   -24108753.07849 -18475881.31648  20593309.519    20593315.663
  21562178.182   -22664492.68449 -17327564.97047  21562178.115    21562185.550
 04  5 22  1 15 30.0000000  0  5G11G25G16G20G 1
  23138359.928   -11762751.15749  -8125679.94346  23138360.126    23138367.290
  21774523.381   -21836704.33749 -15965907.98647  21774523.691    21774529.963
  23160701.186   -13644406.67649 -10607925.35946  23160701.150    23160709.263
  20585480.211   -24149897.60749 -18507941.98248  20585479.959    20585486.108
  21553060.318   -22712407.30149 -17364901.00647  21553060.267    21553067.683
 04  5 22  1 16  0.0000000  0  5G11G25G16G20G 1
  23154076.409   -11680160.55149  -8061323.72546  23154076.606    23154083.824
  21787392.138   -21769078.59849 -15913212.63147  21787392.422    21787398.734
  23144172.709   -13731264.54849 -10675606.76846  23144172.723    23144180.630
  20577734.562   -24190601.35449 -18539659.18648  20577734.291    20577740.478
  21543976.396   -22760143.60649 -17402098.09947  21543976.355    21543983.728
 04  5 22  1 16 30.0000000  0  5G11G25G16G20G 1
  23169830.027   -11597374.76449  -7996815.39946  23169830.190    23169837.508
  21800313.926   -21701174.33549 -15860300.23547  21800314.216    21800320.515
  23127686.378   -13817900.82549 -10743115.48946  23127686.425    23127694.231
  20570072.850   -24230863.74349 -18571032.47648  20570072.605    20570078.798
  21534926.098   -22807703.05749 -17439157.39447  21534926.071    21534933.415
 04  5 22  1 17  0.0000000  0  5G11G25G16G20G 1
  23185620.500   -11514395.58549  -7932156.39646  23185620.659    23185628.012
  21813288.488   -21632992.94549 -15807171.90047  21813288.754    21813295.062
  23111242.974   -13904311.55049 -10810448.45446  23111242.960    23111250.694
  20562495.648   -24270682.35549 -18602059.95648  20562495.381    20562501.602
  21525909.696   -22855084.57049 -17476078.03347  21525909.693    21525916.964
 04  5 22  1 17 30.0000000  0  5G11G25G16G20G 1
  23201447.087   -11431227.15149  -7867349.90846  23201447.232    23201454.583
  21826315.176   -21564537.56649 -15753830.07347  21826315.446    21826321.740
  23094842.792   -13990494.87949 -10877604.22946  23094842.813    23094850.494
  20555002.988   -24310056.33949 -18632740.98248  20555002.738    20555008.951
  21516926.959   -22902289.18049 -17512860.83047  21516926.951    21516934.219
 04  5 22  1 18  0.0000000  0  5G11G25G16G20G 1
  23217309.303   -11347871.42049  -7802397.49846  23217309.410    23217316.729
  21839393.729   -21495809.48749 -15700275.74547  21839394.002    21839400.298
  23078486.692   -14076446.75649 -10944579.65346  23078486.676    23078494.283
  20547595.505   -24348982.90349 -18663073.36248  20547595.256    20547601.462
  21507978.036   -22949316.11549 -17549505.17047  21507978.007    21507985.263
 04  5 22  1 18 30.0000000  0  5G11G25G16G20G 1
  23233206.386   -11264331.95849  -7737301.90746  23233206.516    23233213.820
  21852523.651   -21426811.50749 -15646511.11147  21852523.922    21852530.207
  23062175.124   -14162164.69049 -11011372.79146  23062175.128    23062182.727
  20540273.393   -24387460.83449 -18693056.16848  20540273.145    20540279.322
  21499062.775   -22996166.03549 -17586011.58047  21499062.729    21499069.997
 04  5 22  1 19  0.0000000  0  5G11G25G16G20G 1
  23249138.117   -11180610.95349  -7672064.84646  23249138.186    23249145.494
  21865704.647   -21357544.93749 -15592537.18647  21865704.907    21865711.219
  23045908.692   -14247645.03049 -11077980.77546  23045908.670    23045916.244
  20533037.165   -24425487.66749 -18722687.46148  20533036.924    20533043.067
  21490181.401   -23042838.08049 -17622379.39047  21490181.347    21490188.552
 04  5 22  1 19 30.0000000  0  5G11G25G16G20G 1
  23265103.887   -11096710.64449  -7606688.06446  23265103.993    23265111.218
  21878936.374   -21288011.61149 -15538355.39447  21878936.637    21878942.968
  23029688.273   -14332884.21249 -11144400.83046  23029688.189    23029695.891
  20525887.174   -24463060.97849 -18751965.36048  20525886.934    20525893.073
  21481333.921   -23089331.82049 -17658608.26047  21481333.852    21481341.044
 04  5 22  1 20  0.0000000  0  5G11G25G16G20G 1
  23281103.106   -11012634.94449  -7541174.61846  23281103.138    23281110.429
  21892218.390   -21218214.05349 -15483967.70947  21892218.672    21892225.003
  23013513.971   -14417879.73549 -11210631.07546  23013513.966    23013521.533
  20518823.711   -24500179.80449 -18780889.12048  20518823.454    20518829.597
  21472520.189   -23135647.83449 -17694698.65147  21472520.154    21472527.351
 04  5 22  1 20 30.0000000  0  5G11G25G16G20G 1
  23297135.269   -10928385.56249  -7475525.83246  23297135.339    23297142.637
  21905550.395   -21148154.07449 -15429375.54247  21905550.663    21905556.961
  22997386.685   -14502628.03849 -11276668.63046  22997386.701    22997394.603
  20511847.207   -24536841.42849 -18809456.60948  20511846.954    20511853.122
  21463740.498   -23181785.27649 -17730649.88347  21463740.482    21463747.691
 04  5 22  1 21  0.0000000  0  5G11G25G16G20G 1
  23313199.624   -10843967.19749  -7409745.36446  23313199.727    23313207.035
  21918931.713   -21077835.13749 -15374581.59347  21918931.939    21918938.248
  22981306.949   -14587127.43149 -11342512.28346  22981306.953    22981314.705
  20504957.760   -24573045.71449 -18837667.73948  20504957.513    20504963.686
  21454994.497   -23227745.76649 -17766463.23647  21454994.466    21455001.664
 04  5 22  1 21 30.0000000  0  5G11G25G16G20G 1
  23329295.823   -10759380.91949  -7343834.05646  23329295.974    23329303.437
  21932362.173   -21007257.51949 -15319586.06947  21932362.441    21932368.717
  22965275.324   -14671373.39149 -11408158.40546  22965275.331    22965283.227
  20498156.043   -24608788.99449 -18865519.64148  20498155.772    20498161.980
  21446282.556   -23273527.50449 -17802137.30247  21446282.527    21446289.720
 04  5 22  1 22  0.0000000  0  6G11G25G16G20G 1G13
  23345420.488   -10674645.24249  -7277806.33846  23345420.681    23345428.225
  21945838.517   -20936438.94749 -15264402.79047  21945838.782    21945845.037
  22949289.707   -14755378.32649 -11473616.75646  22949289.737    22949297.474
  20491439.361   -24644085.17449 -18893023.16148  20491439.112    20491445.325
  21437601.692   -23319145.81549 -17837684.02347  21437601.657    21437608.809
  24636953.335    -4369132.00849  -3089151.98445  24636953.763    24636963.052
 04  5 22  1 22 30.0000000  0  6G11G25G16G20G 1G13
  23361577.306   -10589741.09549  -7211647.35446  23361577.486    23361585.057
  21959364.450   -20865359.68849 -15209016.37947  21959364.718    21959370.999
  22933354.580   -14839117.22649 -11538867.75646  22933354.649    22933362.551
  20484812.329   -24678910.55449 -18920159.82248  20484812.080    20484818.267
  21428956.095   -23364578.78849 -17873086.31847  21428956.032    21428963.156
  24621223.778    -4451789.94949  -3153560.69245  24621224.302    24621233.670
 04  5 22  1 23  0.0000000  0  6G11G25G16G20G 1G13
  23377765.176   -10504674.10649  -7145361.47946  23377765.240    23377772.856
  21972939.097   -20794024.57149 -15153430.59347  21972939.371    21972945.633
  22917470.214   -14922589.87049 -11603911.34246  22917470.296    22917477.993
  20478274.700   -24713266.11949 -18946930.39748  20478274.446    20478280.615
  21420345.210   -23409829.18949 -17908346.34147  21420345.154    21420352.298
  24605504.305    -4534395.58149  -3217928.63245  24605504.943    24605514.322
 04  5 22  1 23 30.0000000  0  6G11G25G16G20G 1G13
  23393982.923   -10419449.28349  -7078952.62546  23393983.092    23393990.607
  21986561.625   -20722437.71849 -15097648.65647  21986561.900    21986568.194
  22901636.759   -15005795.11149 -11668746.53546  22901636.827    22901644.549
  20471826.426   -24747152.17649 -18973335.12048  20471826.160    20471832.319
  21411768.657   -23454899.09349 -17943465.72547  21411768.601    21411775.736
  24589794.564    -4616950.75149  -3282257.25445  24589795.259    24589804.521
 04  5 22  1 24  0.0000000  0  6G11G25G16G20G 1G13
  23410230.114   -10334070.14649  -7012423.53146  23410230.225    23410237.699
  22000231.525   -20650601.86849 -15041672.69547  22000231.796    22000238.113
  22885854.684   -15088730.88449 -11733371.74946  22885854.702    22885862.296
  20465467.705   -24780567.47049 -18999373.01348  20465467.432    20465473.606
  21403226.352   -23499788.99849 -17978444.84947  21403226.305    21403233.445
  24574094.200    -4699456.05749  -3346547.00745  24574094.888    24574104.163
 04  5 22  1 24 30.0000000  0  6G11G25G16G20G 1G13
  23426505.936   -10248540.10649  -6945776.82545  23426506.058    23426513.531
  22013948.276   -20578519.77049 -14985504.84747  22013948.551    22013954.875
  22870124.451   -15171394.48849 -11797784.88846  22870124.383    22870131.820
  20459198.720   -24813510.94149 -19025043.24448  20459198.462    20459204.639
  21394718.221   -23544499.47449 -18013284.15647  21394718.175    21394725.278
  24558403.288    -4781911.74749  -3410798.09445  24558403.961    24558413.100
 04  5 22  1 25  0.0000000  0  6G11G25G16G20G 1G13
  23442809.865   -10162862.41549  -6879015.09745  23442810.030    23442817.548
  22027711.420   -20506193.94949 -14929147.09347  22027711.713    22027718.068
  22854446.326   -15253783.33249 -11861983.93046  22854446.306    22854453.773
  20453019.812   -24845981.38549 -19050344.89048  20453019.559    20453025.730
  21386244.184   -23589030.84449 -18047983.90847  21386244.131    21386251.208
  24542721.979    -4864318.16149  -3475010.78345  24542722.617    24542731.546
 04  5 22  1 25 30.0000000  0  6G11G25G16G20G 1G13
  23459141.344   -10077040.37549  -6812140.88245  23459141.514    23459149.080
  22041520.533   -20433626.74549 -14872601.23647  22041520.793    22041527.142
  22838820.809   -15335894.99249 -11925966.96646  22838820.763    22838828.404
  20446931.130   -24877977.69849 -19075277.07548  20446930.854    20446937.018
  21377804.141   -23633383.33649 -18082544.26847  21377804.084    21377811.186
  24527049.823    -4946675.65749  -3539185.35245  24527050.357    24527059.246
 04  5 22  1 26  0.0000000  0  6G11G25G16G20G 1G13
  23475499.839    -9991076.11149  -6745155.84945  23475499.969    23475507.601
  22055375.248   -20360819.88549 -14815868.64647  22055375.471    22055381.841
  22823248.975   -15417725.67949 -11989731.10046  22823248.964    22823256.534
  20440933.182   -24909497.22649 -19099837.75148  20440932.897    20440939.061
  21369398.293   -23677556.38349 -18116964.80947  21369398.214    21369405.329
  24511387.121    -5028983.55949  -3603321.28045  24511387.540    24511396.532
 04  5 22  1 26 30.0000000  0  6G11G25G16G20G 1G13
  23491884.664    -9904972.97449  -6678062.61645  23491884.826    23491892.644
  22069275.073   -20287775.76049 -14758951.17047  22069275.279    22069281.675
  22807731.008   -15499272.56349 -12053274.07046  22807731.086    22807738.662
  20435026.151   -24940538.71549 -19124025.92048  20435025.896    20435032.039
  21361026.498   -23721549.95749 -18151245.50247  21361026.469    21361033.578
  24495733.740    -5111242.20849  -3667418.83345  24495734.156    24495743.080
 04  5 22  1 27  0.0000000  0  6G11G25G16G20G 1G13
  23508295.231    -9818735.21449  -6610864.46245  23508295.415    23508303.217
  22083219.495   -20214497.35349 -14701851.13047  22083219.705    22083226.128
  22792267.425   -15580534.00849 -12116594.61046  22792267.452    22792275.085
  20429210.217   -24971101.68149 -19147841.21848  20429209.962    20429216.094
  21352688.691   -23765365.43849 -18185387.41547  21352688.661    21352695.783
  24480089.778    -5193451.99049  -3731478.29445  24480090.266    24480099.061
 04  5 22  1 27 30.0000000  0  6G11G25G16G20G 1G13
  23524731.458    -9732362.93649  -6543561.49045  23524731.627    23524739.433
  22097208.466   -20140984.51249 -14644568.42747  22097208.711    22097215.156
  22776859.224   -15661504.61549 -12179688.57246  22776859.219    22776866.717
  20423486.105   -25001182.04349 -19171280.47148  20423485.825    20423491.972
  21344385.297   -23809000.17249 -18219388.48947  21344385.250    21344392.363
  24464455.522    -5275610.93549  -3795498.15145  24464455.989    24464464.642
 04  5 22  1 28  0.0000000  0  6G11G25G16G20G 1G13
  23541192.395    -9645860.95749  -6476157.44545  23541192.501    23541200.292
  22111241.392   -20067240.86149 -14587105.86147  22111241.656    22111248.145
  22761506.532   -15742183.00349 -12242554.77146  22761506.517    22761514.101
  20417853.818   -25030779.79449 -19194343.66748  20417853.544    20417859.704
  21336116.015   -23852455.68449 -18253249.91147  21336115.954    21336123.052
  24448830.453    -5357720.29049  -3859479.36645  24448831.057    24448839.785
 04  5 22  1 28 30.0000000  0  6G11G25G16G20G 1G13
  23557677.318    -9559232.41649  -6408654.78345  23557677.400    23557685.238
  22125317.678   -19993269.25349 -14529465.67447  22125317.961    22125324.484
  22746210.128   -15822566.55549 -12305191.27246  22746210.126    22746217.463
  20412313.565   -25059893.73649 -19217029.86048  20412313.310    20412319.514
  21327880.711   -23895732.33049 -18286971.95347  21327880.656    21327887.744
  24433214.810    -5439780.31249  -3923422.15245  24433215.267    24433224.155
 04  5 22  1 29  0.0000000  0  6G11G25G16G20G 1G13
  23574186.126    -9472478.46749  -6341054.41445  23574186.240    23574194.058
  22139437.455   -19919069.72149 -14471647.88547  22139437.746    22139444.217
  22730970.640   -15902650.60249 -12367594.38146  22730970.676    22730978.033
  20406866.112   -25088520.30049 -19239336.27848  20406865.871    20406872.092
  21319679.879   -23938828.11549 -18320553.07347  21319679.833    21319686.855
  24417608.937    -5521788.72749  -3987324.73245  24417609.651    24417618.314
 04  5 22  1 29 30.0000000  0  6G11G25G16G20G 1G13
  23590718.102    -9385603.01449  -6273359.34246  23590718.205    23590726.014
  22153600.061   -19844645.05449 -14413654.66447  22153600.331    22153606.792
  22715788.543   -15982433.05949 -12429762.46446  22715788.517    22715795.914
  20401511.530   -25116658.94549 -19261262.49448  20401511.278    20401517.488
  21311513.238   -23981744.10949 -18353994.08847  21311513.167    21311520.219
  24402012.723    -5603747.32749  -4051188.46345  24402013.378    24402022.103
 04  5 22  1 30  0.0000000  0  6G11G25G16G20G 1G13
  23607272.549    -9298609.59749  -6205572.36845  23607272.674    23607280.468
  22167804.909   -19769998.61849 -14355488.63847  22167805.177    22167811.578
  22700664.118   -16061912.16449 -12491694.17246  22700664.068    22700671.549
  20396249.832   -25144309.45249 -19282808.34248  20396249.560    20396255.748
  21303380.557   -24024481.24549 -18387295.74047  21303380.527    21303387.606
  24386425.765    -5685656.40149  -4115013.61245  24386426.348    24386435.106
 04  5 22  1 30 30.0000000  0  6G11G25G16G20G 1G13
  23623849.103    -9211499.71149  -6137694.62645  23623849.269    23623856.980
  22182051.852   -19695130.64949 -14297149.99047  22182052.125    22182058.482
  22685598.250   -16141083.23849 -12553385.87446  22685598.277    22685605.639
  20391081.670   -25171468.25249 -19303971.04948  20391081.408    20391087.590
  21295282.279   -24067037.67449 -18420456.58247  21295282.233    21295289.375
  24370848.512    -5767514.28549  -4178798.84245  24370849.262    24370857.908
 04  5 22  1 31  0.0000000  0  6G11G25G16G20G 1G13
  23640447.305    -9124276.53249  -6069728.61645  23640447.398    23640455.124
  22196340.439   -19620043.84049 -14238640.81647  22196340.733    22196347.043
  22670591.670   -16219943.46849 -12614835.34346  22670591.636    22670598.940
  20386007.366   -25198133.96949 -19324749.53048  20386007.121    20386013.302
  21287218.408   -24109413.46449 -18453476.66847  21287218.355    21287225.525
  24355281.155    -5849320.56349  -4242543.89945  24355281.929    24355290.464
 04  5 22  1 31 30.0000000  0  6G11G25G16G20G 1G13
  23657066.524    -9036942.51349  -6001676.21745  23657066.624    23657074.395
  22210670.351   -19544739.85249 -14179962.40947  22210670.623    22210676.923
  22655644.773   -16298489.58049 -12676040.06546  22655644.774    22655652.001
  20381027.230   -25224304.76449 -19345142.35248  20381026.969    20381033.165
  21279189.003   -24151608.22849 -18486355.68647  21279188.964    21279196.118
  24339723.823    -5931075.43349  -4306248.90245  24339724.400    24339732.779
 04  5 22  1 32  0.0000000  0  6G11G25G16G20G 1G13
  23673705.885    -8949501.95749  -5933540.82145  23673706.074    23673713.926
  22225040.915   -19469222.14249 -14121117.46447  22225041.214    22225047.496
  22640757.947   -16376720.11649 -12736998.87446  22640757.929    22640765.197
  20376141.228   -25249980.78149 -19365149.64148  20376140.971    20376147.166
  21271193.794   -24193623.25449 -18519094.65847  21271193.759    21271200.866
  24324175.920    -6012780.11349  -4369914.79145  24324176.493    24324184.837
 04  5 22  1 32 30.0000000  0  6G11G25G16G20G 1G13
  23690365.328    -8861956.26249  -5865323.50545  23690365.481    23690373.378
  22239452.097   -19393490.79949 -14062106.06147  22239452.397    22239458.735
  22625931.947   -16454630.62249 -12797708.30146  22625931.943    22625939.237
  20371350.045   -25275158.74449 -19384768.84048  20371349.778    20371355.962
  21263233.112   -24235456.77549 -18551692.19247  21263233.090    21263240.176
  24308638.069    -6094432.61649  -4433540.01445  24308638.481    24308646.906
 04  5 22  1 33  0.0000000  0  6G11G25G16G20G 1G13
  23707044.186    -8774308.44249  -5797026.61745  23707044.434    23707052.379
  22253903.453   -19317548.40449 -14002930.19747  22253903.753    22253910.135
  22611167.456   -16532218.40849 -12858166.26846  22611167.445    22611174.796
  20366653.851   -25299837.40949 -19403998.97248  20366653.579    20366659.756
  21255306.988   -24277108.84349 -18584148.34747  21255306.957    21255314.029
  24293109.929    -6176032.96649  -4497124.61745  24293110.329    24293118.839
 04  5 22  1 33 30.0000000  0  6G11G25G16G20G 1G13
  23723741.879    -8686561.63749  -5728652.58845  23723742.046    23723750.050
  22268394.559   -19241397.22449 -13943591.64347  22268394.861    22268401.246
  22596464.797   -16609480.67349 -12918370.58446  22596464.813    22596472.168
  20362052.906   -25324015.74149 -19422839.23448  20362052.604    20362058.790
  21247415.311   -24318579.84549 -18616463.40347  21247415.271    21247422.384
  24277591.563    -6257581.57849  -4560668.86345  24277591.974    24277600.436
 04  5 22  1 34  0.0000000  0  7G 4G11G25G16G20G 1G13
  24777785.548    -6758871.95149  -5247009.37545  24777785.846    24777793.933
  23740457.067    -8598722.60449  -5660206.70345  23740457.244    23740465.279
  22282924.171   -19165043.60949 -13884095.35347  22282924.472    22282930.900
  22581823.728   -16686418.87549 -12978322.36746  22581823.739    22581831.343
  20357546.679   -25347696.08049 -19441291.44748  20357546.384    20357552.537
  21239557.327   -24359873.65949 -18648640.39047  21239557.301    21239564.407
  24262082.586    -6339082.25549  -4624175.79145  24262083.049    24262091.163
 04  5 22  1 34 30.0000000  0  7G 4G11G25G16G20G 1G13
  24766703.488    -6817107.95949  -5292388.05845  24766703.809    24766712.054
  23757189.964    -8510790.57749  -5591688.32745  23757190.230    23757198.182
  22297492.771   -19088485.41049 -13824439.63647  22297493.067    22297499.479
  22567245.778   -16763026.10249 -13038016.27446  22567245.831    22567253.389
  20353136.250   -25370873.16049 -19459351.51148  20353135.967    20353142.117
  21231733.845   -24400986.21149 -18680676.13947  21231733.817    21231740.897
  24246583.528    -6420530.99049  -4687642.23145  24246583.840    24246591.847
 04  5 22  1 35  0.0000000  0  7G 4G11G25G16G20G 1G13
  24755707.124    -6874893.21549  -5337415.51845  24755707.600    24755715.958
  23773940.548    -8422766.04949  -5523097.91145  23773940.783    23773948.682
  22312100.265   -19011722.43149 -13764624.34747  22312100.584    22312106.975
  22552731.869   -16839297.10349 -13097448.16146  22552731.958    22552739.558
  20348822.269   -25393543.17449 -19477016.46148  20348821.974    20348828.167
  21223945.327   -24441915.04649 -18712568.72347  21223945.299    21223952.349
  24231094.621    -6501925.16849  -4751066.18245  24231094.913    24231102.857
 04  5 22  1 35 30.0000000  0  7G 4G11G25G16G20G 1G13
  24744796.819    -6932227.30149  -5382091.44045  24744797.233    24744805.547
  23790708.060    -8334653.08449  -5454438.58345  23790708.245    23790716.106
  22326746.126   -18934757.85949 -13704651.99147  22326746.435    22326752.912
  22538282.321   -16915230.28249 -13156616.81946  22538282.292    22538289.860
  20344604.813   -25415705.95949 -19494286.17148  20344604.533    20344610.750
  21216191.567   -24482661.26249 -18744319.01347  21216191.526    21216198.600
  24215615.674    -6583266.20149  -4814448.69545  24215616.108    24215624.176
 04  5 22  1 36  0.0000000  0  7G 4G11G25G16G20G 1G13
  24733972.602    -6989108.84049  -5426414.65945  24733973.087    24733981.505
  23807491.680    -8246454.56249  -5385712.55245  23807491.916    23807499.906
  22341429.819   -18857594.25449 -13644524.53547  22341430.160    22341436.672
  22523897.431   -16990822.89149 -13215520.10646  22523897.480    22523904.994
  20340484.105   -25437360.35149 -19511159.72348  20340483.826    20340490.087
  21208472.552   -24523224.85349 -18775927.00047  21208472.530    21208479.619
  24200147.054    -6664553.83449  -4877789.60345  24200147.596    24200155.688
 04  5 22  1 36 30.0000000  0  7G 4G11G25G16G20G 1G13
  24723235.123    -7045536.08349  -5470383.94845  24723235.450    24723243.795
  23824291.140    -8158173.63449  -5316922.33245  23824291.306    23824299.450
  22356151.164   -18780233.43549 -13584243.41147  22356151.418    22356157.948
  22509577.989   -17066071.98549 -13274155.70246  22509577.993    22509585.500
  20336460.440   -25458505.03849 -19527636.10448  20336460.152    20336466.384
  21200788.322   -24563605.69649 -18807392.57947  21200788.290    21200795.419
  24184688.760    -6745787.88649  -4941088.76245  24184689.167    24184697.310
 04  5 22  1 37  0.0000000  0  7G 4G11G25G16G20G 1G13
  24712584.150    -7101507.84649  -5513998.28745  24712584.454    24712592.512
  23841105.664    -8069813.35849  -5248070.27545  23841105.765    23841114.031
  22370909.502   -18702677.86349 -13523810.53547  22370909.761    22370916.292
  22495324.340   -17140975.23749 -13332521.81946  22495324.331    22495331.834
  20332533.899   -25479139.05949 -19543714.57548  20332533.630    20332539.839
  21193138.751   -24603804.20449 -18838716.08647  21193138.725    21193145.883
  24169240.540    -6826968.55049  -5004346.33445  24169240.963    24169248.880
 04  5 22  1 37 30.0000000  0  7G 4G11G25G16G20G 1G13
  24702019.890    -7157022.30849  -5557256.25545  24702020.317    24702028.426
  23857934.761    -7981376.78849  -5179158.76945  23857934.795    23857943.066
  22385704.482   -18624929.73049 -13463227.60147  22385704.779    22385711.249
  22481137.129   -17215529.96749 -13390616.37346  22481137.123    22481144.462
  20328704.834   -25499260.89949 -19559393.93748  20328704.591    20328710.783
  21185523.966   -24643820.24049 -18869897.39547  21185523.917    21185531.065
  24153802.221    -6908095.79549  -5067562.27645  24153802.621    24153810.691
 04  5 22  1 38  0.0000000  0  7G 4G11G25G16G20G 1G13
  24691543.260    -7212077.44149  -5600156.33545  24691543.700    24691551.659
  23874777.811    -7892865.91049  -5110189.38145  23874777.925    23874786.268
  22400535.912   -18546990.26049 -13402495.57647  22400536.221    22400542.625
  22467016.716   -17289732.48949 -13448436.47246  22467016.768    22467024.115
  20324973.633   -25518868.58949 -19574672.66048  20324973.364    20324979.516
  21177944.064   -24683652.95849 -18900935.86647  21177943.995    21177951.188
  24138374.261    -6989168.96549  -5130736.07745  24138374.671    24138382.970
 04  5 22  1 38 30.0000000  0  7G 4G11G25G16G20G 1G13
  24681154.371    -7266671.21249  -5642696.90945  24681154.791    24681162.686
  23891634.368    -7804283.45849  -5041164.20445  23891634.556    23891643.119
  22415403.502   -18468861.12049 -13341615.75647  22415403.759    22415410.135
  22452964.079   -17363579.83049 -13505979.79646  22452964.027    22452971.412
  20321340.584   -25537960.46649 -19589549.44348  20321340.309    20321346.444
  21170399.049   -24723301.88249 -18931831.12347  21170399.008    21170406.235
  24122956.860    -7070187.57849  -5193867.37445  24122957.285    24122965.678
 04  5 22  1 39  0.0000000  0  7G 4G11G25G16G20G 1G13
  24670853.469    -7320803.04049  -5684877.48745  24670853.972    24670861.916
  23908503.827    -7715633.24249  -4972086.24245  23908504.018    23908512.767
  22430306.441   -18390545.50049 -13280590.63047  22430306.712    22430313.120
  22438979.386   -17437070.14449 -13563244.94046  22438979.308    22438986.549
  20317805.635   -25556536.54549 -19604024.30948  20317805.386    20317811.568
  21162888.869   -24762768.08449 -18962584.00247  21162888.847    21162896.054
  24107549.612    -7151152.51649  -5256956.83145  24107550.060    24107558.569
 04  5 22  1 39 30.0000000  0  7G 4G11G25G16G20G 1G13
  24660640.916    -7374470.98349  -5726696.66745  24660641.284    24660649.259
  23925385.925    -7626917.85649  -4902957.46545  23925386.120    23925394.743
  22445244.599   -18312045.06049 -13219421.49247  22445244.880    22445251.322
  22425063.131   -17510200.11549 -13620229.27946  22425063.112    22425070.368
  20314369.274   -25574594.82749 -19618095.70048  20314369.025    20314375.196
  21155413.623   -24802050.71649 -18993193.83647  21155413.592    21155420.740
  24092152.714    -7232063.18049  -5320004.01345  24092153.259    24092161.635
 04  5 22  1 40  0.0000000  0  7G 4G11G25G16G20G 1G13
  24650516.783    -7427673.88949  -5768153.45645  24650517.143    24650525.074
  23942279.842    -7538140.55849  -4833780.47445  23942279.993    23942288.597
  22460217.508   -18233362.11449 -13158110.13947  22460217.775    22460224.221
  22411215.941   -17582967.52149 -13676931.10146  22411215.878    22411223.117
  20311031.593   -25592134.52049 -19631762.99048  20311031.346    20311037.502
  21147973.193   -24841150.25649 -19023660.99947  21147973.163    21147980.327
  24076766.243    -7312919.71049  -5383009.00645  24076766.731    24076774.895
 04  5 22  1 40 30.0000000  0  7G 4G11G25G16G20G 1G13
  24640481.511    -7480409.27749  -5809245.91545  24640482.019    24640489.954
  23959185.182    -7449302.78649  -4764556.35545  23959185.401    23959194.005
  22475224.924   -18154497.68349 -13096657.36347  22475225.185    22475231.647
  22397438.503   -17655368.64849 -13733347.52446  22397438.486    22397445.685
  20307792.995   -25609153.55949 -19645024.57448  20307792.728    20307798.893
  21140567.814   -24880065.54549 -19053984.59047  21140567.800    21140574.957
  24061390.342    -7393720.75849  -5445970.77445  24061390.776    24061398.831
 04  5 22  1 41  0.0000000  0  7G 4G11G25G16G20G 1G13
  24630535.397    -7532676.08049  -5849973.27445  24630535.945    24630543.920
  23976101.402    -7360408.19149  -4695287.97445  23976101.550    23976110.128
  22490266.385   -18075454.30649 -13035065.15747  22490266.652    22490273.141
  22383731.062   -17727401.03849 -13789476.62046  22383731.065    22383738.184
  20304653.605   -25625651.03949 -19657879.75948  20304653.341    20304659.495
  21133197.469   -24918796.77149 -19084164.75847  21133197.492    21133204.629
  24046024.889    -7474466.65049  -5508889.57145  24046025.373    24046033.408
 04  5 22  1 41 30.0000000  0  7G 4G11G25G16G20G 1G13
  24620678.809    -7584472.74049  -5890334.28345  24620679.249    24620687.406
  23993027.729    -7271459.58749  -4625977.48945  23993028.023    23993036.620
  22505341.564   -17996233.94449 -12973335.03447  22505341.826    22505348.296
  22370094.452   -17799061.92149 -13845316.21046  22370094.356    22370101.637
  20301613.732   -25641625.70749 -19670327.56548  20301613.465    20301619.610
  21125862.243   -24957343.72349 -19114201.33547  21125862.250    21125869.354
  24030669.838    -7555157.75449  -5571765.67045  24030670.403    24030678.342
 04  5 22  1 42  0.0000000  0  7G 4G11G25G16G20G 1G13
  24610911.997    -7635796.65649  -5930326.91645  24610912.470    24610920.719
  24009964.035    -7182458.74449  -4556626.32545  24009964.377    24009972.999
  22520450.240   -17916837.38049 -12911467.61847  22520450.527    22520457.023
  22356529.165   -17870347.72649 -13900863.56746  22356529.148    22356536.203
  20298673.747   -25657075.35849 -19682366.26448  20298673.481    20298679.608
  21118562.313   -24995705.13049 -19144093.33147  21118562.324    21118569.412
  24015325.449    -7635792.62649  -5634597.92845  24015325.965    24015334.023
 04  5 22  1 42 30.0000000  0  7G 4G11G25G16G20G 1G13
  24601235.383    -7686647.95849  -5969951.27145  24601235.899    24601244.059
  24026909.570    -7093409.94549  -4487237.79245  24026909.887    24026918.544
  22535591.869   -17837268.14549 -12849465.65247  22535592.124    22535598.621
  22343035.377   -17941257.08849 -13956117.55246  22343035.478    22343042.722
  20295833.679   -25672000.10449 -19693995.94948  20295833.427    20295839.535
  21111297.453   -25033882.33349 -19173841.78847  21111297.453    21111304.575
  23999991.726    -7716372.54049  -5697387.38145  23999992.111    24000000.160
 04  5 22  1 43  0.0000000  0  7G 4G11G25G16G20G 1G13
  24591649.078    -7737024.71649  -6009205.84545  24591649.455    24591657.653
  24043863.717    -7004315.55249  -4417813.73345  24043864.099    24043872.816
  22550765.979   -17757527.86849 -12787330.40647  22550766.250    22550772.695
  22329614.144   -18011786.56649 -14011075.54346  22329614.120    22329621.223
  20293093.781   -25686398.38949 -19705215.40448  20293093.514    20293099.616
  21104067.751   -25071874.65549 -19203446.18347  21104067.758    21104074.882
  23984668.268    -7796896.51349  -5760133.25245  23984668.610    23984676.771
 04  5 22  1 43 30.0000000  0  7G 4G11G25G16G20G 1G13
  24582153.498    -7786924.13249  -6048088.50345  24582153.819    24582161.863
  24060826.472    -6915176.91049  -4348355.17445  24060826.746    24060835.417
  22565972.548   -17677617.10949 -12725062.31546  22565972.792    22565979.234
  22316265.776   -18081932.35849 -14065734.56146  22316265.771    22316272.980
  20290454.526   -25700267.83849 -19716022.78448  20290454.271    20290460.349
  21096873.498   -25109680.66849 -19232905.40847  21096873.488    21096880.636
  23969355.658    -7877363.25249  -5822834.52545  23969356.121    23969364.307
 04  5 22  1 44  0.0000000  0  7G 4G11G25G16G20G 1G13
  24572748.798    -7836346.04349  -6086599.03645  24572749.190    24572757.172
  24077796.836    -6825998.29449  -4278865.48745  24077796.988    24077805.605
  22581210.870   -17597539.19749 -12662663.97546  22581211.103    22581217.558
  22302990.610   -18151692.95349 -14120093.42846  22302990.700    22302997.853
  20287915.867   -25713608.81549 -19726418.35948  20287915.598    20287921.684
  21089714.542   -25147301.51349 -19262220.33347  21089714.534    21089721.638
  23954053.992    -7957773.77349  -5885491.98445  23954054.373    23954062.638
 04  5 22  1 44 30.0000000  0  7G 4G11G25G16G20G 1G13
  24563435.265    -7885289.04949  -6124736.39445  24563435.667    24563443.894
  24094774.368    -6736782.34149  -4209346.70645  24094774.494    24094782.932
  22596480.583   -17517296.14249 -12600136.94746  22596480.882    22596487.361
  22289789.523   -18221065.60249 -14174149.98046  22289789.530    22289796.775
  20285478.008   -25726419.84149 -19736400.99048  20285477.726    20285483.851
  21082590.789   -25184737.00949 -19291390.83847  21082590.766    21082597.889
  23938763.145    -8038128.12449  -5948105.68145  23938763.509    23938771.554
 04  5 22  1 45  0.0000000  0  7G 4G11G25G16G20G 1G13
  24554213.275    -7933751.09749  -6162499.03245  24554213.621    24554221.559
  24111758.396    -6647531.63949  -4139800.85245  24111758.477    24111766.951
  22611781.496   -17436889.32949 -12537482.32346  22611781.799    22611788.287
  22276662.756   -18290047.11649 -14227901.78346  22276662.837    22276669.812
  20283141.290   -25738699.08349 -19745969.23548  20283141.044    20283147.197
  21075502.483   -25221986.30049 -19320416.24547  21075502.463    21075509.582
  23923483.119    -8118425.37549  -6010674.87845  23923483.458    23923491.395
 04  5 22  1 45 30.0000000  0  7G 4G11G25G16G20G 1G13
  24545082.852    -7981731.63149  -6199886.39145  24545083.242    24545091.269
  24128748.382    -6558249.22049  -4070230.28745  24128748.505    24128756.955
  22627113.227   -17356321.01749 -12474701.84946  22627113.465    22627119.968
  22263610.794   -18358635.43049 -14281347.16046  22263610.803    22263617.951
  20280905.892   -25750446.36849 -19755122.96948  20280905.651    20280911.793
  21068449.524   -25259049.80149 -19349296.88547  21068449.516    21068456.638
  23908213.745    -8198665.80749  -6073199.80345  23908214.109    23908222.056
 04  5 22  1 46  0.0000000  0  7G 4G11G25G16G20G 1G13
  24536044.661    -8029227.28249  -6236895.97645  24536045.199    24536053.111
  24145744.184    -6468936.37049  -4000636.01545  24145744.179    24145752.817
  22642475.503   -17275591.64449 -12411795.87046  22642475.770    22642482.292
  22250634.455   -18426826.28749 -14334482.86146  22250634.457    22250641.504
  20278772.243   -25761658.93849 -19763860.04248  20278771.988    20278778.128
  21061432.313   -25295925.51649 -19378031.19847  21061432.304    21061439.421
  23892955.453    -8278847.77149  -6135679.15345  23892955.930    23892963.879
 04  5 22  1 46 30.0000000  0  7G 4G11G25G16G20G 1G13
  24527098.721    -8076238.30449  -6273527.91645  24527099.243    24527107.061
  24162744.954    -6379596.84549  -3931020.94445  24162745.099    24162753.768
  22657867.830   -17194704.25249 -12348766.75846  22657868.124    22657874.676
  22237733.991   -18494618.04149 -14387307.55946  22237734.057    22237741.242
  20276740.330   -25772336.82149 -19772180.47848  20276740.055    20276746.201
  21054450.692   -25332614.43049 -19406619.95347  21054450.637    21054457.768
  23877708.396    -8358971.95549  -6198113.48745  23877708.876    23877716.670
 04  5 22  1 47  0.0000000  0  7G 4G11G25G16G20G 1G13
  24518245.231    -8122762.69249  -6309780.65245  24518245.882    24518253.829
  24179750.391    -6290233.26649  -3861387.10845  24179750.567    24179759.248
  22673289.979   -17113660.56949 -12285615.86346  22673290.238    22673296.817
  22224910.148   -18562007.70749 -14439818.94846  22224910.175    22224917.273
  20274810.381   -25782478.59749 -19780083.16348  20274810.111    20274816.301
  21047504.645   -25369115.99549 -19435062.72247  21047504.596    21047511.747
  23862472.342    -8439038.20449  -6260502.67945  23862472.694    23862480.494
 04  5 22  1 47 30.0000000  0  7G 4G11G25G16G20G 1G13
  24509484.529    -8168799.83849  -6345653.75045  24509485.246    24509493.095
  24196759.832    -6200848.81249  -3791737.02245  24196760.052    24196768.578
  22688741.311   -17032463.02449 -12222345.07946  22688741.591    22688748.125
  22212163.332   -18628993.07649 -14492015.29846  22212163.320    22212170.456
  20272982.568   -25792083.82949 -19787567.76748  20272982.296    20272988.493
  21040594.180   -25405430.49349 -19463359.72647  21040594.170    21040601.316
  23847247.193    -8519046.47849  -6322846.72345  23847247.634    23847255.375
 04  5 22  1 48  0.0000000  0  7G 4G11G25G16G20G 1G13
  24500817.096    -8214347.63049  -6381145.50045  24500817.707    24500825.624
  24213772.834    -6111445.66449  -3722072.37645  24213772.933    24213781.562
  22704221.776   -16951112.85349 -12158955.35846  22704222.054    22704228.601
  22199493.973   -18695570.84049 -14543894.03046  22199493.990    22199500.973
  20271257.168   -25801150.84149 -19794632.97348  20271256.911    20271263.089
  21033719.554   -25441557.09149 -19491510.30848  21033719.499    21033726.618
  23832033.222    -8598995.88049  -6385144.86845  23832033.786    23832041.441
 04  5 22  1 48 30.0000000  0  7G 4G11G25G16G20G 1G13
  24492243.000    -8259404.65049  -6416254.83345  24492243.553    24492251.516
  24230788.879    -6022026.54049  -3652395.30145  24230788.844    24230797.567
  22719731.012   -16869611.51849 -12095447.84946  22719731.287    22719737.805
  22186902.729   -18761738.37849 -14595453.10146  22186902.717    22186909.681
  20269634.478   -25809678.25549 -19801277.72048  20269634.204    20269640.377
  21026880.723   -25477495.37549 -19519514.15348  21026880.673    21026887.807
  23816830.712    -8678885.98749  -6447396.81645  23816831.192    23816838.834
 04  5 22  1 49  0.0000000  0  7G 4G11G25G16G20G 1G13
  24483762.325    -8303970.50549  -6450981.45645  24483762.904    24483770.937
  24247807.387    -5932594.71749  -3582708.32845  24247807.272    24247815.998
  22735268.475   -16787961.89349 -12031824.78846  22735268.761    22735275.246
  22174389.754   -18827493.88049 -14646691.11846  22174389.799    22174396.725
  20268114.406   -25817666.22149 -19807502.11848  20268114.127    20268120.330
  21020077.606   -25513245.87649 -19547371.67648  21020077.543    21020084.718
  23801639.199    -8758717.54949  -6509603.15345  23801639.718    23801647.282
 04  5 22  1 49 30.0000000  0  7G 4G11G25G16G20G 1G13
  24475375.522    -8348043.20649  -6485323.77645  24475376.140    24475384.177
  24264827.732    -5843152.32449  -3513013.10045  24264827.690    24264836.400
  22750833.982   -16706165.01549 -11968086.97946  22750834.245    22750840.726
  22161955.894   -18892833.94949 -14697605.39946  22161955.927    22161962.908
  20266697.348   -25825112.75249 -19813304.60948  20266697.108    20266703.304
  21013310.408   -25548807.52249 -19575082.03248  21013310.368    21013317.532
  23786459.061    -8838489.48449  -6571763.01645  23786459.538    23786467.091
 04  5 22  1 50  0.0000000  0  7G 4G11G25G16G20G 1G13
  24467082.932    -8391621.16449  -6519280.61245  24467083.610    24467091.459
  24281849.657    -5753701.67349  -3443311.45345  24281849.765    24281858.458
  22766427.182   -16624222.51649 -11904235.71346  22766427.390    22766433.884
  22149601.675   -18957755.48849 -14748193.57246  22149601.690    22149608.641
  20265383.563   -25832016.76449 -19818684.37048  20265383.327    20265389.518
  21006579.275   -25584179.73349 -19602644.78248  21006579.238    21006586.385
  23771290.204    -8918201.17949  -6633875.93145  23771290.749    23771298.306
 04  5 22  1 50 30.0000000  0  7G 4G11G25G16G20G 1G13
  24458884.433    -8434704.04549  -6552851.66545  24458885.036    24458892.954
  24298872.553    -5664246.54649  -3373606.32245  24298872.600    24298881.274
  22782047.540   -16542137.01249 -11840273.01746  22782047.766    22782054.248
  22137327.533   -19022256.85149 -14798454.34146  22137327.517    22137334.393
  20264173.005   -25838378.31149 -19823641.43648  20264172.755    20264178.962
  20999884.093   -25619363.18149 -19630060.44448  20999884.043    20999891.159
  23756132.982    -8997853.34549  -6695942.45645  23756133.372    23756140.793
 04  5 22  1 51  0.0000000  0  7G 4G11G25G16G20G 1G13
  24450780.437    -8477290.68549  -6586036.03345  24450780.998    24450789.020
  24315895.567    -5574789.38149  -3303899.61245  24315895.676    24315904.580
  22797694.690   -16459910.65549 -11776200.55246  22797694.874    22797701.434
  22125133.704   -19086335.58149 -14848385.77846  22125133.719    22125140.499
  20263065.921   -25844196.27449 -19828174.92148  20263065.672    20263071.863
  20993224.866   -25654357.61349 -19657328.82648  20993224.823    20993231.924
  23740987.003    -9077445.59949  -6757962.30145  23740987.527    23740994.820
 04  5 22  1 51 30.0000000  0  7G 4G11G25G16G20G 1G13
  24442771.235    -8519378.67249  -6618831.85245  24442771.721    24442779.917
  24332918.729    -5485332.09649  -3234192.80045  24332918.881    24332928.047
  22813368.483   -16377543.83949 -11712018.64646  22813368.714    22813375.361
  22113021.052   -19149987.91449 -14897984.94947  22113021.094    22113027.878
  20262062.639   -25849468.52549 -19832283.17648  20262062.396    20262068.592
  20986601.838   -25689161.60749 -19684448.80748  20986601.818    20986608.927
  23725852.793    -9156976.27649  -6819934.15445  23725853.164    23725860.452
 04  5 22  1 52  0.0000000  0  7G 4G11G25G16G20G 1G13
  24434857.282    -8560966.76049  -6651238.13045  24434857.810    24434865.987
  24349941.472    -5395876.90849  -3164487.63545  24349941.696    24349951.006
  22829068.717   -16295038.44249 -11647728.75746  22829068.955    22829075.688
  22100990.103   -19213211.23549 -14947249.83347  22100990.093    22100996.851
  20261163.402   -25854194.15049 -19835965.49048  20261163.159    20261169.347
  20980015.212   -25723774.61249 -19711419.96248  20980015.208    20980022.278
  23710730.224    -9236445.64749  -6881858.24645  23710730.703    23710737.940
 04  5 22  1 52 30.0000000  0  7G 4G11G25G16G20G 1G13
  24427038.403    -8602055.29449  -6683255.15345  24427038.993    24427047.043
  24366963.024    -5306428.24949  -3094787.55545  24366963.242    24366972.741
  22844794.748   -16212397.65249 -11583333.37446  22844795.008    22844801.701
  22089040.909   -19276004.33549 -14996179.47647  22089040.895    22089047.739
  20260368.087   -25858373.61849 -19839222.22648  20260367.839    20260374.048
  20973464.715   -25758197.75349 -19738243.17648  20973464.702    20973471.742
  23695619.075    -9315854.52949  -6943735.21645  23695619.564    23695626.789
 04  5 22  1 53  0.0000000  0  7G 4G11G25G16G20G 1G13
  24419314.891    -8642642.45549  -6714881.51245  24419315.510    24419323.378
  24383983.134    -5216987.80749  -3025093.89045  24383983.230    24383992.967
  22860546.331   -16129622.43849 -11518833.23346  22860546.603    22860553.294
  22077174.166   -19338363.96549 -15044771.35347  22077174.190    22077181.071
  20259676.959   -25862005.50749 -19842052.27148  20259676.718    20259682.943
  20966950.551   -25792429.95349 -19764917.60448  20966950.552    20966957.556
  23680519.628    -9395201.65749  -7005564.05045  23680520.098    23680527.443
 04  5 22  1 53 30.0000000  0  7G 4G11G25G16G20G 1G13
  24411687.083    -8682726.97849  -6746116.16145  24411687.600    24411695.831
  24401001.285    -5127558.37549  -2955408.78045  24401001.338    24401010.900
  22876323.129   -16046714.69949 -11454229.83546  22876323.451    22876330.200
  22065390.445   -19400287.59549 -15093023.49947  22065390.468    22065397.306
  20259090.199   -25865088.76149 -19844454.81248  20259089.964    20259096.216
  20960472.794   -25826470.89049 -19791443.00048  20960472.777    20960479.787
  23665432.018    -9474486.95849  -7067344.71145  23665432.481    23665439.900
 04  5 22  1 54  0.0000000  0  7G 4G11G25G16G20G 1G13
  24404155.253    -8722307.78749  -6776958.38745  24404155.805    24404163.761
  24418016.690    -5038142.72049  -2885734.42645  24418016.798    24418026.225
  22892124.798   -15963676.33349 -11389524.64846  22892125.151    22892131.904
  22053690.209   -19461772.82449 -15140934.02347  22053690.228    22053697.053
  20258607.999   -25867622.89849 -19846429.47348  20258607.758    20258613.997
  20954031.390   -25860320.48949 -19817819.30048  20954031.366    20954038.404
  23650356.307    -9553710.23849  -7129077.05845  23650356.819    23650364.204
 04  5 22  1 54 30.0000000  0  7G 4G11G25G16G20G 1G13
  24396719.355    -8761383.95149  -6807407.34845  24396720.052    24396727.891
  24435028.810    -4948743.69049  -2816073.02945  24435029.001    24435038.457
  22907951.094   -15880509.01149 -11324718.96046  22907951.445    22907958.172
  22042073.808   -19522817.04949 -15188500.90147  22042073.830    22042080.636
  20258230.441   -25869607.08349 -19847975.59348  20258230.189    20258236.420
  20947626.556   -25893978.22449 -19844046.08948  20947626.530    20947633.544
  23635292.467    -9632870.99049  -7190760.68445  23635292.968    23635300.350
 04  5 22  1 55  0.0000000  0  7G 4G11G25G16G20G 1G13
  24389379.755    -8799953.23849  -6837461.30845  24389380.483    24389388.597
  24452037.564    -4859362.79549  -2746425.75445  24452037.847    24452047.337
  22923801.646   -15797213.88349 -11259813.70346  22923802.002    22923808.711
  22030542.041   -19583417.05949 -15235721.65147  22030542.043    22030548.847
  20257957.894   -25871039.37449 -19849091.66748  20257957.628    20257963.856
  20941258.422   -25927442.92249 -19870122.47248  20941258.399    20941265.414
  23620240.762    -9711968.14149  -7252394.75845  23620241.197    23620248.566
 04  5 22  1 55 30.0000000  0  7G 4G11G25G16G20G 1G13
  24382136.548    -8838016.58449  -6867121.06145  24382137.267    24382145.011
  24469042.257    -4770004.15449  -2676795.83445  24469042.394    24469051.963
  22939676.015   -15713794.00649 -11194811.23146  22939676.372    22939683.073
  22019094.903   -19643571.80549 -15282595.43447  22019094.938    22019101.750
  20257790.171   -25871920.84749 -19849778.53548  20257789.904    20257796.163
  20934926.783   -25960715.76849 -19896049.35648  20934926.782    20934933.792
  23605200.892    -9791002.68049  -7313980.04545  23605201.399    23605208.663
 04  5 22  1 56  0.0000000  0  7G 4G11G25G16G20G 1G13
  24374989.910    -8875572.31849  -6896385.22445  24374990.585    24374998.604
  24486042.086    -4680670.35549  -2607185.28545  24486042.216    24486051.666
  22955573.911   -15630250.75649 -11129712.63246  22955574.176    22955580.910
  22007733.108   -19703278.52449 -15329120.10247  22007733.074    22007739.940
  20257727.470   -25872250.24449 -19850035.21848  20257727.217    20257733.467
  20928631.786   -25993796.02749 -19921826.16748  20928631.790    20928638.834
  23590173.029    -9869974.28749  -7375516.28645  23590173.522    23590180.780
 04  5 22  1 56 30.0000000  0  7G 4G11G25G16G20G 1G13
  24367940.206    -8912618.74649  -6925252.56045  24367940.776    24367948.883
  24503036.643    -4591363.14749  -2537595.46245  24503036.741    24503046.640
  22971494.935   -15546585.22149 -11064518.74346  22971495.205    22971501.991
  21996457.063   -19762533.99049 -15375293.15647  21996457.120    21996463.952
  20257770.147   -25872026.18449 -19849860.64048  20257769.858    20257776.129
  20922373.725   -26026682.55749 -19947452.02548  20922373.722    20922380.719
  23575157.302    -9948881.80949  -7437002.59645  23575157.838    23575165.084
 04  5 22  1 57  0.0000000  0  7G 4G11G25G16G20G 1G13
  24360987.719    -8949154.30949  -6953721.85045  24360988.279    24360996.238
  24520025.863    -4502084.52949  -2468027.90745  24520025.999    24520036.052
  22987438.956   -15462798.89149 -10999230.72446  22987439.217    22987446.017
  21985267.480   -19821335.39849 -15421112.37947  21985267.516    21985274.427
  20257918.297   -25871247.57349 -19849253.94348  20257918.035    20257924.303
  20916152.634   -26059374.74249 -19972926.43948  20916152.599    20916159.567
  23560153.918   -10027724.33249  -7498438.24445  23560154.465    23560161.764
 04  5 22  1 57 30.0000000  0  7G 4G11G25G16G20G 1G13
  24354132.619    -8985178.85749  -6981792.90045  24354133.105    24354141.069
  24537009.085    -4412837.86149  -2398485.25545  24537009.262    24537019.098
  23003405.509   -15378893.88949 -10933850.23546  23003405.754    23003412.581
  21974164.700   -19879680.73749 -15466576.23947  21974164.732    21974171.590
  20258172.031   -25869914.09949 -19848214.88148  20258171.780    20258178.049
  20909968.479   -26091872.69649 -19998249.51348  20909968.460    20909975.383
  23545162.977   -10106502.11549  -7559823.46945  23545163.483    23545170.796
 04  5 22  1 58  0.0000000  0  7G 4G11G25G16G20G 1G13
  24347374.552    -9020692.37449  -7009465.76345  24347375.072    24347382.968
  24553985.692    -4323626.76049  -2328970.31945  24553985.899    24553995.526
  23019394.069   -15294873.23449 -10868379.62446  23019394.325    23019401.177
  21963148.939   -19937568.80649 -15511683.77747  21963148.978    21963155.779
  20258531.232   -25868026.44649 -19846743.98648  20258530.991    20258537.241
  20903821.170   -26124177.05549 -20023421.73048  20903821.146    20903828.098
  23530184.259   -10185215.91349  -7621158.82645  23530184.722    23530192.012
 04  5 22  1 58 30.0000000  0  7G 4G11G25G16G20G 1G13
  24340713.977    -9055693.27449  -7036739.18645  24340714.484    24340722.486
  24570955.203    -4234452.91049  -2259484.40445  24570955.361    24570964.955
  23035404.549   -15210737.64549 -10802819.45746  23035404.821    23035411.632
  21952220.864   -19994996.25049 -15556432.38147  21952220.864    21952227.659
  20258996.247   -25865582.83049 -19844839.88048  20258996.009    20259002.273
  20897710.879   -26156286.63549 -20048442.17448  20897710.846    20897717.835
  23515217.892   -10263864.15949  -7682443.12145  23515218.363    23515225.722
 04  5 22  1 59  0.0000000  0  7G 4G11G25G16G20G 1G13
  24334151.206    -9090180.23949  -7063612.12345  24334151.747    24334160.053
  24587917.043    -4145318.94049  -2190029.57345  24587917.218    24587926.727
  23051436.526   -15126488.87949 -10737171.09346  23051436.832    23051443.638
  21941380.933   -20051960.60249 -15600820.15847  21941380.988    21941387.584
  20259567.154   -25862582.75449 -19842502.16148  20259566.914    20259573.182
  20891637.700   -26188201.08249 -20073310.56148  20891637.670    20891644.699
  23500264.008   -10342446.97149  -7743676.41845  23500264.495    23500271.966
 04  5 22  1 59 30.0000000  0  7G 4G11G25G16G20G 1G13
  24327686.511    -9124152.08249  -7090083.69945  24327687.023    24327695.307
  24604870.832    -4056227.11749  -2120607.58845  24604870.882    24604880.402
  23067489.935   -15042127.70449 -10671435.14746  23067490.238    23067497.060
  21930629.587   -20108459.04549 -15644844.86647  21930629.611    21930636.169
  20260244.251   -25859024.78449 -19839729.72348  20260243.995    20260250.234
  20885601.890   -26219919.31749 -20098026.05248  20885601.859    20885608.889
  23485322.797   -10420963.38249  -7804857.96045  23485323.319    23485330.780
 04  5 22  2  0  0.0000000  0  7G 4G11G25G16G20G 1G13
  24321320.069    -9157608.91249  -7116153.95345  24321320.600    24321328.729
  24621816.003    -3967180.67549  -2051220.98345  24621816.152    24621825.716
  23083564.137   -14957657.10749 -10605613.94046  23083564.461    23083571.292
  21919967.186   -20164490.40249 -15688505.62547  21919967.193    21919973.729
  20261027.294   -25854909.85549 -19836523.29848  20261027.053    20261033.299
  20879603.319   -26251442.08949 -20122589.24148  20879603.291    20879610.304
  23470394.098   -10499413.83049  -7865988.12645  23470394.674    23470402.106
 04  5 22  2  0 30.0000000  0  7G 4G11G25G16G20G 1G13
  24315051.711    -9190549.64749  -7141822.04945  24315052.210    24315060.279
  24638752.106    -3878182.22049  -1981871.75345  24638752.155    24638761.643
  23099658.938   -14873078.61249 -10539708.65246  23099659.269    23099666.040
  21909394.067   -20220052.25249 -15731800.52347  21909394.092    21909400.660
  20261916.551   -25850236.84249 -19832882.00148  20261916.287    20261922.555
  20873642.060   -26282768.75449 -20146999.62748  20873642.018    20873649.018
  23455478.154   -10577797.67649  -7927066.36645  23455478.740    23455486.091
 04  5 22  2  1  0.0000000  0  7G 4G11G25G16G20G 1G13
  24308881.624    -9222972.75349  -7167086.79645  24308882.130    24308890.385
  24655678.767    -3789233.32049  -1912561.11145  24655678.998    24655688.348
  23115774.046   -14788393.13749 -10473720.00846  23115774.412    23115781.171
  21898910.949   -20275141.20249 -15774726.95447  21898910.960    21898917.557
  20262912.229   -25845004.40749 -19828804.78248  20262911.988    20262918.240
  20867718.285   -26313898.17749 -20171256.30848  20867718.259    20867725.236
  23440575.044   -10656114.01349  -7988092.02545  23440575.627    23440582.918
 04  5 22  2  1 30.0000000  0  7G 4G11G25G16G20G 1G13
  24302810.254    -9254878.12849  -7191948.11945  24302810.754    24302818.975
  24672595.280    -3700337.54349  -1843291.88145  24672595.428    24672604.955
  23131909.071   -14703603.16349 -10407649.93446  23131909.432    23131916.255
  21888517.989   -20329755.93349 -15817283.84747  21888518.044    21888524.670
  20264014.340   -25839212.98649 -19824291.99848  20264014.085    20264020.340
  20861832.055   -26344830.74849 -20195359.60248  20861832.014    20861838.989
  23425684.681   -10734363.16349  -8049065.30545  23425685.255    23425692.555
 04  5 22  2  2  0.0000000  0  7G 4G11G25G16G20G 1G13
  24296837.737    -9286264.06749  -7216404.67345  24296838.259    24296846.508
  24689501.267    -3611496.51849  -1774065.36345  24689501.524    24689511.002
  23148063.813   -14618709.41049 -10341499.00546  23148064.209    23148071.104
  21878216.011   -20383893.17149 -15859468.66647  21878216.056    21878222.650
  20265223.106   -25832860.98049 -19819342.39748  20265222.858    20265229.105
  20855983.551   -26375565.00249 -20219308.35748  20855983.493    20855990.441
  23410807.344   -10812543.64349  -8109985.10545  23410807.985    23410815.221
 04  5 22  2  2 30.0000000  0  7G 4G11G25G16G20G 1G13
  24290964.058    -9317130.41249  -7240456.38545  24290964.586    24290972.738
  24706396.258    -3522713.25349  -1704883.80345  24706396.547    24706406.126
  23164237.979   -14533714.00249 -10275268.86246  23164238.331    23164245.199
  21868005.203   -20437551.06049 -15901279.97547  21868005.265    21868011.874
  20266538.537   -25825948.41349 -19813956.00148  20266538.287    20266544.511
  20850172.740   -26406100.98649 -20243102.62048  20850172.706    20850179.652
  23395943.037   -10890655.82449  -8170851.67745  23395943.645    23395950.841
 04  5 22  2  3  0.0000000  0  7G 4G11G25G16G20G 1G13
  24285189.206    -9347477.17149  -7264103.18345  24285189.833    24285197.972
  24723279.811    -3433990.89849  -1635749.76145  24723279.809    24723289.756
  23180431.081   -14448619.17249 -10208961.24346  23180431.411    23180438.225
  21857885.843   -20490728.18249 -15942716.66147  21857885.930    21857892.607
  20267960.549   -25818475.62949 -19808133.06048  20267960.303    20267966.533
  20844399.623   -26436438.98849 -20266742.60548  20844399.582    20844406.520
  23381091.676   -10968699.87049  -8231665.15345  23381092.257    23381099.489
 04  5 22  2  3 30.0000000  0  6G 4G25G16G20G 1G13
  24279513.673    -9377302.59049  -7287343.76745  24279514.342    24279522.420
  23196642.694   -14363426.21649 -10142577.18146  23196643.088    23196649.944
  21847858.645   -20543421.42749 -15983776.29447  21847858.702    21847865.403
  20269489.431   -25810441.29249 -19801872.53748  20269489.195    20269495.445
  20838664.372   -26466577.98549 -20290227.52148  20838664.343    20838671.248
  23366253.560   -11046674.64249  -8292424.64745  23366254.089    23366261.292
 04  5 22  2  4  0.0000000  0  6G 4G25G16G20G 1G13
  24273938.117    -9406602.88749  -7310175.15845  24273938.722    24273946.747
  23212873.368   -14278133.25749 -10076115.16846  23212873.802    23212880.659
  21837924.503   -20595625.39849 -16024454.66547  21837924.599    21837931.369
  20271125.853   -25801841.91249 -19795171.72248  20271125.592    20271131.850
  20832967.706   -26496514.14449 -20313554.39148  20832967.667    20832974.548
  23351429.435   -11124576.36449  -8353127.20745  23351429.892    23351437.043
 04  5 22  2  4 30.0000000  0  6G 4G25G16G20G 1G13
  24268461.466    -9435382.70449  -7332600.96545  24268462.063    24268470.208
  23229121.810   -14192747.07749 -10009580.52046  23229122.243    23229129.135
  21828082.980   -20647343.09849 -16064754.14147  21828083.032    21828089.725
  20272868.902   -25792682.29649 -19788034.37248  20272868.645    20272874.899
  20827308.728   -26526252.13649 -20336726.84748  20827308.694    20827315.564
  23336618.171   -11202409.96349  -8413776.67545  23336618.556    23336625.670
 04  5 22  2  5  0.0000000  0  6G 4G25G16G20G 1G13
  24263084.312    -9463640.13549  -7354619.74845  24263084.816    24263092.882
  23245387.876   -14107268.28849  -9942973.72646  23245388.283    23245395.278
  21818334.474   -20698571.36349 -16104672.23047  21818334.552    21818341.259
  20274718.805   -25782960.96749 -19780459.31848  20274718.544    20274724.791
  20821687.706   -26555790.58949 -20359743.81148  20821687.656    20821694.575
  23321820.111   -11280173.67849  -8474371.69745  23321820.520    23321827.623
 04  5 22  2  5 30.0000000  0  6G 4G25G16G20G 1G13
  24257806.630    -9491373.49049  -7376230.14245  24257807.130    24257815.391
  23261671.499   -14021697.45749  -9876295.19846  23261671.840    23261678.891
  21808679.707   -20749307.14149 -16144206.56647  21808679.775    21808686.508
  20276675.848   -25772676.71449 -19772445.62748  20276675.590    20276681.841
  20816104.930   -26585128.26949 -20382604.33048  20816104.890    20816111.821
  23307035.463   -11357866.59149  -8534911.54545  23307035.905    23307043.110
 04  5 22  2  6  0.0000000  0  6G 4G25G16G20G 1G13
  24252628.742    -9518583.03649  -7397432.39745  24252629.204    24252637.491
  23277972.233   -13936036.61449  -9809546.54146  23277972.595    23277979.647
  21799119.089   -20799548.68249 -16183355.79147  21799119.114    21799125.876
  20278739.970   -25761829.54749 -19763993.30448  20278739.731    20278745.991
  20810560.353   -26614265.21949 -20405308.43448  20810560.309    20810567.239
  23292264.477   -11435488.59249  -8595396.16245  23292264.960    23292272.007
 04  5 22  2  6 30.0000000  0  6G 4G25G16G20G 1G13
  24247550.764    -9545267.85349  -7418225.75445  24247551.250    24247559.627
  23294289.854   -13850287.17749  -9742728.83646  23294290.219    23294297.359
  21789652.876   -20849293.80349 -16222118.18847  21789652.927    21789659.642
  20280911.335   -25750419.05449 -19755102.02948  20280911.097    20280917.370
  20805054.146   -26643200.49749 -20427855.38848  20805054.081    20805060.982
  23277506.998   -11513039.10349  -8655825.05145  23277507.477    23277514.505
 04  5 22  2  7  0.0000000  0  6G 4G25G16G20G 1G13
  24242572.721    -9571427.30149  -7438609.74545  24242573.325    24242581.631
  23310623.979   -13764451.22649  -9675843.72746  23310624.340    23310631.459
  21780281.550   -20898540.28349 -16260492.03247  21780281.595    21780288.331
  20283189.946   -25738444.90449 -19745771.53948  20283189.690    20283196.003
  20799586.321   -26671933.95549 -20450245.08348  20799586.266    20799593.143
  23262763.326   -11590517.68349  -8716197.89845  23262763.844    23262770.852
 04  5 22  2  7 30.0000000  0  6G 4G25G16G20G 1G13
  24237694.970    -9597060.92749  -7458584.00945  24237695.542    24237703.624
  23326974.236   -13678530.29049  -9608892.39646  23326974.581    23326981.701
  21771005.501   -20947286.12249 -16298475.75847  21771005.527    21771012.307
  20285575.839   -25725906.96549 -19736001.72348  20285575.588    20285581.910
  20794156.979   -26700465.20049 -20472477.20848  20794156.925    20794163.815
  23248033.400   -11667923.88149  -8776514.33546  23248033.881    23248040.914
 04  5 22  2  8  0.0000000  0  6G 4G25G16G20G 1G13
  24232917.355    -9622167.94949  -7478147.92745  24232917.821    24232925.967
  23343340.553   -13592525.44949  -9541875.66246  23343340.811    23343347.934
  21761825.119   -20995529.09349 -16336067.64847  21761825.152    21761831.920
  20288069.145   -25712804.63049 -19725792.11948  20288068.902    20288075.213
  20788766.252   -26728793.41249 -20494551.12548  20788766.217    20788773.158
  23233317.330   -11745257.04549  -8836773.86146  23233317.829    23233324.850
 04  5 22  2  8 30.0000000  0  6G 4G25G16G20G 1G13
  24228239.700    -9646748.79749  -7497301.84145  24228240.259    24228248.378
  23359722.245   -13506439.24649  -9474795.55846  23359722.511    23359729.664
  21752740.705   -21043267.91049 -16373266.69047  21752740.711    21752747.527
  20290669.711   -25699138.60549 -19715143.27948  20290669.462    20290675.758
  20783414.094   -26756918.97249 -20516467.13748  20783414.082    20783421.016
  23218615.126   -11822517.52049  -8896976.75046  23218615.607    23218622.562
 04  5 22  2  9  0.0000000  0  6G 4G25G16G20G 1G13
  24223662.628    -9670801.73449  -7516044.39245  24223663.166    24223671.362
  23376119.383   -13420271.85649  -9407652.18346  23376119.669    23376126.797
  21743752.773   -21090499.37249 -16410070.39147  21743752.813    21743759.624
  20293377.821   -25684907.41149 -19704054.04648  20293377.587    20293383.890
  20778100.900   -26784840.17349 -20538223.90748  20778100.880    20778107.776
  23203926.988   -11899703.76749  -8957121.81446  23203927.495    23203934.431
 04  5 22  2  9 30.0000000  0  6G 4G25G16G20G 1G13
  24219186.123    -9694325.85049  -7534374.89345  24219186.616    24219194.758
  23392531.585   -13334024.93749  -9340446.82846  23392531.937    23392539.099
  21734861.857   -21137221.07149 -16446476.86947  21734861.898    21734868.722
  20296193.605   -25670110.56149 -19692524.04548  20296193.348    20296199.641
  20772826.683   -26812556.24949 -20559820.84248  20772826.661    20772833.558
  23189253.102   -11976814.92249  -9017208.35646  23189253.674    23189260.599
 04  5 22  2 10  0.0000000  0  6G 4G25G16G20G 1G13
  24214810.155    -9717321.79849  -7552293.81145  24214810.606    24214818.780
  23408958.666   -13247700.55749  -9273181.11846  23408959.014    23408966.133
  21726068.206   -21183432.08549 -16482485.41647  21726068.236    21726075.061
  20299116.869   -25654748.84949 -19680553.89848  20299116.614    20299122.891
  20767591.447   -26840067.68249 -20581258.32448  20767591.406    20767598.301
  23174593.434   -12053851.59949  -9077236.85046  23174594.033    23174600.972
 04  5 22  2 10 30.0000000  0  6G 4G25G16G20G 1G13
  24210534.635    -9739789.28549  -7569800.94845  24210535.205    24210543.357
  23425400.151   -13161300.65449  -9205856.56046  23425400.492    23425407.504
  21717372.119   -21229130.61449 -16518094.63147  21717372.116    21717378.814
  20302147.602   -25638822.47249 -19668143.74848  20302147.326    20302153.605
  20762395.207   -26867374.04549 -20602536.00148  20762395.183    20762402.071
  23159948.082   -12130813.11149  -9137206.78546  23159948.681    23159955.702
 04  5 22  2 11  0.0000000  0  6G 4G25G16G20G 1G13
  24206359.903    -9761727.68949  -7586895.82045  24206360.445    24206368.595
  23441855.799   -13074826.38249  -9138474.05546  23441856.091    23441863.059
  21708773.986   -21274314.34849 -16553302.69047  21708773.988    21708780.674
  20305285.826   -25622330.87949 -19655293.16648  20305285.563    20305291.850
  20757238.152   -26894474.60849 -20623653.30648  20757238.113    20757245.017
  23145317.037   -12207699.05249  -9197117.84646  23145317.610    23145324.727
 04  5 22  2 11 30.0000000  0  6G 4G25G16G20G 1G13
  24202286.169    -9783135.76449  -7603577.44345  24202286.725    24202294.833
  23458325.326   -12988278.76949  -9071034.40046  23458325.600    23458332.565
  21700274.129   -21318980.89749 -16588107.76347  21700274.163    21700280.869
  20308531.774   -25605273.41649 -19642001.65048  20308531.506    20308537.785
  20752120.447   -26921368.33749 -20644609.45048  20752120.406    20752127.331
  23130700.688   -12284508.10349  -9256968.99746  23130701.239    23130708.453
 04  5 22  2 12  0.0000000  0  6G 4G25G16G20G 1G13
  24198313.002    -9804014.77349  -7619846.80445  24198313.586    24198321.603
  23474808.407   -12901660.25249  -9003539.50446  23474808.638    23474815.568
  21691872.973   -21363129.30749 -16622509.08547  21691873.019    21691879.686
  20311885.209   -25587651.18749 -19628270.05648  20311884.935    20311891.223
  20747041.954   -26948055.91349 -20665404.94848  20747041.932    20747048.885
  23116098.924   -12361241.15049  -9316760.90746  23116099.357    23116106.583
 04  5 22  2 12 30.0000000  0  6G 4G25G16G20G 1G13
  24194440.799    -9824363.28949  -7635702.78945  24194441.387    24194449.622
  23491304.922   -12814971.28049  -8935989.70746  23491305.068    23491311.963
  21683570.952   -21406756.99649 -16656504.65547  21683570.936    21683577.558
  20315346.292   -25569463.12349 -19614097.56548  20315346.029    20315352.335
  20742002.941   -26974535.86349 -20686038.66448  20742002.920    20742009.880
  23101511.819   -12437896.68849  -9376492.44846  23101512.216    23101519.454
 04  5 22  2 13  0.0000000  0  6G 4G25G16G20G 1G13
  24190669.647    -9844181.67849  -7651145.69245  24190670.267    24190678.355
  23507814.226   -12728214.67049  -8868387.19646  23507814.389    23507821.219
  21675368.120   -21449862.70249 -16690093.47947  21675368.145    21675374.752
  20318914.877   -25550709.97049 -19599484.74048  20318914.608    20318920.951
  20737003.451   -27000808.45849 -20706510.80748  20737003.431    20737010.376
  23086939.327   -12514475.29749  -9436164.03346  23086939.754    23086946.937
 04  5 22  2 13 30.0000000  0  6G 4G25G16G20G 1G13
  24186999.413    -9863469.09049  -7666174.83245  24186999.959    24187008.028
  23524336.208   -12641391.11849  -8800732.50946  23524336.461    23524343.221
  21667265.114   -21492443.93549 -16723273.62647  21667265.125    21667271.677
  20322591.160   -25531391.08949 -19584431.08848  20322590.913    20322597.230
  20732043.641   -27026872.50249 -20726820.44948  20732043.615    20732050.532
  23072381.696   -12590975.52749  -9495774.53746  23072382.192    23072389.336
 04  5 22  2 14  0.0000000  0  6G 4G25G16G20G 1G13
  24183430.397    -9882224.58249  -7680789.50745  24183430.968    24183438.839
  23540870.896   -12554501.04949  -8733026.00046  23540871.144    23540877.916
  21659262.392   -21534498.33349 -16756043.25247  21659262.445    21659268.968
  20326375.194   -25511505.88249 -19568936.14048  20326374.933    20326381.243
  20727123.771   -27052726.70249 -20746966.57948  20727123.731    20727130.641
  23057839.445   -12667395.92049  -9555322.84846  23057839.880    23057846.940
 04  5 22  2 14 30.0000000  0  6G 4G25G16G20G 1G13
  24179962.485    -9900449.04149  -7694990.38545  24179963.060    24179970.890
  23557417.677   -12467547.35849  -8665269.92146  23557417.939    23557424.734
  21651360.104   -21576025.27349 -16788401.87747  21651360.115    21651366.663
  20330266.787   -25491055.60049 -19553000.87348  20330266.529    20330272.843
  20722243.694   -27078371.65349 -20766949.65848  20722243.669    20722250.549
  23043312.068   -12743737.30549  -9614809.59346  23043312.487    23043319.584
 04  5 22  2 15  0.0000000  0  6G 4G25G16G20G 1G13
  24176595.469    -9918142.03249  -7708777.11845  24176596.061    24176604.164
  23573976.332   -12380531.16049  -8597465.13646  23573976.585    23573983.405
  21643558.568   -21617022.40449 -16820347.65947  21643558.636    21643565.135
  20334265.924   -25470039.99249 -19536625.08748  20334265.671    20334271.995
  20717403.593   -27103806.55149 -20786769.05148  20717403.570    20717410.437
  23028799.873   -12819999.00849  -9674234.24646  23028800.353    23028807.399
 04  5 22  2 15 30.0000000  0  6G 4G25G16G20G 1G13
  24173329.786    -9935303.24049  -7722149.50845  24173330.422    24173338.353
  23590546.484   -12293454.26849  -8529613.03146  23590546.734    23590553.642
  21635858.221   -21657488.16749 -16851879.38447  21635858.237    21635864.744
  20338372.628   -25448459.01549 -19519808.75048  20338372.388    20338378.744
  20712603.562   -27129031.08949 -20806424.52548  20712603.523    20712610.388
  23014302.987   -12896180.31549  -9733596.25146  23014303.489    23014310.541
 04  5 22  2 16  0.0000000  0  6G 4G25G16G20G 1G13
  24170165.365    -9951932.88849  -7735107.67545  24170165.853    24170173.812
  23607127.942   -12206318.16749  -8461714.82046  23607128.145    23607135.218
  21628259.259   -21697420.94549 -16882995.81247  21628259.298    21628265.711
  20342586.884   -25426313.19549 -19502552.27848  20342586.620    20342592.979
  20707843.612   -27154044.79349 -20825915.71348  20707843.578    20707850.435
  22999821.431   -12972281.20849  -9792895.60446  22999821.905    22999828.976
 04  5 22  2 16 30.0000000  0  6G 4G25G16G20G 1G13
  24167102.091    -9968029.46049  -7747650.43645  24167102.623    24167110.930
  23623720.618   -12119122.99649  -8393770.56946  23623720.798    23623727.998
  21620762.296   -21736817.78749 -16913694.61947  21620762.308    21620768.688
  20346908.807   -25403601.31849 -19484854.71648  20346908.538    20346914.910
  20703124.205   -27178845.67949 -20845241.06548  20703124.165    20703130.994
  22985355.490   -13048299.80449  -9852130.82946  22985356.049    22985363.093
 04  5 22  2 17  0.0000000  0  7G27G 4G25G16G20G 1G13
  24832947.412    -4926261.51549  -3542080.16345  24832947.578    24832959.832
  24164139.451    -9983598.37549  -7759782.06645  24164140.063    24164148.272
  23640323.250   -12031875.71549  -8325785.71246  23640323.455    23640330.637
  21613366.539   -21775682.69349 -16943978.93747  21613366.568    21613372.887
  20351337.353   -25380329.05049 -19466720.50848  20351337.092    20351343.475
  20698444.226   -27203439.01249 -20864404.69448  20698444.195    20698451.029
  22970904.392   -13124240.91449  -9911305.67246  22970904.914    22970911.971
 04  5 22  2 17 30.0000000  0  7G27G 4G25G16G20G 1G13
  24816676.615    -5011765.28749  -3608706.29745  24816676.723    24816688.649
  24161277.661    -9998638.26749  -7771501.48545  24161278.135    24161286.062
  23656935.785   -11944576.24849  -8257760.20946  23656935.974    23656943.252
  21606072.579   -21814012.46949 -16973846.26847  21606072.637    21606078.933
  20355872.760   -25356495.32049 -19448148.78748  20355872.503    20355878.893
  20693804.117   -27227822.82249 -20883405.06248  20693804.098    20693810.895
  22956468.344   -13200102.68449  -9970418.69046  22956468.907    22956475.888
 04  5 22  2 18  0.0000000  0  7G27G 4G25G16G20G 1G13
  24800431.753    -5097132.95849  -3675226.36945  24800431.778    24800443.443
  24158517.467   -10013142.51549  -7782803.48145  24158517.947    24158525.966
  23673559.101   -11857219.85949  -8189690.32746  23673559.325    23673566.628
  21598882.091   -21851798.80749 -17003290.13847  21598882.135    21598888.423
  20360516.285   -25332093.55449 -19429134.44748  20360516.028    20360522.425
  20689205.265   -27251990.04049 -20902236.65348  20689205.241    20689211.988
  22942048.773   -13275878.23649 -10029464.51346  22942049.289    22942056.262
 04  5 22  2 18 30.0000000  0  7G27G 4G25G16G20G 1G13
  24784212.365    -5182365.35449  -3741641.02845  24784212.407    24784224.222
  24155858.828   -10027112.53949  -7793689.20345  24155859.377    24155867.641
  23690192.808   -11769809.42949  -8121578.35046  23690192.961    23690200.396
  21591794.883   -21889041.92449 -17032310.71347  21591794.922    21591801.211
  20365267.549   -25307125.53949 -19409678.86048  20365267.299    20365273.677
  20684647.416   -27275941.59749 -20920900.19048  20684647.387    20684654.134
  22927645.442   -13351568.09949 -10088443.56046  22927645.931    22927652.846
 04  5 22  2 19  0.0000000  0  7G27G 4G25G16G20G 1G13
  24768018.889    -5267461.55449  -3807949.56545  24768018.987    24768030.676
  24153302.214   -10040548.13049  -7804158.50545  24153302.726    24153310.971
  23706836.459   -11682346.01349  -8053425.08346  23706836.649    23706844.250
  21584811.459   -21925739.89649 -17060906.50547  21584811.486    21584817.782
  20370126.542   -25281591.66549 -19389782.35848  20370126.285    20370132.625
  20680130.768   -27299676.76049 -20939395.11548  20680130.743    20680137.484
  22913258.555   -13427171.91649 -10147355.55646  22913258.971    22913265.839
 04  5 22  2 19 30.0000000  0  7G27G 4G25G16G20G 1G13
  24751850.987    -5352422.81749  -3874152.94745  24751851.181    24751862.920
  24150846.798   -10053451.56649  -7814213.12445  24150847.337    24150855.578
  23723489.629   -11594832.71149  -7985232.94646  23723489.920    23723497.509
  21577931.722   -21961892.94549 -17089077.68047  21577931.769    21577938.078
  20375092.862   -25255493.82749 -19369446.39848  20375092.607    20375098.927
  20675655.055   -27323196.95749 -20957722.53148  20675655.002    20675661.738
  22898887.623   -13502691.17449 -10206201.64946  22898888.070    22898894.999
 04  5 22  2 20  0.0000000  0  7G27G 4G25G16G20G 1G13
  24735709.169    -5437247.76349  -3940250.10945  24735709.265    24735721.110
  24148492.860   -10065821.78749  -7823852.26345  24148493.486    24148501.722
  23740152.067   -11507270.90949  -7917003.03246  23740152.394    23740160.022
  21571156.066   -21997499.18949 -17116822.78347  21571156.109    21571162.355
  20380166.445   -25228831.92449 -19348670.90548  20380166.195    20380172.513
  20671220.387   -27346501.05549 -20975881.56148  20671220.352    20671227.084
  22884533.007   -13578124.71349 -10264980.97746  22884533.467    22884540.426
 04  5 22  2 20 30.0000000  0  7G27G 4G25G16G20G 1G13
  24719593.488    -5521935.66749  -4006240.48045  24719593.602    24719605.292
  24146240.269   -10077659.19949  -7833076.21645  24146240.915    24146249.205
  23756823.529   -11419661.84449  -7848736.27346  23756823.853    23756831.492
  21564484.789   -22032557.09649 -17144140.59147  21564484.818    21564491.043
  20385347.330   -25201606.28349 -19327456.12948  20385347.078    20385353.384
  20666827.018   -27369588.36049 -20993871.65248  20666826.993    20666833.707
  22870194.880   -13653471.57849 -10323692.74946  22870195.423    22870202.320
 04  5 22  2 21  0.0000000  0  7G27G 4G25G16G20G 1G13
  24703503.845    -5606486.41349  -4072123.99645  24703503.991    24703515.515
  24144088.836   -10088964.34149  -7841885.41945  24144089.505    24144097.622
  23773503.701   -11332007.01349  -7780433.84646  23773504.075    23773511.729
  21557918.052   -22067065.48249 -17171030.21647  21557918.064    21557924.288
  20390635.359   -25173817.71949 -19305802.73648  20390635.117    20390641.420
  20662474.886   -27392458.95249 -21011692.88748  20662474.846    20662481.580
  22855873.313   -13728731.90349 -10382337.08446  22855873.838    22855880.680
 04  5 22  2 21 30.0000000  0  7G27G 4G25G16G20G 1G13
  24687440.154    -5690899.80449  -4137900.47245  24687440.282    24687452.084
  24142038.842   -10099737.74049  -7850280.27745  24142039.563    24142047.377
  23790192.340   -11244308.25549  -7712097.19846  23790192.722    23790200.269
  21551456.091   -22101023.29249 -17197490.82447  21551456.097    21551462.349
  20396030.301   -25145467.10149 -19283711.37048  20396030.042    20396036.366
  20658163.996   -27415112.65049 -21029345.11748  20658163.971    20658170.713
  22841568.190   -13803905.65549 -10440913.98746  22841568.631    22841575.477
 04  5 22  2 22  0.0000000  0  7G27G 4G25G16G20G 1G13
  24671402.997    -5775173.99249  -4203568.50345  24671403.233    24671415.108
  24140090.244   -10109978.50349  -7858260.11545  24140090.853    24140098.721
  23806889.278   -11156566.13549  -7643726.76746  23806889.533    23806897.077
  21545099.281   -22134428.33149 -17223520.69747  21545099.278    21545105.520
  20401532.374   -25116553.69449 -19261181.45848  20401532.113    20401538.447
  20653894.701   -27437547.76449 -21046827.01548  20653894.676    20653901.425
  22827279.758   -13878991.24849 -10499422.16746  22827280.273    22827287.124
 04  5 22  2 22 30.0000000  0  7G27G 4G25G16G20G 1G13
  24655392.477    -5859308.66249  -4269127.80845  24655392.817    24655404.613
  24138242.757   -10119686.91649  -7865825.10545  24138243.392    24138251.371
  23823594.027   -11068782.37049  -7575323.87746  23823594.289    23823601.879
  21538847.968   -22167278.99649 -17249118.59347  21538847.986    21538854.251
  20407141.393   -25087078.19449 -19238213.55248  20407141.130    20407147.464
  20649667.062   -27459764.06949 -21064138.42248  20649667.043    20649673.806
  22813008.125   -13953988.28949 -10557861.36046  22813008.693    22813015.514
 04  5 22  2 23  0.0000000  0  7G27G 4G25G16G20G 1G13
  24639408.698    -5943303.70849  -4334578.30145  24639408.952    24639420.699
  24136496.326   -10128863.98949  -7872976.07445  24136496.901    24136505.078
  23840306.237   -10980959.11749  -7506890.23345  23840306.550    23840314.125
  21532702.337   -22199574.75049 -17274284.08447  21532702.320    21532708.549
  20412857.101   -25057041.87149 -19214808.63448  20412856.843    20412863.219
  20645481.038   -27481761.77749 -21081279.48748  20645481.011    20645487.794
  22798753.538   -14028896.72049 -10616231.51146  22798754.111    22798760.780
 04  5 22  2 23 30.0000000  0  7G27G 4G25G16G20G 1G13
  24623451.714    -6027158.30949  -4399919.37645  24623451.980    24623463.623
  24134851.023   -10137509.53349  -7879712.86245  24134851.690    24134859.903
  23857025.751   -10893097.52149  -7438426.71245  23857026.025    23857033.634
  21526662.487   -22231313.99649 -17299015.93747  21526662.482    21526668.774
  20418679.514   -25026444.78249 -19190966.75948  20418679.243    20418685.666
  20641336.792   -27503539.87949 -21098249.43248  20641336.770    20641343.584
  22784515.966   -14103715.64349 -10674531.91046  22784516.448    22784523.075
 04  5 22  2 24  0.0000000  0  7G27G 4G25G16G20G 1G13
  24607521.586    -6110871.45449  -4465150.22645  24607521.768    24607533.374
  24133307.338   -10145623.50249  -7886035.45545  24133307.908    24133315.762
  23873752.459   -10805198.29449  -7369933.85045  23873752.754    23873760.380
  21520728.922   -22262495.08449 -17323312.85847  21520728.929    21520735.227
  20424608.564   -24995287.23849 -19166688.15648  20424608.308    20424614.777
  20637234.462   -27525097.70749 -21115047.73548  20637234.430    20637241.236
  22770295.516   -14178444.46949 -10732762.10746  22770296.002    22770302.628
 04  5 22  2 24 30.0000000  0  7G27G 4G25G16G20G 1G13
  24591618.448    -6194442.23949  -4530270.15445  24591618.457    24591630.107
  24131864.746   -10153205.70949  -7891943.67645  24131865.237    24131872.735
  23890486.155   -10717262.42549  -7301412.44445  23890486.450    23890494.053
  21514901.823   -22293116.35049 -17347173.55947  21514901.834    21514908.148
  20430644.283   -24963569.29549 -19141972.90548  20430644.029    20430650.534
  20633174.346   -27546434.09849 -21131673.49548  20633174.301    20633181.086
  22756092.426   -14253081.91949 -10790921.10246  22756092.905    22756099.579
 04  5 22  2 25  0.0000000  0  7G27G 4G25G16G20G 1G13
  24575742.272    -6277871.32249  -4595279.65745  24575742.369    24575753.821
  24130522.818   -10160257.91449  -7897438.91445  24130523.357    24130530.553
  23907226.317   -10629292.80649  -7232864.73645  23907226.580    23907234.135
  21509181.242   -22323177.69149 -17370597.95047  21509181.284    21509187.627
  20436786.274   -24931292.82749 -19116822.45348  20436786.027    20436792.537
  20629156.129   -27567549.82549 -21148127.30148  20629156.102    20629162.866
  22741906.527   -14327628.86149 -10849009.57546  22741907.045    22741913.773
 04  5 22  2 25 30.0000000  0  7G27G 4G25G16G20G 1G13
  24559893.501    -6361156.22149  -4660176.79145  24559893.719    24559905.188
  24129281.755   -10166778.69049  -7902520.04045  24129282.276    24129289.761
  23923972.952   -10541288.78749  -7164290.22445  23923973.198    23923980.777
  21503567.866   -22352676.14349 -17393583.73147  21503567.910    21503574.201
  20443034.863   -24898456.50649 -19091235.72848  20443034.611    20443041.123
  20625180.389   -27588442.51149 -21164407.30648  20625180.365    20625187.119
  22727738.375   -14402083.03749 -10907025.75646  22727738.884    22727745.606
 04  5 22  2 26  0.0000000  0  7G27G 4G25G16G20G 1G13
  24544072.342    -6444296.64149  -4724961.36645  24544072.483    24544083.979
  24128141.763   -10172768.35649  -7907187.31845  24128142.326    24128150.194
  23940725.789   -10453252.12649  -7095690.27645  23940726.021    23940733.604
  21498061.729   -22381610.90649 -17416130.27247  21498061.801    21498068.036
  20449389.754   -24865061.47949 -19065213.64548  20449389.492    20449396.003
  20621247.102   -27609111.98349 -21180513.37748  20621247.088    20621253.856
  22713587.968   -14476444.09749 -10964969.38846  22713588.480    22713595.122
 04  5 22  2 26 30.0000000  0  7G27G 4G25G16G20G 1G13
  24528278.594    -6527292.25449  -4789633.11345  24528278.637    24528290.198
  24127102.392   -10178227.82149  -7911441.43845  24127103.024    24127111.638
  23957484.562   -10365184.17949  -7027065.96145  23957484.839    23957492.434
  21492663.147   -22409980.61249 -17438236.50647  21492663.239    21492669.477
  20455850.824   -24831108.35849 -19038756.69448  20455850.569    20455857.078
  20617356.424   -27629557.70749 -21196445.09848  20617356.381    20617363.175
  22699455.378   -14550711.41949 -11022839.98746  22699455.854    22699462.474
 04  5 22  2 27  0.0000000  0  7G27G 4G25G16G20G 1G13
  24512512.669    -6610142.35549  -4854191.48845  24512512.541    24512524.114
  24126164.193   -10183156.98949  -7915282.34045  24126164.934    24126173.937
  23974249.004   -10277086.44249  -6958418.40445  23974249.342    23974256.856
  21487372.327   -22437784.11549 -17459901.54547  21487372.411    21487378.639
  20462417.995   -24796597.81749 -19011865.39148  20462417.723    20462424.258
  20613508.364   -27649779.21449 -21212202.10948  20613508.325    20613515.131
  22685340.640   -14624884.43249 -11080637.09046  22685341.145    22685347.727
 04  5 22  2 27 30.0000000  0  7G27G 4G25G16G20G 1G13
  24496774.127    -6692847.69449  -4918637.04645  24496774.137    24496785.802
  24125326.725   -10187558.11449  -7918711.78645  24125327.443    24125336.598
  23991018.690   -10188961.69549  -6889749.81745  23991018.993    23991026.556
  21482189.198   -22465021.68049 -17481125.59047  21482189.260    21482195.486
  20469090.824   -24761531.95749 -18984541.36448  20469090.553    20469097.099
  20609702.850   -27669777.14949 -21227784.90548  20609702.820    20609709.640
  22671243.729   -14698963.71449 -11138361.14546  22671244.295    22671250.848
 04  5 22  2 28  0.0000000  0  7G27G 4G25G16G20G 1G13
  24481063.371    -6775406.41449  -4982968.37345  24481063.602    24481075.296
  24124590.246   -10191430.09049  -7921728.90945  24124590.803    24124599.924
  24007793.485   -10100809.66449  -6821059.94445  24007793.820    24007801.300
  21477114.209   -22491690.73949 -17501906.65047  21477114.293    21477120.528
  20475869.431   -24725910.14049 -18956784.11848  20475869.171    20475875.718
  20605940.241   -27689549.78449 -21243192.15148  20605940.224    20605947.058
  22657165.052   -14772947.59449 -11196010.87746  22657165.640    22657172.137
 04  5 22  2 28 30.0000000  0  7G27G 4G25G16G20G 1G13
  24465380.891    -6857817.33549  -5047184.48945  24465381.149    24465392.766
  24123954.409   -10194772.70949  -7924333.56245  24123954.913    24123963.669
  24024573.356   -10012630.97349  -6752349.33245  24024573.733    24024581.148
  21472147.745   -22517789.49149 -17522243.30847  21472147.841    21472154.058
  20482753.831   -24689732.45249 -18928593.73648  20482753.555    20482760.107
  20602220.749   -27709095.74449 -21258422.76248  20602220.719    20602227.566
  22643104.832   -14846834.70849 -11253585.20046  22643105.355    22643111.850
 04  5 22  2 29  0.0000000  0  7G27G 4G25G16G20G 1G13
  24449726.576    -6940080.79149  -5111285.71145  24449726.767    24449738.493
  24123418.871   -10197587.54349  -7926526.94345  24123419.354    24123427.848
  24041357.961    -9924428.10949  -6683619.83645  24041358.234    24041365.585
  21467289.892   -22543317.97149 -17542135.59847  21467289.955    21467296.114
  20489743.711   -24653000.56649 -18899971.50448  20489743.416    20489749.982
  20598544.336   -27728415.50249 -21273477.10948  20598544.314    20598551.131
  22629062.922   -14920625.42749 -11311084.39946  22629063.436    22629069.861
 04  5 22  2 29 30.0000000  0  7G27G 4G25G16G20G 1G13
  24434100.468    -7022195.62949  -5175271.15745  24434100.694    24434112.332
  24122983.664   -10199874.51549  -7928309.00445  24122984.195    24122992.597
  24058146.892    -9836201.58749  -6614871.92845  24058147.201    24058154.582
  21462540.819   -22568274.38949 -17561582.13747  21462540.862    21462547.022
  20496838.974   -24615714.51049 -18870917.45548  20496838.724    20496845.306
  20594911.165   -27747507.90449 -21288354.29848  20594911.150    20594917.947
  22615039.528   -14994318.35249 -11368507.41146  22615040.084    22615046.458
 04  5 22  2 30  0.0000000  0  7G27G 4G25G16G20G 1G13
  24418502.825    -7104161.14849  -5239140.23645  24418503.162    24418514.681
  24122648.879   -10201633.84249  -7929679.91945  24122649.427    24122657.696
  24074940.163    -9747952.49349  -6546106.41545  24074940.406    24074947.781
  21457900.799   -22592657.59749 -17580582.00647  21457900.844    21457907.038
  20504039.665   -24577875.04949 -18841432.18748  20504039.379    20504045.967
  20591321.504   -27766371.80749 -21303053.43148  20591321.475    20591328.277
  22601034.939   -15067912.81549 -11425853.68746  22601035.519    22601041.877
 04  5 22  2 30 30.0000000  0  7G27G 4G25G16G20G 1G13
  24402933.736    -7185977.70249  -5302893.24045  24402934.001    24402945.435
  24122414.502   -10202866.69849  -7930640.58145  24122414.900    24122423.210
  24091737.293    -9659682.97249  -6477324.99645  24091737.577    24091745.000
  21453369.937   -22616467.35549 -17599135.03447  21453369.971    21453376.143
  20511345.272   -24539483.67849 -18811516.85748  20511345.011    20511351.611
  20587775.172   -27785007.70049 -21317574.89348  20587775.150    20587781.940
  22587049.088   -15141408.92049 -11483123.34146  22587049.651    22587055.976
 04  5 22  2 31  0.0000000  0  7G27G 4G25G16G20G 1G13
  24387393.058    -7267644.11749  -5366529.26045  24387393.309    24387404.684
  24122280.080   -10203573.43149  -7931191.30345  24122280.563    24122288.757
  24108538.171    -9571393.79349  -6408528.25445  24108538.516    24108545.921
  21448948.477   -22639702.16749 -17617240.05747  21448948.512    21448954.643
  20518755.923   -24500540.67549 -18781171.67948  20518755.661    20518762.246
  20584272.489   -27803414.39849 -21331917.76648  20584272.485    20584279.276
  22573082.116   -15214805.54549 -11540315.46446  22573082.650    22573089.021
 04  5 22  2 31 30.0000000  0  7G27G 4G25G16G20G 1G13
  24371881.151    -7349159.12249  -5430047.29845  24371881.488    24371892.715
  24122245.813   -10203753.59749  -7931331.69745  24122246.307    24122254.468
  24125342.905    -9483085.00149  -6339716.22945  24125343.232    24125350.523
  21444636.810   -22662360.17049 -17634895.61547  21444636.807    21444642.928
  20526271.467   -24461046.24949 -18750396.83148  20526271.208    20526277.782
  20580813.722   -27821590.40649 -21346080.88048  20580813.689    20580820.493
  22559134.317   -15288101.29549 -11597428.98046  22559134.886    22559141.264
 04  5 22  2 32  0.0000000  0  7G27G 4G25G16G20G 1G13
  24356398.047    -7430523.49449  -5493447.96845  24356398.257    24356409.437
  24122311.430   -10203409.33349  -7931063.45145  24122311.871    24122320.003
  24142150.651    -9394759.84549  -6270891.47945  24142150.947    24142158.368
  21440434.768   -22684441.70849 -17652101.98547  21440434.786    21440440.983
  20533891.579   -24421002.45249 -18719193.89948  20533891.303    20533897.866
  20577398.696   -27839536.39849 -21360064.75748  20577398.673    20577405.459
  22545205.783   -15361296.51249 -11654464.16546  22545206.269    22545212.653
 04  5 22  2 32 30.0000000  0  7G27G 4G25G16G20G 1G13
  24340943.845    -7511735.29649  -5556729.74645  24340944.065    24340955.260
  24122476.858   -10202540.12249  -7930386.15245  24122477.296    24122485.546
  24158961.657    -9306417.99949  -6202053.71845  24158961.909    24158969.313
  21436342.890   -22705944.72249 -17668857.55847  21436342.889    21436349.074
  20541616.267   -24380408.90449 -18687562.58448  20541616.005    20541622.583
  20574027.832   -27857250.43149 -21373867.89048  20574027.807    20574034.599
  22531296.630   -15434389.19449 -11711419.45346  22531297.138    22531303.518
 04  5 22  2 33  0.0000000  0  7G27G 4G25G16G20G 1G13
  24325518.745    -7592795.02549  -5619893.01445  24325518.784    24325529.941
  24122741.809   -10201147.12049  -7929300.71745  24122742.243    24122750.675
  24175775.363    -9218061.55449  -6133204.58845  24175775.659    24175783.041
  21432361.083   -22726869.03249 -17685162.19347  21432361.085    21432367.232
  20549445.250   -24339267.40949 -18655504.30948  20549444.995    20549451.600
  20570700.964   -27874732.98049 -21387490.65048  20570700.950    20570707.761
  22517406.989   -15507379.71049 -11768295.12346  22517407.483    22517413.896
 04  5 22  2 33 30.0000000  0  7G27G 4G25G16G20G 1G13
  24310122.666    -7673701.47249  -5682936.85745  24310122.732    24310133.847
  24123106.608   -10199230.67149  -7927807.40345  24123106.940    24123115.255
  24192591.757    -9129691.25049  -6064344.64145  24192591.937    24192599.330
  21428489.721   -22747213.09849 -17701014.68647  21428489.735    21428495.854
  20557378.449   -24297578.25749 -18623019.27148  20557378.183    20557384.815
  20567418.421   -27891982.75949 -21400932.03148  20567418.403    20567425.249
  22503537.002   -15580266.79349 -11825090.20946  22503537.515    22503543.873
 04  5 22  2 34  0.0000000  0  7G27G 4G25G16G20G 1G13
  24294756.000    -7754453.72449  -5745860.56245  24294756.031    24294767.070
  24123570.867   -10196790.75849  -7925906.18045  24123571.309    24123579.426
  24209410.501    -9041307.64149  -5995474.33845  24209410.763    24209418.173
  21424729.016   -22766975.70649 -17716414.10447  21424729.029    21424735.152
  20565415.778   -24255341.98249 -18590107.90348  20565415.519    20565422.142
  20564180.430   -27908998.52149 -21414191.06348  20564180.424    20564187.277
  22489687.007   -15653048.91749 -11881803.50946  22489687.503    22489693.885
 04  5 22  2 34 30.0000000  0  7G27G 4G25G16G20G 1G13
  24279418.570    -7835052.21549  -5808664.44745  24279418.618    24279429.534
  24124134.325   -10193829.14349  -7923598.45745  24124134.838    24124142.898
  24226231.437    -8952912.96449  -5926595.41645  24226231.679    24226239.173
  21421078.910   -22786156.89249 -17731360.45847  21421078.936    21421085.071
  20573556.832   -24212560.50549 -18556771.70148  20573556.563    20573563.186
  20560986.895   -27925780.63749 -21427268.02548  20560986.875    20560993.742
  22475856.803   -15725726.84949 -11938435.62346  22475857.328    22475863.687
 04  5 22  2 35  0.0000000  0  7G27G 4G25G16G20G 1G13
  24264110.775    -7915494.97249  -5871346.98445  24264110.876    24264121.493
  24124797.423   -10190345.30849  -7920883.80045  24124797.840    24124805.846
  24243054.532    -8864506.54749  -5857707.34645  24243054.812    24243062.319
  21417539.924   -22804754.36149 -17745851.96847  21417539.955    21417546.066
  20581801.726   -24169233.44049 -18523010.38248  20581801.465    20581808.058
  20557838.224   -27942327.00849 -21440161.30048  20557838.195    20557845.048
  22462046.931   -15798298.10949 -11994984.61746  22462047.468    22462053.774
 04  5 22  2 35 30.0000000  0  7G27G 4G25G16G20G 1G13
  24248832.256    -7995783.43749  -5933909.29245  24248832.423    24248842.856
  24125559.458   -10186341.73949  -7917764.15845  24125559.852    24125567.641
  24259879.262    -8776091.94749  -5788812.89745  24259879.584    24259887.093
  21414111.816   -22822769.31649 -17759889.57847  21414111.839    21414117.961
  20590149.861   -24125363.75949 -18488826.23548  20590149.596    20590156.228
  20554734.183   -27958638.91949 -21452871.87248  20554734.154    20554740.968
  22448257.040   -15870764.06249 -12051451.55546  22448257.595    22448263.836
 04  5 22  2 36  0.0000000  0  7G27G 4G25G16G20G 1G13
  24233583.410    -8075915.51149  -5996349.72745  24233583.669    24233593.997
  24126420.410   -10181817.81849  -7914239.03645  24126420.687    24126428.413
  24276705.826    -8687668.72249  -5719911.72345  24276706.036    24276713.501
  21410794.945   -22840199.38649 -17773471.42447  21410794.975    21410801.129
  20598601.380   -24080950.58749 -18454218.59148  20598601.135    20598607.810
  20551675.205   -27974713.91949 -21465397.83948  20551675.191    20551681.981
  22434487.610   -15943122.24649 -12107834.50546  22434488.187    22434494.483
 04  5 22  2 36 30.0000000  0  7G27G 4G25G16G20G 1G13
  24218364.286    -8155891.89849  -6058668.84145  24218364.456    24218374.866
  24127379.961   -10176775.18049  -7910309.73045  24127380.262    24127387.922
  24293533.506    -8599239.00349  -5651005.49145  24293533.716    24293541.022
  21407589.266   -22857045.01249 -17786597.86647  21407589.334    21407595.475
  20607155.942   -24035996.22149 -18419189.24048  20607155.693    20607162.373
  20548661.217   -27990552.45749 -21477739.55048  20548661.218    20548668.012
  22420738.777   -16015372.87549 -12164133.65346  22420739.316    22420745.603
 04  5 22  2 37  0.0000000  0  7G27G 4G25G16G20G 1G13
  24203175.038    -8235710.53449  -6120865.03745  24203175.290    24203185.772
  24128438.522   -10171213.22249  -7905975.74645  24128438.849    24128446.350
  24310362.465    -8510802.47149  -5582093.95345  24310362.676    24310369.977
  21404495.267   -22873304.16249 -17799267.31147  21404495.336    21404501.422
  20615813.533   -23990500.38549 -18383737.95648  20615813.269    20615819.933
  20545692.596   -28006152.73549 -21489895.61048  20545692.593    20545699.369
  22407010.719   -16087513.86649 -12220347.37146  22407011.259    22407017.592
 04  5 22  2 37 30.0000000  0  7G27G 4G25G16G20G 1G13
  24188015.698    -8315372.55449  -6182939.20445  24188015.886    24188026.468
  24129595.305   -10165134.35049  -7901238.99345  24129595.648    24129603.064
  24327192.210    -8422361.71849  -5513179.11245  24327192.435    24327199.638
  21401512.813   -22888977.41749 -17811480.21647  21401512.851    21401518.939
  20624573.676   -23944465.58649 -18347866.70448  20624573.415    20624580.080
  20542769.114   -28021515.44949 -21501866.55348  20542769.107    20542775.912
  22393303.383   -16159546.05849 -12276476.30746  22393303.918    22393310.314
 04  5 22  2 38  0.0000000  0  7G27G 4G25G16G20G 1G13
  24172886.650    -8394875.99949  -6244889.80045  24172886.839    24172897.412
  24130850.339   -10158538.18149  -7896099.14645  24130850.730    24130858.370
  24344022.841    -8333916.48249  -5444260.76045  24344023.063    24344030.301
  21398642.165   -22904062.63549 -17823234.91147  21398642.198    21398648.265
  20633436.486   -23897891.39349 -18311575.15248  20633436.239    20633442.896
  20539891.265   -28036638.55949 -21513650.78848  20539891.269    20539898.097
  22379617.115   -16231467.25549 -12332518.76146  22379617.703    22379624.063
 04  5 22  2 38 30.0000000  0  7G27G 4G25G16G20G 1G13
  24157787.679    -8474221.84049  -6306717.59945  24157787.832    24157798.176
  24132203.490   -10151426.83349  -7890557.86545  24132204.003    24132211.552
  24360853.801    -8245469.39449  -5375340.99745  24360854.002    24360861.400
  21395883.287   -22918560.59849 -17834531.99947  21395883.298    21395889.330
  20642401.410   -23850780.50749 -18274865.39448  20642401.153    20642407.802
  20537058.890   -28051522.77049 -21525248.87548  20537058.900    20537065.754
  22365952.007   -16303277.84849 -12388475.02146  22365952.573    22365958.888
 04  5 22  2 39  0.0000000  0  7G27G 4G25G16G20G 1G13
  24142718.942    -8553408.51749  -6368421.36445  24142718.983    24142729.209
  24133654.726   -10143799.99049  -7884614.89845  24133655.378    24133662.877
  24377685.111    -8157020.38349  -5306419.70445  24377685.230    24377692.623
  21393236.445   -22932469.67349 -17845370.21347  21393236.471    21393242.502
  20651468.471   -23803132.83849 -18237737.36248  20651468.226    20651474.889
  20534272.343   -28066166.12049 -21536659.27148  20534272.339    20534279.204
  22352308.318   -16374976.10949 -12444343.76546  22352308.898    22352315.100
 04  5 22  2 39 30.0000000  0  7G27G 4G25G16G20G 1G13
  24127680.404    -8632436.08749  -6430001.14245  24127680.494    24127690.662
  24135203.869   -10135659.32349  -7878271.52945  24135204.456    24135212.081
  24394516.402    -8068571.06449  -5237498.19145  24394516.568    24394524.047
  21390701.744   -22945789.63049 -17855749.37547  21390701.785    21390707.744
  20660637.352   -23754950.11349 -18200192.40648  20660637.109    20660643.803
  20531531.676   -28080568.45149 -21547881.86248  20531531.686    20531538.527
  22338686.077   -16446561.60449 -12500124.63146  22338686.649    22338692.766
 04  5 22  2 40  0.0000000  0  7G27G 4G25G16G20G 1G13
  24112672.391    -8711303.56649  -6491456.19845  24112672.475    24112682.542
  24136850.466   -10127005.21949  -7871528.11245  24136851.047    24136858.957
  24411347.779    -7980122.06749  -5168576.93045  24411347.945    24411355.458
  21388279.304   -22958519.38649 -17865668.64247  21388279.342    21388285.331
  20669907.946   -23706232.98349 -18162231.02148  20669907.701    20669914.403
  20528837.087   -28094728.70949 -21558915.82648  20528837.092    20528843.911
  22325085.500   -16518033.05849 -12555816.63446  22325086.094    22325092.148
 04  5 22  2 40 30.0000000  0  7G27G 4G25G16G20G 1G13
  24097694.854    -8790010.82749  -6552786.42045  24097694.973    24097704.852
  24138594.372   -10117838.87849  -7864385.53445  24138595.099    24138603.268
  24428178.735    -7891674.76049  -5099656.95545  24428178.973    24428186.505
  21385969.229   -22970658.73749 -17875127.85247  21385969.282    21385975.317
  20679279.921   -23656982.90449 -18123854.35948  20679279.663    20679286.369
  20526188.658   -28108646.32549 -21569760.72348  20526188.645    20526195.492
  22311506.699   -16589389.97449 -12611419.39846  22311507.305    22311513.353
 04  5 22  2 41  0.0000000  0  7G27G 4G25G16G20G 1G13
  24082747.830    -8868557.31049  -6613991.35945  24082747.971    24082757.772
  24140436.091   -10108161.19049  -7856844.51645  24140436.704    24140444.926
  24445009.224    -7803230.04049  -5030739.01645  24445009.502    24445016.979
  21383771.691   -22982207.11849 -17884126.56447  21383771.713    21383777.721
  20688753.090   -23607201.21649 -18085063.46148  20688752.854    20688759.545
  20523586.537   -28122320.52649 -21580415.94048  20523586.547    20523593.395
  22297949.834   -16660631.55549 -12666932.27746  22297950.430    22297956.560
 04  5 22  2 41 30.0000000  0  7G27G 4G25G16G20G 1G13
  24067831.522    -8946942.18449  -6675070.37845  24067831.627    24067841.463
  24142374.823   -10097972.93449  -7848905.65145  24142375.411    24142383.638
  24461839.060    -7714788.65749  -4961823.69345  24461839.340    24461846.874
  21381686.637   -22993163.75449 -17892664.18247  21381686.676    21381692.685
  20698327.294   -23556888.73249 -18045858.96448  20698327.046    20698333.695
  20521030.955   -28135750.30549 -21590880.70248  20521030.946    20521037.783
  22284415.241   -16731756.51249 -12722354.28546  22284415.780    22284421.935
 04  5 22  2 42  0.0000000  0  7G27G 4G25G16G20G 1G13
  24052946.020    -9025165.49749  -6736023.49445  24052946.152    24052956.004
  24144410.564   -10087275.48749  -7840569.99545  24144411.141    24144419.397
  24478667.977    -7626352.09849  -4892912.13145  24478668.280    24478675.819
  21379714.261   -23003528.45049 -17900740.54547  21379714.352    21379720.322
  20708002.159   -23506047.14249 -18006242.17848  20708001.908    20708008.540
  20518521.878   -28148935.47549 -21601154.85548  20518521.873    20518528.733
  22270902.843   -16802764.49449 -12777685.14546  22270903.385    22270909.572
 04  5 22  2 42 30.0000000  0  7G27G 4G25G16G20G 1G13
  24038091.327    -9103227.08949  -6796850.59945  24038091.476    24038101.389
  24146542.812   -10076070.02849  -7831838.49045  24146543.397    24146551.851
  24495495.848    -7537921.66649  -4824005.34745  24495496.101    24495503.712
  21377854.648   -23013300.89349 -17908355.41747  21377854.699    21377860.639
  20717777.537   -23454677.51649 -17966213.92748  20717777.291    20717783.899
  20516059.491   -28161875.35349 -21611237.87248  20516059.498    20516066.349
  22257412.918   -16873654.75749 -12832924.28346  22257413.403    22257419.531
 04  5 22  2 43  0.0000000  0  7G27G 4G25G16G20G 1G13
  24023267.518    -9181126.38949  -6857551.24245  24023267.648    24023277.565
  24148771.580   -10064357.46649  -7822711.84745  24148772.263    24148780.749
  24512322.272    -7449498.29949  -4755104.07745  24512322.532    24512330.059
  21376107.761   -23022480.69849 -17915508.49447  21376107.818    21376113.764
  20727653.053   -23402781.40649 -17925775.41948  20727652.795    20727659.427
  20513643.949   -28174569.08249 -21621129.08448  20513643.970    20513650.835
  22243945.549   -16944426.23349 -12888070.84946  22243946.027    22243952.154
 04  5 22  2 43 30.0000000  0  7G27G 4G25G16G20G 1G13
  24008474.783    -9258862.10849  -6918124.41845  24008474.879    24008484.835
  24151097.154   -10052138.33549  -7813190.47145  24151097.732    24151106.055
  24529147.359    -7361081.98949  -4686208.29045  24529147.625    24529155.250
  21374473.956   -23031066.49749 -17922198.70947  21374474.000    21374479.912
  20737628.639   -23350359.42749 -17884927.15248  20737628.389    20737635.038
  20511275.531   -28187015.19949 -21630827.35748  20511275.539    20511282.419
  22230501.041   -17015077.59549 -12943123.82046  22230501.504    22230507.623
 04  5 22  2 44  0.0000000  0  7G27G 4G25G16G20G 1G13
  23993712.956    -9336435.31249  -6978570.96345  23993713.058    23993723.014
  24153518.546   -10039415.03449  -7803276.25645  24153519.066    24153527.116
  24545970.685    -7272675.16049  -4617319.88245  24545970.908    24545978.608
  21372952.948   -23039059.55649 -17928427.04647  21372952.983    21372958.885
  20747703.779   -23297414.26849 -17843671.21448  20747703.524    20747710.169
  20508954.119   -28199214.39649 -21640333.21948  20508954.117    20508961.003
  22217079.276   -17085609.00949 -12998083.33046  22217079.786    22217085.942
 04  5 22  2 44 30.0000000  0  7G27G 4G25G16G20G 1G13
  23978982.330    -9413844.34549  -7038889.58345  23978982.456    23978992.521
  24156035.564   -10026187.46249  -7792969.08245  24156036.154    24156044.277
  24562792.131    -7184277.70949  -4548438.78845  24562792.423    24562799.945
  21371545.047   -23046458.10249 -17934192.12947  21371545.057    21371550.959
  20757878.486   -23243946.06449 -17802007.70348  20757878.190    20757884.881
  20506680.051   -28211164.83049 -21649645.24448  20506680.031    20506686.925
  22203680.706   -17156018.71749 -13052948.00246  22203681.221    22203687.415
 04  5 22  2 45  0.0000000  0  7G27G 4G25G16G20G 1G13
  23964283.293    -9491087.96449  -7099079.30245  23964283.412    23964293.442
  24158648.539   -10012455.81149  -7782269.11545  24158649.215    24158657.546
  24579611.757    -7095890.09849  -4479565.32645  24579612.068    24579619.634
  21370250.432   -23053261.06449 -17939493.12147  21370250.463    21370256.367
  20768152.627   -23189955.14349 -17759936.88548  20768152.347    20768159.067
  20504453.575   -28222864.94449 -21658762.21048  20504453.572    20504460.451
  22190305.639   -17226304.89649 -13107716.42146  22190306.201    22190312.335
 04  5 22  2 45 30.0000000  0  7G27G 4G25G16G20G 1G13
  23949615.375    -9568168.16949  -7159141.67845  23949615.486    23949625.472
  24161356.831    -9998223.74549  -7771179.23945  24161357.421    24161365.817
  24596428.738    -7007515.41249  -4410701.98245  24596429.186    24596436.637
  21369068.848   -23059470.39749 -17944331.54647  21369068.852    21369074.756
  20778525.460   -23135445.48349 -17717461.84848  20778525.206    20778531.933
  20502274.492   -28234316.18349 -21667685.24348  20502274.461    20502281.343
  22176953.875   -17296468.78149 -13162389.54846  22176954.444    22176960.513
 04  5 22  2 46  0.0000000  0  7G27G 4G25G16G20G 1G13
  23934978.909    -9645082.97949  -7219075.18045  23934978.969    23934988.844
  24164160.343    -9983490.81849  -7759699.07245  24164161.019    24164169.289
  24613243.522    -6919152.78149  -4341848.02245  24613244.006    24613251.550
  21368000.571   -23065084.27649 -17948705.97547  21368000.591    21368006.456
  20788997.144   -23080416.57549 -17674582.20248  20788996.877    20789003.617
  20500143.190   -28245516.22649 -21676412.54248  20500143.166    20500150.035
  22163625.927   -17366507.94549 -13216965.48746  22163626.431    22163632.476
 04  5 22  2 46 30.0000000  0  7G27G 4G25G16G20G 1G13
  23920373.979    -9721831.73349  -7278879.29145  23920374.070    23920383.963
  24167059.200    -9968258.08549  -7747829.42845  24167059.853    24167068.072
  24630055.888    -6830803.17849  -4273004.20245  24630056.346    24630063.934
  21367045.713   -23070102.11049 -17952615.96147  21367045.712    21367051.559
  20799567.340   -23024870.05649 -17631299.22948  20799567.079    20799573.811
  20498059.874   -28256464.09049 -21684943.33548  20498059.858    20498066.736
  22150321.790   -17436421.53749 -13271443.57746  22150322.282    22150328.293
 04  5 22  2 47  0.0000000  0  7G27G 4G25G16G20G 1G13
  23905800.422    -9798415.84449  -7338555.10446  23905800.529    23905810.475
  24170052.510    -9952528.31249  -7735572.50545  24170053.170    24170061.419
  24646865.339    -6742469.13349  -4204172.50045  24646865.730    24646873.353
  21366203.974   -23074525.45649 -17956062.71047  21366203.975    21366209.831
  20810235.455   -22968808.81749 -17587615.18847  20810235.184    20810241.907
  20496024.347   -28267160.81349 -21693278.43748  20496024.318    20496031.192
  22137041.390   -17506210.24049 -13325824.35146  22137041.875    22137047.857
 04  5 22  2 47 30.0000000  0  7G27G 4G25G16G20G 1G13
  23891258.671    -9874833.06849  -7398100.87446  23891258.716    23891268.724
  24173140.480    -9936301.22549  -7722928.07245  24173141.023    24173149.283
  24663671.906    -6654150.22949  -4135352.59145  24663672.305    24663679.875
  21365475.647   -23078352.60349 -17959044.88447  21365475.679    21365481.528
  20821001.553   -22912232.65849 -17543529.90947  20821001.291    20821008.026
  20494037.077   -28277603.94049 -21701415.93448  20494037.053    20494043.934
  22123785.327   -17575871.31349 -13380105.67846  22123785.802    22123791.769
 04  5 22  2 48  0.0000000  0  7G27G 4G25G16G20G 1G13
  23876748.475    -9951084.20749  -7457517.24845  23876748.521    23876758.463
  24176322.960    -9919579.18049  -7709897.93045  24176323.408    24176331.188
  24680475.244    -6565848.36549  -4066545.95345  24680475.702    24680483.115
  21364860.731   -23081584.14449 -17961562.95447  21364860.745    21364866.623
  20831865.193   -22855144.07549 -17499045.33347  20831864.920    20831871.659
  20492097.978   -28287793.90249 -21709356.16348  20492097.956    20492104.824
  22110553.482   -17645404.97049 -13434287.72046  22110553.962    22110559.909
 04  5 22  2 48 30.0000000  0  7G27G 4G25G16G20G 1G13
  23862269.981   -10027168.48249  -7516803.60045  23862270.114    23862279.960
  24179599.143    -9902362.87149  -7696482.66645  24179599.552    24179607.337
  24697275.151    -6477564.25649  -3997753.15645  24697275.631    24697283.202
  21364359.228   -23084219.62949 -17963616.55447  21364359.222    21364365.088
  20842826.077   -22797544.25849 -17454162.37947  20842825.802    20842832.555
  20490207.329   -28297729.37049 -21717098.08048  20490207.315    20490214.153
  22097346.139   -17714809.65449 -13488369.25747  22097346.655    22097352.605
 04  5 22  2 49  0.0000000  0  7G27G 4G25G16G20G 1G13
  23847823.565   -10103084.69449  -7575958.97445  23847823.645    23847833.517
  24182969.117    -9884652.75649  -7682682.63645  24182969.698    24182977.636
  24714071.683    -6389297.71249  -3928974.08145  24714072.183    24714079.844
  21363971.243   -23086258.23349 -17965205.06147  21363971.270    21363977.153
  20853884.152   -22739433.89749 -17408881.61147  20853883.876    20853890.621
  20488365.377   -28307408.92149 -21724640.58448  20488365.350    20488372.183
  22084163.732   -17784083.69649 -13542349.00347  22084164.232    22084170.142
 04  5 22  2 49 30.0000000  0  7G27G 4G25G16G20G 1G13
  23833409.035   -10178833.87349  -7634984.20546  23833409.044    23833418.797
  24186432.879    -9866451.77449  -7668500.09645  24186433.400    24186441.190
  24730864.633    -6301050.89049  -3860210.36545  24730864.999    24730872.732
  21363696.737   -23087700.77749 -17966329.09947  21363696.760    21363702.638
  20865038.838   -22680815.78249 -17363205.18347  20865038.574    20865045.323
  20486572.083   -28316832.78949 -21731983.85248  20486572.061    20486578.887
  22071006.080   -17853227.47449 -13596227.23047  22071006.570    22071012.505
 04  5 22  2 50  0.0000000  0  7G27G 4G25G16G20G 1G13
  23819026.361   -10254414.68949  -7693878.24946  23819026.391    23819036.114
  24189989.720    -9847760.09949  -7653935.20945  24189990.199    24189997.967
  24747653.640    -6212823.83449  -3791462.06245  24747654.036    24747661.762
  21363535.806   -23088546.54349 -17966988.12347  21363535.782    21363541.701
  20876289.978   -22621690.63549 -17317133.66247  20876289.725    20876296.483
  20484827.720   -28325999.48749 -21739126.73048  20484827.699    20484834.521
  22057873.553   -17922239.18649 -13650002.55747  22057874.042    22057879.969
 04  5 22  2 50 30.0000000  0  7G27G 4G25G16G20G 1G13
  23804675.706   -10329827.10449  -7752641.06045  23804675.796    23804685.544
  24193639.546    -9828579.55849  -7638989.37545  24193640.102    24193647.952
  24764438.567    -6124617.91649  -3722730.23245  24764438.975    24764446.810
  21363488.313   -23088795.86849 -17967182.38247  21363488.305    21363494.280
  20887637.254   -22562060.37549 -17270668.55847  20887637.010    20887643.767
  20483132.355   -28334908.49149 -21746068.80948  20483132.343    20483139.161
  22044766.351   -17991117.95549 -13703674.29947  22044766.876    22044772.784
 04  5 22  2 51  0.0000000  0  7G27G 4G25G16G20G 1G13
  23790357.271   -10405070.83349  -7811272.43045  23790357.298    23790367.048
  24197382.464    -9808911.41749  -7623663.58045  24197382.901    24197390.788
  24781219.434    -6036433.89549  -3654015.45945  24781219.938    24781227.789
  21363554.343   -23088448.48349 -17966911.67247  21363554.339    21363560.362
  20899080.420   -22501926.42849 -17223810.96447  20899080.168    20899086.950
  20481486.178   -28343559.00349 -21752809.46348  20481486.162    20481493.038
  22031684.616   -18059862.83049 -13757241.70247  22031685.132    22031691.059
 04  5 22  2 51 30.0000000  0  7G27G 4G25G16G20G 1G13
  23776071.140   -10480144.72249  -7869771.47545  23776071.139    23776080.866
  24201217.637    -9788756.26849  -7607958.31845  24201218.165    24201226.423
  24797996.365    -5948271.49249  -3585317.50745  24797996.724    24798004.591
  21363734.114   -23087503.68049 -17966175.44347  21363734.125    21363740.119
  20910619.268   -22441289.65349 -17176561.56247  20910619.000    20910625.780
  20479889.511   -28351949.41749 -21759347.44348  20479889.518    20479896.395
  22018628.675   -18128472.25649 -13810703.56147  22018629.190    22018635.124
 04  5 22  2 52  0.0000000  0  7G27G 4G25G16G20G 1G13
  23761817.001   -10555049.94249  -7928139.08045  23761817.047    23761826.738
  24205145.181    -9768117.32049  -7591876.07545  24205145.677    24205153.925
  24814768.401    -5860133.61049  -3516638.73145  24814768.751    24814776.808
  21364027.224   -23085963.29949 -17964975.12847  21364027.232    21364033.220
  20922253.181   -22380153.29449 -17128922.86347  20922252.896    20922259.671
  20478342.173   -28360080.72349 -21765683.52448  20478342.169    20478349.063
  22005598.334   -18196946.88449 -13864060.38447  22005598.891    22005604.856
 04  5 22  2 52 30.0000000  0  7G27G 4G25G16G20G 1G13
  23747595.008   -10629786.10649  -7986374.95145  23747595.092    23747604.769
  24209164.560    -9746995.59149  -7575417.64145  24209165.024    24209173.573
  24831535.858    -5772020.83449  -3447979.43445  24831536.245    24831544.240
  21364433.691   -23083826.89549 -17963310.37647  21364433.710    21364439.761
  20933981.837   -22318518.75549 -17080895.97647  20933981.556    20933988.322
  20476844.388   -28367951.79149 -21771816.82148  20476844.366    20476851.251
  21992593.949   -18265285.25049 -13917311.02047  21992594.474    21992600.458
 04  5 22  2 53  0.0000000  0  7G27G 4G25G16G20G 1G13
  23733405.689   -10704351.20749  -8044477.53645  23733405.785    23733415.421
  24213275.881    -9725391.07849  -7558582.99745  24213276.418    24213284.624
  24848298.517    -5683932.40149  -3379339.15245  24848298.920    24848306.834
  21364953.910   -23081092.83349 -17961179.92547  21364953.980    21364960.028
  20945805.355   -22256386.10949 -17032480.96847  20945805.061    20945811.789
  20475396.553   -28375560.17049 -21777745.43248  20475396.538    20475403.418
  21979615.912   -18333484.85349 -13970453.53947  21979616.448    21979622.465
 04  5 22  2 53 30.0000000  0  7G27G 4G25G16G20G 1G13
  23719248.630   -10778746.72749  -8102447.98845  23719248.716    23719258.268
  24217478.302    -9703306.91949  -7541374.59445  24217478.888    24217487.064
  24865056.124    -5595870.88449  -3310719.79845  24865056.400    24865064.440
  21365587.510   -23077763.13349 -17958585.33747  21365587.561    21365593.621
  20957722.897   -22193758.82849 -16983680.53047  20957722.631    20957729.367
  20473998.481   -28382907.03549 -21783470.26348  20473998.476    20474005.349
  21966664.157   -18401546.57749 -14023488.61347  21966664.705    21966670.743
 04  5 22  2 54  0.0000000  0  7G27G 4G25G16G20G 1G13
  23705124.129   -10852970.99549  -8160285.01046  23705124.244    23705133.722
  24221772.119    -9680743.33349  -7523792.62445  24221772.606    24221781.157
  24881808.689    -5507836.08649  -3242121.30245  24881809.052    24881816.862
  21366334.696   -23073836.67649 -17955525.74047  21366334.734    21366340.829
  20969734.541   -22130637.26349 -16934494.92147  20969734.285    20969741.021
  20472650.601   -28389990.08749 -21788989.52848  20472650.609    20472657.483
  21953739.199   -18469467.78249 -14076414.18947  21953739.732    21953745.768
 04  5 22  2 54 30.0000000  0  7G27G 4G25G16G20G 1G13
  23691032.260   -10927024.03449  -8217988.59646  23691032.400    23691041.807
  24226156.536    -9657702.19249  -7505838.54545  24226157.101    24226165.848
  24898555.923    -5419829.01549  -3173544.39545  24898556.228    24898564.103
  21367195.335   -23069313.81449 -17952001.41547  21367195.379    21367201.504
  20981839.925   -22067023.34849 -16884925.67247  20981839.664    20981846.373
  20471353.054   -28396808.89749 -21794302.89248  20471353.047    20471359.895
  21940841.072   -18537247.77849 -14129229.74347  21940841.651    21940847.621
 04  5 22  2 55  0.0000000  0  6G27G 4G16G20G 1G13
  23676972.900   -11000906.34349  -8275559.15946  23676972.993    23676982.335
  24230631.640    -9634185.85049  -7487514.16145  24230632.252    24230640.759
  21368169.280   -23064195.61949 -17948013.18647  21368169.314    21368175.410
  20994038.491   -22002919.63849 -16834974.76647  20994038.230    20994044.928
  20470105.765   -28403363.56149 -21799410.42248  20470105.751    20470112.588
  21927969.842   -18604886.34449 -14181935.08247  21927970.432    21927976.405
 04  5 22  2 55 30.0000000  0  6G27G 4G16G20G 1G13
  23662944.886   -11074623.89549  -8333001.35346  23662944.964    23662954.318
  24235195.772    -9610201.87349  -7468825.38045  24235196.223    24235204.895
  21369255.346   -23058488.25749 -17943565.87047  21369255.372    21369261.452
  21006328.734   -21938334.07249 -16784648.38347  21006328.461    21006335.187
  20468907.705   -28409659.48649 -21804316.34048  20468907.680    20468914.500
  21915124.523   -18672388.53749 -14234534.15547  21915125.125    21915131.121
 04  5 22  2 56  0.0000000  0  6G27G 4G16G20G 1G13
  23648950.260   -11148165.52749  -8390306.42046  23648950.362    23648959.761
  24239850.326    -9585741.41249  -7449765.33445  24239850.920    24239859.672
  21370455.461   -23052181.31649 -17938651.35047  21370455.502    21370461.594
  21018712.329   -21873257.71649 -16733939.57247  21018712.068    21018718.830
  20467761.033   -28415685.26549 -21809011.75548  20467761.034    20467767.848
  21902307.390   -18739742.91149 -14287018.05647  21902307.998    21902313.963
 04  5 22  2 56 30.0000000  0  6G27G 4G16G20G 1G13
  23634988.656   -11221533.85849  -8447476.46946  23634988.798    23634998.143
  24244595.145    -9560808.74649  -7430337.30845  24244595.636    24244604.101
  21371769.118   -23045277.88749 -17933272.03247  21371769.182    21371775.256
  21031188.505   -21807695.20749 -16682851.93347  21031188.251    21031195.035
  20466665.405   -28421442.84949 -21813498.18148  20466665.392    20466672.233
  21889518.104   -18806951.13049 -14339388.06947  21889518.661    21889524.580
 04  5 22  2 57  0.0000000  0  6G27G 4G16G20G 1G13
  23621060.127   -11294728.65149  -8504511.29046  23621060.250    23621069.551
  24249429.077    -9535405.27949  -7410542.46645  24249429.619    24249438.223
  21373196.256   -23037778.23649 -17927428.12847  21373196.304    21373202.337
  21043756.890   -21741648.14849 -16631386.72247  21043756.610    21043763.437
  20465621.048   -28426931.16549 -21817774.79148  20465621.045    20465627.879
  21876756.816   -18874011.91249 -14391643.19347  21876757.406    21876763.325
 04  5 22  2 57 30.0000000  0  6G27G 4G16G20G 1G13
  23607164.573   -11367749.27349  -8561410.39946  23607164.790    23607174.095
  24254352.397    -9509532.60349  -7390381.98045  24254353.001    24254361.708
  21374736.848   -23029682.40449 -17921119.67147  21374736.868    21374742.882
  21056417.067   -21675118.40549 -16579545.40047  21056416.806    21056423.645
  20464628.056   -28432149.44049 -21821840.98448  20464628.033    20464634.892
  21864023.887   -18940924.09349 -14443782.53047  21864024.431    21864030.333
 04  5 22  2 58  0.0000000  0  6G27G 4G16G20G 1G13
  23593301.931   -11440597.58749  -8618175.21946  23593302.127    23593311.511
  24259364.537    -9483194.34349  -7369858.68145  24259365.071    24259373.501
  21376390.373   -23020992.75449 -17914348.49947  21376390.403    21376396.437
  21069168.434   -21608109.67049 -16527330.83447  21069168.178    21069175.026
  20463686.200   -28437098.83049 -21825697.65648  20463686.175    20463693.042
  21851319.008   -19007688.58149 -14495806.77447  21851319.536    21851325.432
 04  5 22  2 58 30.0000000  0  6G27G 4G16G20G 1G13
  23579472.422   -11513271.94649  -8674804.50046  23579472.551    23579481.977
  24264464.997    -9456390.96949  -7348972.99445  24264465.580    24264474.022
  21378157.107   -23011708.28249 -17907113.82647  21378157.140    21378163.208
  21082010.764   -21540622.50749 -16474743.46547  21082010.518    21082017.433
  20462795.923   -28441777.29449 -21829343.21448  20462795.911    20462802.779
  21838642.668   -19074303.05049 -14547714.12347  21838643.172    21838649.096
 04  5 22  2 59  0.0000000  0  6G27G 4G16G20G 1G13
  23565675.823   -11585773.13349  -8731298.85846  23565676.042    23565685.298
  24269653.862    -9429124.90149  -7327726.75645  24269654.387    24269662.741
  21380036.868   -23001830.21249 -17899416.61547  21380036.918    21380042.954
  21094943.703   -21472659.54349 -16421785.35247  21094943.494    21094950.416
  20461957.211   -28446184.78249 -21832777.62148  20461957.202    20461964.049
  21825994.951   -19140767.07049 -14599504.23847  21825995.458    21826001.386
 04  5 22  2 59 30.0000000  0  6G27G 4G16G20G 1G13
  23551912.207   -11658101.42649  -8787658.47946  23551912.340    23551921.535
  24274930.049    -9401398.52349  -7306121.83845  24274930.674    24274938.827
  21382029.370   -22991359.56749 -17891257.65447  21382029.399    21382035.440
  21107966.703   -21404223.46049 -16368458.56347  21107966.489    21107973.413
  20461170.071   -28450321.28049 -21836000.86548  20461170.067    20461176.935
  21813375.899   -19207080.36249 -14651176.89947  21813376.434    21813382.304
 04  5 22  3  0  0.0000000  0  6G27G 4G16G20G 1G13
  23538181.659   -11730255.95249  -8843882.69646  23538181.825    23538190.829
  24280293.772    -9373213.00949  -7284159.12745  24280294.352    24280302.459
  21384134.670   -22980296.11549 -17882636.75647  21384134.702    21384140.748
  21121079.508   -21335315.46149 -16314764.04347  21121079.271    21121086.175
  20460434.759   -28454185.24249 -21839011.74348  20460434.746    20460441.607
  21800785.931   -19273241.09549 -14702730.69247  21800786.490    21800792.305
 04  5 22  3  0 30.0000000  0  6G27G 4G16G20G 1G13
  23524484.407   -11802235.41449  -8899970.52346  23524484.549    23524493.435
  24285744.474    -9344568.90649  -7261839.13045  24285744.998    24285753.489
  21386352.923   -22968639.14349 -17873553.39447  21386352.966    21386358.997
  21134282.017   -21265936.16249 -16260702.28447  21134281.771    21134288.672
  20459751.688   -28457774.70749 -21841808.72948  20459751.689    20459758.556
  21788225.421   -19339246.97449 -14754163.81347  21788225.975    21788231.781
 04  5 22  3  1  0.0000000  0  6G27G 4G16G20G 1G13
  23510820.214   -11874041.11549  -8955922.93846  23510820.298    23510829.235
  24291282.034    -9315469.45049  -7239164.27445  24291282.645    24291290.829
  21388683.692   -22956390.78849 -17864009.21247  21388683.712    21388689.739
  21147573.462   -21196089.36549 -16206276.23847  21147573.210    21147580.089
  20459120.714   -28461090.55549 -21844392.50448  20459120.715    20459127.589
  21775694.311   -19405098.50149 -14805476.67047  21775694.820    21775700.608
 04  5 22  3  1 30.0000000  0  6G27G 4G16G20G 1G13
  23497189.227   -11945672.06349  -9011739.18046  23497189.325    23497198.330
  24296905.956    -9285915.76049  -7216135.48745  24296906.482    24296914.753
  21391127.023   -22943550.85349 -17854004.05547  21391127.041    21391133.086
  21160953.679   -21125776.05449 -16151486.67347  21160953.417    21160960.306
  20458542.106   -28464131.22049 -21846761.85148  20458542.106    20458548.991
  21763192.887   -19470793.97549 -14856667.92447  21763193.405    21763199.180
 04  5 22  3  2  0.0000000  0  6G27G 4G16G20G 1G13
  23483591.679   -12017127.47949  -9067418.64446  23483591.718    23483600.862
  24302615.976    -9255909.18449  -7192753.77145  24302616.578    24302624.814
  21393682.951   -22930119.27949 -17843537.88347  21393682.981    21393689.043
  21174422.299   -21054997.90149 -16096334.89347  21174422.053    21174428.992
  20458016.109   -28466895.40949 -21848915.75948  20458016.120    20458022.977
  21750721.489   -19536331.60149 -14907736.18347  21750721.979    21750727.761
 04  5 22  3  2 30.0000000  0  6G27G 4G16G20G 1G13
  23470027.237   -12088408.37149  -9122962.11046  23470027.278    23470036.566
  24308411.522    -9225452.81449  -7169021.60945  24308412.067    24308420.611
  21396351.149   -22916097.73949 -17832611.99647  21396351.184    21396357.249
  21187978.832   -20983757.82849 -16040823.17747  21187978.598    21187985.554
  20457542.679   -28469383.24949 -21850854.33148  20457542.678    20457549.528
  21738280.120   -19601711.25849 -14958681.34547  21738280.602    21738286.416
 04  5 22  3  3  0.0000000  0  6G27G 4G16G20G 1G13
  23456496.308   -12159513.29049  -9178368.45146  23456496.376    23456505.688
  24314292.685    -9194546.82649  -7144939.08545  24314293.385    24314302.068
  21399131.815   -22901485.51549 -17821225.84147  21399131.849    21399137.915
  21201623.215   -20912056.39249 -15984951.96747  21201622.962    21201629.927
  20457122.207   -28471592.84449 -21852576.09548  20457122.199    20457129.072
  21725869.261   -19666930.65749 -15009501.62947  21725869.734    21725875.570
 04  5 22  3  3 30.0000000  0  6G27G 4G16G20G 1G13
  23442998.637   -12230443.01549  -9233638.27246  23442998.829    23443008.071
  24320259.072    -9163194.45349  -7120508.69945  24320259.655    24320268.063
  21402024.427   -22886284.37449 -17809380.78047  21402024.467    21402030.583
  21215354.706   -20839897.03049 -15928723.92647  21215354.466    21215361.413
  20456754.615   -28473524.50949 -21854081.28448  20456754.614    20456761.487
  21713488.903   -19731989.77649 -15060197.02247  21713489.404    21713495.224
 04  5 22  3  4  0.0000000  0  6G27G 4G16G20G 1G13
  23429534.549   -12301196.93649  -9288771.12046  23429534.741    23429543.997
  24326309.745    -9131397.00049  -7095731.52645  24326310.375    24326318.803
  21405029.131   -22870494.41649 -17797076.90947  21405029.157    21405035.282
  21229173.082   -20767281.15049 -15872140.16147  21229172.829    21229179.750
  20456440.194   -28475176.85349 -21855368.82248  20456440.191    20456447.028
  21701139.326   -19796887.09149 -15110766.33947  21701139.824    21701145.665
 04  5 22  3  4 30.0000000  0  6G27G 4G16G20G 1G13
  23416103.922   -12371775.26049  -9343767.13546  23416104.129    23416113.328
  24332445.017    -9099156.64049  -7070609.21245  24332445.679    24332454.176
  21408145.787   -22854116.55149 -17784314.92947  21408145.799    21408151.891
  21243077.896   -20694211.13349 -15815202.52247  21243077.633    21243084.552
  20456179.004   -28476549.50149 -21856438.41548  20456179.002    20456185.843
  21688820.718   -19861621.53049 -15161208.74047  21688821.222    21688827.082
 04  5 22  3  5  0.0000000  0  6G27G 4G16G20G 1G13
  23402706.884   -12442177.25249  -9398625.74446  23402707.073    23402716.198
  24338664.099    -9066474.75249  -7045142.85645  24338664.743    24338673.410
  21411374.240   -22837151.01449 -17771095.01847  21411374.254    21411380.317
  21257068.819   -20620688.50549 -15757912.20147  21257068.568    21257075.515
  20455971.260   -28477641.10849 -21857289.01948  20455971.266    20455978.111
  21676533.450   -19926191.22749 -15211522.77147  21676533.968    21676539.842
 04  5 22  3  5 30.0000000  0  6G27G 4G16G20G 1G13
  23389343.062   -12512404.23549  -9453347.98146  23389343.235    23389352.321
  24344966.885    -9033354.86549  -7019335.17745  24344967.430    24344975.815
  21414714.053   -22819600.14149 -17757419.01147  21414714.052    21414720.132
  21271145.201   -20546716.87049 -15700272.00447  21271144.933    21271151.871
  20455816.875   -28478452.34949 -21857921.15448  20455816.873    20455823.739
  21664277.451   -19990596.98949 -15261709.06247  21664277.982    21664283.815
 04  5 22  3  6  0.0000000  0  6G27G 4G16G20G 1G13
  23376012.993   -12582453.91949  -9507932.07446  23376013.123    23376022.210
  24351352.821    -8999796.63349  -6993186.01245  24351353.209    24351361.997
  21418165.550   -22801462.29649 -17743285.61647  21418165.583    21418171.636
  21285307.034   -20472295.97249 -15642281.72747  21285306.769    21285313.712
  20455716.409   -28478980.28649 -21858332.53248  20455716.412    20455723.280
  21652053.325   -20054835.23049 -15311764.81047  21652053.835    21652059.646
 04  5 22  3  6 30.0000000  0  6G27G 4G16G20G 1G13
  23362716.535   -12652326.82949  -9562378.41946  23362716.738    23362725.741
  24357821.610    -8965802.83449  -6966697.35745  24357822.100    24357830.610
  21421728.434   -22782738.92249 -17728695.97147  21421728.496    21421734.537
  21299553.733   -20397428.97349 -15583943.82847  21299553.496    21299560.446
  20455669.844   -28479224.98149 -21858523.20248  20455669.854    20455676.699
  21639861.126   -20118905.68649 -15361689.82847  21639861.626    21639867.430
 04  5 22  3  7  0.0000000  0  6G27G 4G16G20G 1G13
  23349453.804   -12722022.62449  -9616686.74446  23349454.040    23349462.973
  24364372.989    -8931375.27549  -6939870.73445  24364373.475    24364382.098
  21425402.632   -22763430.71349 -17713650.60247  21425402.692    21425408.733
  21313885.053   -20322117.48049 -15525259.57547  21313884.824    21313891.796
  20455677.415   -28479185.26049 -21858492.24948  20455677.409    20455684.266
  21627701.133   -20182806.76449 -15411482.86547  21627701.644    21627707.448
 04  5 22  3  7 30.0000000  0  6G27G 4G16G20G 1G13
  23336224.624   -12791542.40749  -9670857.91446  23336224.768    23336233.725
  24371006.435    -8896517.23149  -6912708.67745  24371006.923    24371015.637
  21429187.755   -22743539.81449 -17698151.19647  21429187.822    21429193.834
  21328300.252   -20246365.09449 -15466231.77547  21328300.035    21328307.027
  20455738.975   -28478861.72949 -21858240.14948  20455738.967    20455745.831
  21615573.316   -20246538.56949 -15461143.99947  21615573.850    21615579.682
 04  5 22  3  8  0.0000000  0  6G27G 4G16G20G 1G13
  23323029.024   -12860885.31849  -9724891.28646  23323029.193    23323038.148
  24377721.450    -8861229.97249  -6885212.15845  24377721.864    24377730.624
  21433083.843   -22723065.91649 -17682197.50447  21433083.865    21433089.926
  21342799.168   -20170173.03949 -15406861.37647  21342798.928    21342805.919
  20455854.860   -28478252.77749 -21857765.64548  20455854.846    20455861.703
  21603478.118   -20310099.28849 -15510671.81647  21603478.633    21603484.457
 04  5 22  3  8 30.0000000  0  6G27G 4G16G20G 1G13
  23309867.295   -12930050.46149  -9778786.13846  23309867.454    23309876.404
  24384518.070    -8825514.61849  -6857382.06245  24384518.579    24384526.966
  21437090.742   -22702009.55249 -17665789.93847  21437090.741    21437096.838
  21357381.406   -20093542.98949 -15347149.68947  21357381.152    21357388.154
  20456025.362   -28477357.02849 -21857067.66148  20456025.338    20456032.176
  21591415.933   -20373486.67049 -15560064.57447  21591416.433    21591422.226
 04  5 22  3  9  0.0000000  0  6G27G 4G16G20G 1G13
  23296739.153   -12999038.88249  -9832543.27546  23296739.303    23296748.262
  24391395.201    -8789374.35649  -6829220.86545  24391395.708    24391404.155
  21441208.121   -22680372.36949 -17648929.79347  21441208.141    21441214.247
  21372046.371   -20016478.12349 -15287099.18247  21372046.140    21372053.143
  20456250.344   -28476174.66049 -21856146.33648  20456250.323    20456257.172
  21579386.671   -20436700.84449 -15609322.35847  21579387.201    21579392.933
 04  5 22  3  9 30.0000000  0  6G27G 4G16G20G 1G13
  23283644.968   -13067849.00849  -9886161.48146  23283645.128    23283654.043
  24398353.133    -8752810.11149  -6800729.28445  24398353.712    24398362.068
  21445436.095   -22658154.07049 -17631616.83047  21445436.124    21445442.188
  21386793.944   -19938979.32649 -15226710.55647  21386793.711    21386800.736
  20456530.263   -28474703.53449 -21855000.00548  20456530.259    20456537.121
  21567390.844   -20499739.17349 -15658443.11247  21567391.386    21567397.140
 04  5 22  3 10  0.0000000  0  6G27G 4G16G20G 1G13
  23270584.492   -13136482.14149  -9939641.77046  23270584.600    23270593.507
  24405391.123    -8715825.11249  -6771909.86945  24405391.729    24405400.118
  21449774.294   -22635356.87749 -17613852.77447  21449774.350    21449780.398
  21401623.469   -19861050.02149 -15165986.46247  21401623.215    21401630.217
  20456865.060   -28472944.07949 -21853629.00448  20456865.057    20456871.928
  21555428.429   -20562601.75649 -15707426.92747  21555428.987    21555434.793
 04  5 22  3 10 30.0000000  0  6G27G 4G16G20G 1G13
  23257557.876   -13204937.46749  -9992983.50246  23257557.978    23257566.745
  24412509.022    -8678420.81849  -6742763.71145  24412509.461    24412518.007
  21454222.555   -22611981.33049 -17595638.05847  21454222.591    21454228.630
  21416534.554   -19782691.72349 -15104928.08847  21416534.312    21416541.332
  20457255.030   -28470894.96749 -21852032.29048  20457255.017    20457261.882
  21543499.880   -20625286.81649 -15756272.40647  21543500.415    21543506.208
 04  5 22  3 11  0.0000000  0  6G27G 4G16G20G 1G13
  23244565.070   -13273215.02149 -10046186.71346  23244565.153    23244573.825
  24419706.229    -8640599.55749  -6713292.65345  24419706.729    24419715.295
  21458780.688   -22588028.24249 -17576973.30947  21458780.685    21458786.746
  21431526.802   -19703907.04649 -15043537.46847  21431526.563    21431533.618
  20457700.179   -28468555.61749 -21850209.41948  20457700.179    20457707.048
  21531605.238   -20687793.42749 -15804978.82447  21531605.760    21531611.587
 04  5 22  3 11 30.0000000  0  6G27G 4G16G20G 1G13
  23231606.095   -13341314.69549 -10099251.30746  23231606.184    23231614.858
  24426982.279    -8602363.58149  -6683498.44445  24426982.682    24426991.491
  21463448.459   -22563498.70149 -17557859.37147  21463448.454    21463454.518
  21446599.836   -19624697.92149 -14981816.10147  21446599.588    21446606.657
  20458200.739   -28465925.23449 -21848159.76848  20458200.732    20458207.567
  21519744.901   -20750119.95649 -15853544.92847  21519745.430    21519751.247
 04  5 22  3 12  0.0000000  0  6G27G 4G16G20G 1G13
  23218681.131   -13409235.47549 -10152176.50546  23218681.212    23218689.925
  24434337.190    -8563713.72649  -6653381.71845  24434337.630    24434346.322
  21468225.966   -22538392.51449 -17538296.09947  21468225.977    21468232.039
  21461753.350   -19545065.86849 -14919765.18247  21461753.107    21461760.179
  20458757.012   -28463002.10549 -21845881.99848  20458756.997    20458763.837
  21507919.215   -20812264.23349 -15901969.01147  21507919.727    21507925.588
 04  5 22  3 12 30.0000000  0  6G27G 4G16G20G 1G13
  23205790.022   -13476978.19449 -10204962.96146  23205790.146    23205798.809
  24441770.169    -8524653.18749  -6622944.99045  24441770.634    24441779.246
  21473112.787   -22512712.10649 -17518285.38447  21473112.783    21473118.810
  21476986.829   -19465013.98149 -14857387.12847  21476986.562    21476993.630
  20459368.968   -28459786.40149 -21843376.25148  20459368.954    20459375.785
  21496128.241   -20874225.98349 -15950250.87847  21496128.770    21496134.620
 04  5 22  3 13  0.0000000  0  6G27G 4G16G20G 1G13
  23192932.909   -13544542.78149 -10257610.60646  23192932.987    23192941.626
  24449280.874    -8485184.49649  -6592190.23945  24449281.295    24449290.141
  21478108.702   -22486458.29949 -17497827.86347  21478108.715    21478114.766
  21492299.595   -19384544.80049 -14794683.90847  21492299.321    21492306.427
  20460036.717   -28456277.35949 -21840641.92748  20460036.701    20460043.552
  21484372.178   -20936004.46149 -15998389.92947  21484372.728    21484378.529
 04  5 22  3 13 30.0000000  0  6G27G 4G16G20G 1G13
  23180109.696   -13611928.65049 -10310119.00546  23180109.774    23180118.450
  24456868.983    -8445308.93949  -6561118.42745  24456869.461    24456878.217
  21483213.622   -22459631.70349 -17476924.01147  21483213.661    21483219.652
  21507691.477   -19303659.99849 -14731656.82147  21507691.225    21507698.339
  20460760.517   -28452473.66449 -21837678.00148  20460760.490    20460767.350
  21472651.379   -20997597.34949 -16046384.36547  21472651.952    21472657.735
 04  5 22  3 14  0.0000000  0  6G27G 4G16G20G 1G13
  23167320.270   -13679136.91949 -10362489.01346  23167320.328    23167329.067
  24464533.853    -8405030.03249  -6529732.33245  24464534.365    24464543.104
  21488427.169   -22432234.45849 -17455575.49947  21488427.201    21488433.094
  21523161.830   -19222362.93149 -14668308.49247  21523161.585    21523168.680
  20461540.314   -28448375.61449 -21834484.70748  20461540.310    20461547.177
  21460965.976   -21059004.51949 -16094234.09347  21460966.522    21460972.290
 04  5 22  3 14 30.0000000  0  6G27G 4G16G20G 1G13
  23154564.855   -13746166.63249 -10414719.88646  23154564.958    23154573.722
  24472275.238    -8364349.02649  -6498032.92445  24472275.745    24472284.612
  21493749.284   -22404267.02249 -17433782.68047  21493749.297    21493755.128
  21538710.357   -19140655.18049 -14604640.14747  21538710.081    21538717.185
  20462376.428   -28443981.73749 -21831060.90048  20462376.402    20462383.298
  21449316.275   -21120224.10149 -16141937.64247  21449316.807    21449322.595
 04  5 22  3 15  0.0000000  0  6G27G 4G16G20G 1G13
  23141843.639   -13813017.25549 -10466811.21746  23141843.695    23141852.376
  24480092.736    -8323267.80049  -6466021.65345  24480093.283    24480102.116
  21499179.718   -22375729.98049 -17411546.01447  21499179.747    21499185.514
  21554336.665   -19058538.46749 -14540653.14147  21554336.393    21554343.477
  20463269.095   -28439290.67749 -21827405.52248  20463269.074    20463275.959
  21437702.624   -21181254.18649 -16189493.53747  21437703.157    21437708.923
 04  5 22  3 15 30.0000000  0  6G27G 4G16G20G 1G13
  23129156.228   -13879689.89249 -10518763.85446  23129156.258    23129164.891
  24487985.804    -8281789.63349  -6433701.09145  24487986.370    24487995.417
  21504718.098   -22346625.54249 -17388867.22647  21504718.124    21504723.923
  21570040.174   -18976016.36749 -14476350.24447  21570039.872    21570046.973
  20464218.249   -28434302.76249 -21823518.82648  20464218.236    20464225.140
  21426125.061   -21242094.67949 -16236901.70347  21426125.582    21426131.355
 04  5 22  3 16  0.0000000  0  6G27G 4G16G20G 1G13
  23116502.946   -13946183.09049 -10570576.66546  23116503.018    23116511.576
  24495954.012    -8239915.53549  -6401071.99145  24495954.783    24495963.684
  21510364.432   -22316953.84549 -17365746.40947  21510364.465    21510370.245
  21585820.495   -18893090.11249 -14411732.41747  21585820.208    21585827.334
  20465224.249   -28429016.07849 -21819399.32648  20465224.220    20465231.154
  21414584.061   -21302743.04749 -16284160.16047  21414584.582    21414590.339
 04  5 22  3 16 30.0000000  0  6G27G 4G16G20G 1G13
  23103883.684   -14012497.30949 -10622250.02546  23103883.784    23103892.291
  24503997.247    -8197648.20449  -6368136.49745  24503997.995    24504007.060
  21516118.513   -22286716.20649 -17342184.60347  21516118.501    21516124.288
  21601677.275   -18809762.22949 -14346801.63847  21601676.990    21601684.148
  20466287.199   -28423430.07649 -21815046.59648  20466287.184    20466294.151
  21403079.794   -21363198.42649 -16331268.22147  21403080.326    21403086.047
 04  5 22  3 17  0.0000000  0  6G27G 4G16G20G 1G13
  23091298.343   -14078633.42349 -10673784.59646  23091298.457    23091306.905
  24512114.928    -8154990.79849  -6334897.02945  24512115.555    24512124.486
  21521979.765   -22255914.88349 -17318183.56647  21521979.784    21521985.567
  21617609.871   -18726036.06749 -14281560.51747  21617609.590    21617616.773
  20467407.097   -28417545.06349 -21810460.87048  20467407.079    20467414.017
  21391612.400   -21423460.12049 -16378225.36747  21391612.895    21391618.592
 04  5 22  3 17 30.0000000  0  6G27G 4G16G20G 1G13
  23078747.282   -14144589.23449 -10725178.67646  23078747.426    23078755.838
  24520306.543    -8111943.62449  -6301353.85645  24520307.145    24520316.149
  21527948.439   -22224549.28449 -17293742.82747  21527948.451    21527954.219
  21633618.153   -18641912.03049 -14216009.35447  21633617.898    21633625.091
  20468584.454   -28411358.29849 -21805640.00548  20468584.424    20468591.341
  21380182.418   -21483525.05149 -16425029.19247  21380182.927    21380188.600
 04  5 22  3 18  0.0000000  0  6G27G 4G16G20G 1G13
  23066230.198   -14210366.64149 -10776433.73746  23066230.311    23066238.750
  24528571.698    -8068510.60449  -6267510.01345  24528572.382    24528581.300
  21534023.946   -22192622.22849 -17268864.59647  21534023.966    21534029.702
  21649701.395   -18557394.03349 -14150151.22047  21649701.174    21649708.359
  20469819.034   -28404870.58549 -21800584.64548  20469818.999    20469825.896
  21368789.790   -21543393.63749 -16471680.03547  21368790.314    21368795.953
 04  5 22  3 18 30.0000000  0  6G27G 4G16G20G 1G13
  23053747.328   -14275964.39149 -10827548.81546  23053747.433    23053755.866
  24536909.920    -8024693.07749  -6233366.54445  24536910.639    24536919.284
  21540206.193   -22160134.15149 -17243549.20247  21540206.226    21540211.930
  21665859.277   -18472483.87349 -14083987.50347  21665859.058    21665866.251
  20471111.165   -28398080.35249 -21795293.55548  20471111.145    20471118.030
  21357434.950   -21603063.54249 -16518176.05547  21357435.475    21357441.118
 04  5 22  3 19  0.0000000  0  6G27G 4G16G20G 1G13
  23041298.416   -14341383.51449 -10878524.70146  23041298.521    23041306.993
  24545320.644    -7980494.63549  -6198926.32545  24545321.297    24545329.969
  21546494.771   -22127087.40649 -17217798.48547  21546494.782    21546500.513
  21682091.151   -18387184.94949 -14017520.85547  21682090.951    21682098.124
  20472460.834   -28390987.72249 -21789766.83048  20472460.800    20472467.674
  21346118.018   -21662534.59449 -16564517.12347  21346118.530    21346124.158
 04  5 22  3 19 30.0000000  0  6G27G 4G16G20G 1G13
  23028883.675   -14406623.05949 -10929360.66646  23028883.806    23028892.268
  24553803.597    -7935916.43949  -6164190.13545  24553804.136    24553812.870
  21552889.683   -22093482.00949 -17191612.46047  21552889.685    21552895.383
  21698396.770   -18301498.49449 -13950752.23347  21698396.572    21698403.759
  20473868.425   -28383590.84149 -21784003.02748  20473868.406    20473875.246
  21334839.394   -21721804.22149 -16610701.23547  21334839.898    21334845.498
 04  5 22  3 20  0.0000000  0  6G27G 4G16G20G 1G13
  23016502.992   -14471684.07349 -10980057.50546  23016503.116    23016511.493
  24562358.310    -7890961.94549  -6129160.71445  24562358.803    24562367.622
  21559390.394   -22059320.56549 -17164993.14447  21559390.395    21559396.060
  21714775.455   -18215428.09149 -13883684.42647  21714775.234    21714782.479
  20475333.832   -28375890.08649 -21778002.43748  20475333.801    20475340.655
  21323599.126   -21780871.96249 -16656728.02147  21323599.639    21323605.225
 04  5 22  3 20 30.0000000  0  6G27G 4G16G20G 1G13
  23004156.588   -14536564.87149 -11030613.93246  23004156.664    23004165.020
  24570984.465    -7845631.88149  -6093838.66045  24570984.931    24570993.707
  21565996.926   -22024602.91449 -17137940.42447  21565996.911    21566002.585
  21731227.019   -18128974.53349 -13816318.05347  21731226.815    21731234.043
  20476857.456   -28367883.28049 -21771763.36648  20476857.427    20476864.291
  21312397.849   -21839734.99149 -16702595.30647  21312398.364    21312403.927
 04  5 22  3 21  0.0000000  0  6G27G 4G16G20G 1G13
  22991844.057   -14601267.10449 -11081031.21246  22991844.138    22991852.468
  24579681.112    -7799930.28049  -6058227.09545  24579681.670    24579690.432
  21572708.745   -21989332.11349 -17110456.67647  21572708.744    21572714.395
  21747750.830   -18042141.94549 -13748656.33747  21747750.596    21747757.821
  20478439.155   -28359571.28249 -21765286.49248  20478439.112    20478446.008
  21301235.488   -21898393.41749 -16748303.16247  21301236.031    21301241.583
 04  5 22  3 21 30.0000000  0  6G27G 4G16G20G 1G13
  22979565.792   -14665789.70949 -11131308.51646  22979565.878    22979574.194
  24588448.262    -7753858.50549  -6022327.09745  24588448.780    24588457.749
  21579525.772   -21953508.24849 -17082541.97547  21579525.775    21579531.454
  21764346.372   -17954931.63949 -13680700.29947  21764346.147    21764353.392
  20480079.290   -28350952.17749 -21758570.30748  20480079.266    20480086.199
  21290112.442   -21956845.39449 -16793850.13647  21290112.982    21290118.509
 04  5 22  3 22  0.0000000  0  6G27G 4G16G20G 1G13
  22967321.648   -14730133.00449 -11181446.09446  22967321.724    22967330.046
  24597285.458    -7707419.08549  -5986140.60645  24597286.063    24597295.030
  21586447.704   -21917133.24649 -17054197.81247  21586447.713    21586453.408
  21781013.302   -17867346.47449 -13612452.16147  21781013.068    21781020.345
  20481777.957   -28342025.47549 -21751614.43248  20481777.950    20481784.860
  21279029.014   -22015089.41349 -16839235.06647  21279029.544    21279035.059
 04  5 22  3 22 30.0000000  0  6G27G 4G16G20G 1G13
  22955111.700   -14794296.67149 -11231443.70246  22955111.777    22955120.064
  24606192.237    -7660614.31349  -5949669.41245  24606192.868    24606201.556
  21593474.239   -21880208.54549 -17025425.31647  21593474.259    21593479.946
  21797751.077   -17779388.71349 -13543913.68247  21797750.841    21797758.159
  20483535.412   -28332790.08649 -21744418.02248  20483535.403    20483542.284
  21267985.493   -22073123.68849 -16884456.56747  21267986.000    21267991.492
 04  5 22  3 23  0.0000000  0  6G27G 4G16G20G 1G13
  22942935.848   -14858280.72049 -11281301.34946  22942935.976    22942944.268
  24615167.845    -7613446.81849  -5912915.59745  24615168.474    24615177.338
  21600605.156   -21842735.37049 -16996225.43847  21600605.152    21600610.846
  21814559.303   -17691060.92849 -13475086.87047  21814559.075    21814566.421
  20485351.745   -28323245.38149 -21736980.60048  20485351.716    20485358.602
  21256982.014   -22130947.34949 -16929513.95247  21256982.517    21256988.013
 04  5 22  3 23 30.0000000  0  6G27G 4G16G20G 1G13
  22930794.072   -14922085.94149 -11331019.65346  22930794.201    22930802.520
  24624212.078    -7565919.46949  -5875881.37445  24624212.683    24624221.560
  21607840.065   -21804715.75349 -16966599.75647  21607840.074    21607845.749
  21831437.357   -17602366.17849 -13405974.11647  21831437.160    21831444.519
  20487226.882   -28313391.26349 -21729302.06748  20487226.888    20487233.765
  21246018.727   -22188559.55149 -16974406.54847  21246019.247    21246024.764
 04  5 22  3 24  0.0000000  0  7G27G 4G 3G16G20G 1G13
  22918687.201   -14985708.18349 -11380595.36446  22918687.283    22918695.562
  24633325.019    -7518030.81649  -5838565.60145  24633325.565    24633334.582
  24566785.270    -2420791.19049  -1867583.07345  24566785.737    24566794.958
  21615179.331   -21766147.50049 -16936546.56747  21615179.353    21615185.056
  21848385.549   -17513303.25749 -13336574.47647  21848385.347    21848392.677
  20489161.831   -28303223.07649 -21721378.80948  20489161.828    20489168.718
  21235096.664   -22245954.99049 -17019130.23647  21235097.208    21235102.745
 04  5 22  3 24 30.0000000  0  7G27G 4G 3G16G20G 1G13
  22906614.558   -15049150.34249 -11430030.76146  22906614.631    22906622.858
  24642505.663    -7469786.09349  -5800972.41645  24642506.337    24642515.311
  24552216.702    -2497349.19149  -1927238.54245  24552217.184    24552226.136
  21622622.207   -21727034.90549 -16906069.21247  21622622.230    21622627.951
  21865402.793   -17423877.29749 -13266891.95047  21865402.587    21865409.914
  20491156.184   -28292742.81749 -21713212.37748  20491156.198    20491163.052
  21224215.705   -22303134.81749 -17063685.92047  21224216.231    21224221.779
 04  5 22  3 25  0.0000000  0  7G27G 4G 3G16G20G 1G13
  22894576.321   -15112411.37149 -11479325.00646  22894576.435    22894584.673
  24651753.853    -7421186.78649  -5763102.93245  24651754.575    24651763.591
  24537670.492    -2573789.18649  -1986802.09745  24537670.974    24537679.849
  21630168.616   -21687378.45649 -16875168.08447  21630168.636    21630174.330
  21882488.811   -17334089.91749 -13196927.79747  21882488.618    21882495.931
  20493210.259   -28281948.79849 -21704801.45348  20493210.256    20493217.080
  21213376.164   -22360096.74249 -17108071.81547  21213376.695    21213382.288
 04  5 22  3 25 30.0000000  0  7G27G 4G 3G16G20G 1G13
  22882571.928   -15175494.75149 -11528480.83846  22882572.075    22882580.209
  24661068.516    -7372238.69049  -5724961.61145  24661069.118    24661078.137
  24523146.796    -2650111.43449  -2046273.87445  24523147.129    24523156.181
  21637817.527   -21647183.11849 -16843847.04547  21637817.521    21637823.244
  21899642.483   -17243946.88649 -13126686.50647  21899642.283    21899649.605
  20495323.475   -28270843.75549 -21696148.17348  20495323.483    20495330.274
  21202577.715   -22416842.79949 -17152289.49647  21202578.241    21202583.882
 04  5 22  3 26  0.0000000  0  7G27G 4G 3G16G20G 1G13
  22870601.514   -15238400.09949 -11577497.92046  22870601.592    22870609.657
  24670448.892    -7322944.02149  -5686550.27745  24670449.403    24670458.744
  24508646.101    -2726312.65349  -2105651.29545  24508646.437    24508655.534
  21645568.697   -21606450.11849 -16812107.04047  21645568.725    21645574.489
  21916863.389   -17153450.51749 -13056169.89147  21916863.211    21916870.525
  20497496.122   -28259426.54049 -21687251.63948  20497496.139    20497502.933
  21191820.712   -22473371.13549 -17196337.51947  21191821.237    21191826.900
 04  5 22  3 26 30.0000000  0  7G27G 4G 3G16G20G 1G13
  22858664.892   -15301127.10949 -11626376.03746  22858664.986    22858673.084
  24679894.867    -7273305.10049  -5647870.68045  24679895.465    24679904.851
  24494169.147    -2802389.54649  -2164931.86845  24494169.390    24494178.507
  21653422.008   -21565180.70949 -16779949.05547  21653422.038    21653427.798
  21934151.150   -17062603.05249 -12985379.69247  21934150.953    21934158.252
  20499728.383   -28247696.00649 -21678110.95548  20499728.393    20499735.179
  21181105.430   -22529680.19549 -17240214.67647  21181105.985    21181111.639
 04  5 22  3 27  0.0000000  0  7G27G 4G 3G16G20G 1G13
  22846762.373   -15363674.40149 -11675114.12946  22846762.515    22846770.671
  24689406.309    -7223322.87049  -5608923.60345  24689406.798    24689416.248
  24479716.635    -2878337.50949  -2224112.02445  24479716.835    24479726.111
  21661377.335   -21523375.10649 -16747373.26047  21661377.371    21661383.164
  21951505.528   -16971405.59049 -12914316.78047  21951505.319    21951512.619
  20502020.611   -28235650.14849 -21668724.56848  20502020.616    20502027.395
  21170432.477   -22585766.93149 -17283918.59747  21170433.004    21170438.637
 04  5 22  3 27 30.0000000  0  7G27G 4G 3G16G20G 1G13
  22834893.783   -15426043.71349 -11723713.51546  22834893.952    22834902.146
  24698982.388    -7173001.39549  -5569712.18945  24698982.840    24698992.248
  24465288.950    -2954155.10349  -2283190.54245  24465289.152    24465298.287
  21669434.122   -21481036.51649 -16714382.14647  21669434.133    21669439.958
  21968925.738   -16879862.25549 -12842984.36247  21968925.489    21968932.765
  20504372.732   -28223289.71549 -21659093.05148  20504372.718    20504379.520
  21159801.857   -22641631.21249 -17327449.17447  21159802.384    21159808.011
 04  5 22  3 28  0.0000000  0  7G27G 4G 3G16G20G 1G13
  22823059.354   -15488233.73649 -11772173.21546  22823059.525    22823067.704
  24708622.568    -7122342.22249  -5530237.56445  24708623.056    24708632.380
  24450886.965    -3029838.06049  -2342164.20145  24450887.243    24450896.227
  21677592.217   -21438165.38349 -16680976.06747  21677592.225    21677598.097
  21986411.457   -16787974.47249 -12771383.53647  21986411.194    21986418.430
  20506785.031   -28210612.89749 -21649215.00348  20506785.018    20506791.826
  21149213.981   -22697270.81149 -17370804.68247  21149214.504    21149220.124
 04  5 22  3 28 30.0000000  0  7G27G 4G 3G16G20G 1G13
  22811259.213   -15550243.79049 -11820492.67346  22811259.374    22811267.531
  24718326.700    -7071346.85749  -5490501.04345  24718327.348    24718336.614
  24436511.336    -3105382.45249  -2401029.88845  24436511.695    24436520.390
  21685851.440   -21394762.62249 -16647155.73347  21685851.477    21685857.371
  22003962.311   -16695744.03849 -12699515.69847  22003962.074    22003969.291
  20509257.856   -28197618.08649 -21639089.16548  20509257.856    20509264.659
  21138669.229   -22752683.74149 -17413983.57147  21138669.763    21138675.395
 04  5 22  3 29  0.0000000  0  7G27G 4G 3G16G20G 1G13
  22799493.115   -15612074.79649 -11868672.61046  22799493.230    22799501.438
  24728094.063    -7020018.85149  -5450505.30045  24728094.775    24728103.988
  24422162.311    -3180786.32249  -2459786.05445  24422162.719    24422171.620
  21694211.396   -21350830.77349 -16612923.12247  21694211.400    21694217.341
  22021577.674   -16603174.49849 -12627383.63047  22021577.459    22021584.713
  20511791.188   -28184305.54849 -21628715.74948  20511791.182    20511797.966
  21128167.795   -22807868.93949 -17456985.01147  21128168.353    21128173.991
 04  5 22  3 29 30.0000000  0  7G27G 4G 3G16G20G 1G13
  22787761.105   -15673726.32949 -11916712.70146  22787761.231    22787769.463
  24737924.323    -6968360.21049  -5410251.92345  24737925.111    24737934.493
  24407840.868    -3256045.93449  -2518429.82745  24407841.163    24407850.123
  21702671.680   -21306371.20449 -16578279.30047  21702671.733    21702677.708
  22039257.206   -16510267.98049 -12554988.97647  22039257.010    22039264.295
  20514385.183   -28170674.16549 -21618093.88448  20514385.157    20514391.913
  21117710.088   -22862824.77249 -17499807.72247  21117710.603    21117716.213
 04  5 22  3 30  0.0000000  0  7G27G 4G 3G16G20G 1G13
  22776063.160   -15735199.18049 -11964613.56246  22776063.290    22776071.529
  24747817.096    -6916374.57549  -5369743.74545  24747817.773    24747827.323
  24393547.236    -3331159.25949  -2576959.57845  24393547.449    24393556.487
  21711232.009   -21261386.48949 -16543226.28047  21711232.047    21711237.981
  22057000.243   -16417028.00049 -12482334.48147  22057000.027    22057007.329
  20517039.781   -28156723.91349 -21607223.54748  20517039.769    20517046.543
  21107296.099   -22917550.51149 -17542451.13647  21107296.633    21107302.205
 04  5 22  3 30 30.0000000  0  7G27G 4G 3G16G20G 1G13
  22764399.198   -15796493.42649 -12012375.24346  22764399.304    22764407.527
  24757771.623    -6864064.22549  -5328982.51345  24757772.250    24757781.612
  24379281.875    -3406123.25049  -2635372.96845  24379282.034    24379291.284
  21719891.970   -21215878.29949 -16507765.34847  21719892.002    21719897.905
  22074806.268   -16323457.01549 -12409422.06247  22074806.040    22074813.352
  20519755.231   -28142454.12149 -21596104.21648  20519755.199    20519762.028
  21096926.195   -22972044.67649 -17584914.10747  21096926.722    21096932.290
 04  5 22  3 31  0.0000000  0  7G27G 4G 3G16G20G 1G13
  22752769.457   -15857607.56849 -12059996.58546  22752769.575    22752777.838
  24767787.847    -6811430.13949  -5287969.04745  24767788.416    24767797.643
  24365045.890    -3480933.16549  -2693666.36345  24365046.060    24365055.311
  21728651.494   -21169846.56849 -16471896.46747  21728651.518    21728657.458
  22092675.085   -16229556.05449 -12336252.52347  22092674.899    22092682.156
  20522531.929   -28127862.37149 -21584734.01548  20522531.907    20522538.742
  21086600.928   -23026304.20949 -17627194.25247  21086601.460    21086607.033
 04  5 22  3 31 30.0000000  0  7G27G 4G 3G16G20G 1G13
  22741173.693   -15918543.32249 -12107478.93746  22741173.813    22741182.105
  24777864.604    -6758476.99849  -5246706.94545  24777865.160    24777874.458
  24350839.597    -3555587.52649  -2751838.54645  24350839.704    24350848.883
  21737509.950   -21123295.10149 -16435622.59947  21737509.975    21737515.924
  22110605.857   -16135329.58849 -12262829.35047  22110605.626    22110612.869
  20525369.689   -28112949.74849 -21573113.77848  20525369.662    20525376.520
  21076320.260   -23080329.44849 -17669291.82747  21076320.787    21076326.338
 04  5 22  3 32  0.0000000  0  7G27G 4G 3G16G20G 1G13
  22729612.068   -15979299.74749 -12154821.54046  22729612.237    22729620.429
  24788001.904    -6705205.86749  -5205197.05845  24788002.274    24788011.608
  24336663.596    -3630082.45749  -2809886.42645  24336663.649    24336672.720
  21746467.166   -21076224.58349 -16398944.27447  21746467.204    21746473.128
  22128598.189   -16040779.31949 -12189153.85447  22128597.940    22128605.242
  20528268.854   -28097714.62449 -21561242.24448  20528268.825    20528275.655
  21066084.665   -23134117.94349 -17711204.92547  21066085.193    21066090.706
 04  5 22  3 32 30.0000000  0  7G27G 4G 3G16G20G 1G13
  22718084.646   -16039876.95449 -12202024.49146  22718084.777    22718092.897
  24798199.014    -6651619.77149  -5163441.73145  24798199.415    24798208.792
  24322518.564    -3704414.53049  -2867807.41245  24322518.621    24322527.672
  21755522.881   -21028636.75249 -16361862.84447  21755522.895    21755528.818
  22146651.717   -15945907.50549 -12115227.80047  22146651.462    22146658.793
  20531229.492   -28082156.25849 -21549118.83348  20531229.446    20531236.282
  21055894.474   -23187667.78249 -17752932.04647  21055894.987    21055900.492
 04  5 22  3 33  0.0000000  0  7G27G 4G 3G16G20G 1G13
  22706591.191   -16100275.44749 -12249088.19846  22706591.314    22706599.377
  24808455.298    -6597721.77149  -5121443.34645  24808455.813    24808465.416
  24308405.019    -3778581.70149  -2925599.92645  24308405.101    24308414.168
  21764676.521   -20980533.90649 -16324380.10847  21764676.568    21764682.502
  22164765.835   -15850717.58249 -12041053.87747  22164765.532    22164772.909
  20534251.660   -28066274.57749 -21536743.48648  20534251.623    20534258.452
  21045749.786   -23240978.22949 -17794472.63947  21045750.300    21045755.831
 04  5 22  3 33 30.0000000  0  7G27G 4G 3G16G20G 1G13
  22695131.704   -16160495.02649 -12296012.49146  22695131.847    22695139.876
  24818770.870    -6543513.96649  -5079203.59545  24818771.232    24818780.881
  24294323.611    -3852580.14149  -2983260.92245  24294323.670    24294332.683
  21773927.938   -20931917.50649 -16286497.19547  21773927.983    21773933.915
  22182940.054   -15755211.76649 -11966633.78947  22182939.710    22182947.103
  20537335.585   -28050068.46449 -21524115.33448  20537335.568    20537342.382
  21035650.959   -23294047.75149 -17835825.50047  21035651.492    21035657.039
 04  5 22  3 34  0.0000000  0  7G27G 4G 3G16G20G 1G13
  22683706.112   -16220536.90249 -12342798.31446  22683706.187    22683714.236
  24829144.623    -6489000.33849  -5036725.51345  24829144.921    24829154.541
  24280274.588    -3926408.18949  -3040789.22845  24280274.616    24280283.537
  21783276.459   -20882790.81849 -16248216.65347  21783276.491    21783282.406
  22201173.550   -15659394.23449 -11891970.81147  22201173.238    22201180.644
  20540481.111   -28033538.55249 -21511234.87248  20540481.081    20540487.905
  21025598.159   -23346875.60449 -17876990.04147  21025598.691    21025604.265
 04  5 22  3 34 30.0000000  0  7G27G 4G 3G16G20G 1G13
  22672314.563   -16280400.10849 -12389444.92346  22672314.663    22672322.660
  24839576.203    -6434182.60149  -4994010.47245  24839576.489    24839586.097
  24266258.716    -4000061.84549  -3098181.64245  24266258.778    24266267.656
  21792721.967   -20833154.46949 -16209538.98747  21792721.983    21792727.923
  22219466.130   -15563266.06249 -11817065.78046  22219465.824    22219473.299
  20543688.583   -28016683.07249 -21498100.73248  20543688.570    20543695.382
  21015591.765   -23399459.47949 -17917964.48247  21015592.298    21015597.867
 04  5 22  3 35  0.0000000  0  7G27G 4G 3G16G20G 1G13
  22660957.136   -16340083.87349 -12435951.70246  22660957.226    22660965.147
  24850065.381    -6379062.35649  -4951059.71645  24850065.767    24850075.251
  24252276.716    -4073537.24749  -3155435.13545  24252276.878    24252285.740
  21802264.236   -20783009.74649 -16170465.17347  21802264.237    21802270.199
  22237817.446   -15466829.33849 -11741920.31346  22237817.129    22237824.643
  20546958.294   -27999500.41149 -21484711.63648  20546958.277    20546965.109
  21005632.136   -23451797.35049 -17958747.22147  21005632.703    21005638.274
 04  5 22  3 35 30.0000000  0  7G27G 4G 3G16G20G 1G13
  22649633.603   -16399589.18949 -12482319.42746  22649633.685    22649641.618
  24860611.277    -6323643.35949  -4907876.15445  24860611.547    24860621.091
  24238328.993    -4146832.22349  -3212548.01645  24238329.284    24238338.027
  21811902.664   -20732359.31749 -16130997.31447  21811902.674    21811908.643
  22256226.748   -15370087.78649 -11666537.32546  22256226.445    22256233.974
  20550290.249   -27981990.88549 -21471067.84748  20550290.230    20550297.070
  20995719.592   -23503888.20049 -17999337.48147  20995720.125    20995725.678
 04  5 22  3 36  0.0000000  0  7G27G 4G 3G16G20G 1G13
  22638344.057   -16458915.89649 -12528547.98546  22638344.151    22638352.049
  24871213.595    -6267927.81849  -4864461.55545  24871213.857    24871223.418
  24224416.402    -4219943.43349  -3269517.69445  24224416.705    24224425.402
  21821637.069   -20681204.81849 -16091136.66547  21821637.065    21821643.020
  22274693.622   -15273043.74949 -11590918.63746  22274693.361    22274700.862
  20553684.616   -27964153.49149 -21457168.57148  20553684.590    20553691.393
  20985854.377   -23555730.13749 -18039733.78647  20985854.925    20985860.469
 04  5 22  3 36 30.0000000  0  7G27G 4G 3G16G20G 1G13
  22627088.386   -16518064.26049 -12574637.56046  22627088.493    22627096.426
  24881871.830    -6211918.82449  -4820818.24345  24881872.048    24881881.744
  24210539.315    -4292868.15849  -3326342.07945  24210539.363    24210548.168
  21831466.936   -20629548.49049 -16050884.97847  21831466.940    21831472.870
  22293217.569   -15175700.05549 -11515066.44046  22293217.286    22293224.765
  20557141.386   -27945987.89049 -21443013.55348  20557141.367    20557148.157
  20976036.741   -23607322.09149 -18079935.28947  20976037.292    20976042.826
 04  5 22  3 37  0.0000000  0  7G27G 4G 3G16G20G 1G13
  22615866.585   -16577034.64649 -12620588.45346  22615866.692    22615874.693
  24892585.347    -6155619.16049  -4776948.46045  24892585.642    24892595.372
  24196698.254    -4365603.32449  -3383018.76645  24196698.304    24196707.096
  21841391.879   -20577392.29949 -16010243.79647  21841391.909    21841397.819
  22311797.974   -15078059.81749 -11438983.17246  22311797.664    22311805.093
  20560660.768   -27927493.50349 -21428602.33848  20560660.751    20560667.532
  20966266.932   -23658662.89149 -18119941.09647  20966267.475    20966272.989
 04  5 22  3 37 30.0000000  0  7G27G 4G 3G16G20G 1G13
  22604678.889   -16635825.70049 -12666399.60946  22604678.997    22604687.069
  24903353.957    -6099030.10349  -4732853.16445  24903354.227    24903364.069
  24182893.983    -4438144.45749  -3439544.28045  24182894.001    24182902.811
  21851411.808   -20524737.17449 -15969213.82847  21851411.842    21851417.745
  22330434.492   -14980124.19149 -11362669.74246  22330434.192    22330441.650
  20564243.052   -27908668.48749 -21413933.49548  20564243.031    20564249.786
  20956545.530   -23709749.41449 -18159748.75247  20956546.055    20956551.527
 04  5 22  3 38  0.0000000  0  7G27G 4G 3G16G20G 1G13
  22593525.224   -16694438.77549 -12712072.09146  22593525.308    22593533.284
  24914176.747    -6042155.82549  -4688535.63645  24914177.074    24914187.082
  24169126.927    -4510489.92849  -3495917.27745  24169127.013    24169135.953
  21861526.093   -20471586.22549 -15927797.51147  21861526.140    21861531.990
  22349126.491   -14881897.28649 -11286129.32346  22349126.192    22349133.652
  20567888.114   -27889513.56349 -21399007.58548  20567888.097    20567894.869
  20946872.547   -23760581.34449 -18199358.03747  20946873.082    20946878.512
 04  5 22  3 38 30.0000000  0  6G27G 3G16G20G 1G13
  22582406.146   -16752870.01249 -12757602.87746  22582406.216    22582414.174
  24155398.529    -4582632.37249  -3552132.05445  24155398.637    24155407.552
  21871735.222   -20417937.18249 -15885993.06647  21871735.233    21871741.026
  22367874.122   -14783377.72049 -11209360.87146  22367873.813    22367881.339
  20571596.898   -27870023.77649 -21383820.73448  20571596.890    20571603.641
  20937249.007   -23811153.28949 -18238764.73247  20937249.554    20937254.950
 04  5 22  3 39  0.0000000  0  6G27G 3G16G20G 1G13
  22571321.604   -16811119.20249 -12802991.80047  22571321.699    22571329.706
  24141709.312    -4654568.91749  -3608186.41745  24141709.442    24141718.445
  21882038.790   -20363791.96149 -15843801.98347  21882038.770    21882044.477
  22386676.976   -14684567.92849 -11132366.25846  22386676.686    22386684.276
  20575369.524   -27850198.51649 -21368372.47848  20575369.518    20575376.258
  20927675.315   -23861463.29449 -18277967.31847  20927675.842    20927681.239
 04  5 22  3 39 30.0000000  0  6G27G 3G16G20G 1G13
  22560270.149   -16869194.47349 -12848245.20247  22560270.290    22560278.333
  24128058.478    -4726304.40049  -3664084.12645  24128058.632    24128067.540
  21892434.708   -20309160.69349 -15801232.16647  21892434.693    21892440.424
  22405533.022   -14585478.64449 -11055153.84946  22405532.752    22405540.393
  20579204.593   -27830045.13349 -21352668.53848  20579204.563    20579211.322
  20918150.153   -23911518.11849 -18316971.04847  20918150.686    20918156.099
 04  5 22  3 40  0.0000000  0  6G27G 3G16G20G 1G13
  22549252.354   -16927093.14749 -12893360.99647  22549252.507    22549260.554
  24114447.039    -4797832.90049  -3719820.54845  24114447.225    24114455.971
  21902923.371   -20254042.29049 -15758282.76747  21902923.372    21902929.099
  22424442.282   -14486109.73749 -10977723.56346  22424442.001    22424449.661
  20583102.773   -27809560.04949 -21336706.13948  20583102.764    20583109.517
  20908674.466   -23961313.07049 -18355772.29647  20908675.005    20908680.418
 04  5 22  3 40 30.0000000  0  6G27G 3G16G20G 1G13
  22538267.991   -16984816.38549 -12938340.08647  22538268.092    22538276.134
  24100875.286    -4869152.54549  -3775394.19245  24100875.442    24100884.219
  21913504.117   -20198440.20249 -15714956.46747  21913504.117    21913509.800
  22443404.041   -14386465.18749 -10900078.49946  22443403.735    22443411.459
  20587063.968   -27788743.89149 -21320485.75548  20587063.952    20587070.688
  20899248.321   -24010848.01349 -18394370.93947  20899248.841    20899254.212
 04  5 22  3 41  0.0000000  0  6G27G 3G16G20G 1G13
  22527317.347   -17042362.16549 -12983180.90547  22527317.443    22527325.430
  24087344.289    -4940257.97249  -3830800.92045  24087344.448    24087353.137
  21924176.907   -20142354.33649 -15671253.19947  21924176.888    21924182.605
  22462418.117   -14286545.65149 -10822219.16946  22462417.872    22462425.528
  20591088.713   -27767593.81949 -21304005.18048  20591088.696    20591095.440
  20889872.305   -24060119.20949 -18432764.07047  20889872.822    20889878.185
 04  5 22  3 41 30.0000000  0  6G27G 3G16G20G 1G13
  22516400.410   -17099730.56249 -13027883.48647  22516400.510    22516408.501
  24073854.706    -5011146.37749  -3886038.56245  24073854.767    24073863.533
  21934941.303   -20085786.76349 -15627174.56947  21934941.326    21934947.093
  22481484.065   -14186353.63549 -10744147.51546  22481483.812    22481491.496
  20595177.127   -27746109.07849 -21287263.82348  20595177.116    20595183.856
  20880546.779   -24109125.10349 -18470950.46547  20880547.288    20880552.638
 04  5 22  3 42  0.0000000  0  6G27G 3G16G20G 1G13
  22505517.318   -17156921.31649 -13072447.64347  22505517.434    22505525.418
  24060407.006    -5081814.00349  -3941104.16145  24060407.127    24060415.788
  21945797.138   -20028738.98849 -15582721.76147  21945797.151    21945802.887
  22500601.486   -14085891.65849 -10665865.48246  22500601.218    22500608.832
  20599329.375   -27724288.75149 -21270260.97948  20599329.341    20599336.122
  20871272.199   -24157863.45249 -18508928.39047  20871272.689    20871278.021
 04  5 22  3 42 30.0000000  0  6G27G 3G16G20G 1G13
  22494667.806   -17213935.67149 -13116874.34647  22494667.906    22494675.885
  24047001.741    -5152258.93349  -3995996.23045  24047001.917    24047010.580
  21956743.738   -19971214.21849 -15537897.27047  21956743.733    21956749.484
  22519769.481   -13985163.63549 -10587376.15846  22519769.178    22519776.813
  20603545.447   -27702133.29249 -21252996.98148  20603545.422    20603552.182
  20862048.549   -24206333.98349 -18546697.62847  20862049.064    20862054.365
 04  5 22  3 43  0.0000000  0  6G27G 3G16G20G 1G13
  22483852.004   -17270772.99049 -13161163.11447  22483852.113    22483860.062
  24033639.423    -5222477.68849  -4050712.07045  24033639.608    24033648.175
  21967780.833   -19913213.94849 -15492702.24847  21967780.822    21967786.566
  22538987.713   -13884171.52449 -10508681.04546  22538987.443    22538995.009
  20607825.449   -27679641.57049 -21235470.96748  20607825.419    20607832.177
  20852876.245   -24254534.65249 -18584256.57248  20852876.744    20852882.041
 04  5 22  3 43 30.0000000  0  6G27G 3G16G20G 1G13
  22473069.855   -17327433.42649 -13205314.04547  22473069.967    22473077.897
  24020320.848    -5292467.16449  -4105249.21445  24020321.018    24020329.629
  21978907.957   -19854740.47049 -15447138.49847  21978907.969    21978913.697
  22558255.632   -13782918.16649 -10429782.36046  22558255.345    22558262.919
  20612169.560   -27656813.05249 -21217682.51348  20612169.532    20612176.290
  20843755.624   -24302463.75149 -18621603.90848  20843756.128    20843761.421
 04  5 22  3 44  0.0000000  0  6G27G 3G16G20G 1G13
  22462321.453   -17383916.36149 -13249326.66047  22462321.568    22462329.459
  24007046.507    -5362223.53249  -4159604.71445  24007046.628    24007055.274
  21990124.896   -19795795.04149 -15401206.99947  21990124.914    21990130.616
  22577572.879   -13681405.45349 -10350681.58446  22577572.562    22577580.170
  20616578.030   -27633646.43349 -21199630.59948  20616578.020    20616584.754
  20834687.144   -24350118.95149 -18658737.82448  20834687.666    20834692.987
 04  5 22  3 44 30.0000000  0  6G27G 3G16G20G 1G13
  22451606.861   -17440221.91449 -13293201.06447  22451606.966    22451614.807
  23993816.947    -5431743.90649  -4213776.33445  23993817.136    23993825.888
  22001431.248   -19736379.78649 -15354909.40347  22001431.276    22001436.931
  22596938.866   -13579636.28449 -10271380.97646  22596938.645    22596946.239
  20621050.928   -27610141.15549 -21181314.79748  20621050.933    20621057.662
  20825671.022   -24397498.78149 -18695657.17348  20825671.548    20825676.895
 04  5 22  3 45  0.0000000  0  7G27G 3G16G 8G20G 1G13
  22440925.500   -17496352.78949 -13336939.34747  22440925.581    22440933.433
  23980632.798    -5501027.52849  -4267763.51145  23980632.963    23980641.510
  22012826.143   -19676499.37449 -15308249.34047  22012826.128    22012831.755
  24875741.127    -6216139.05049  -4830964.71845  24875741.043    24875752.454
  22616352.709   -13477615.77649 -10191884.50746  22616352.435    22616360.088
  20625587.972   -27586299.00549 -21162736.49948  20625587.953    20625594.655
  20816707.155   -24444604.17149 -18732362.65948  20816707.683    20816713.009
 04  5 22  3 45 30.0000000  0  7G27G 3G16G 8G20G 1G13
  22430275.950   -17552316.56149 -13380547.42247  22430276.003    22430283.829
  23967492.844    -5570078.90249  -4321569.71145  23967492.970    23967501.237
  22024307.605   -19616163.57049 -15261234.42747  22024307.580    22024313.292
  24858602.358    -6306204.39949  -4901145.33145  24858602.248    24858613.510
  22635812.438   -13375354.18849 -10112200.19246  22635812.163    22635819.867
  20630187.734   -27562126.95549 -21143901.12848  20630187.708    20630194.397
  20807794.454   -24491440.80149 -18768858.72148  20807794.963    20807800.303
 04  5 22  3 46  0.0000000  0  7G27G 3G16G 8G20G 1G13
  22419660.715   -17608099.56849 -13424014.64747  22419660.792    22419668.614
  23954400.156    -5638881.24949  -4375181.79345  23954400.304    23954408.625
  22035877.993   -19555360.55349 -15213855.46147  22035877.989    22035883.719
  24841482.092    -6396171.67149  -4971249.54445  24841482.030    24841493.087
  22655320.159   -13272840.53949 -10032319.46446  22655319.898    22655327.599
  20634853.023   -27537610.62749 -21124797.49648  20634853.009    20634859.680
  20798935.777   -24537993.57249 -18805133.60148  20798936.286    20798941.612
 04  5 22  3 46 30.0000000  0  7G27G 3G16G 8G20G 1G13
  22409079.628   -17663703.59349 -13467342.40647  22409079.687    22409087.501
  23941354.876    -5707433.22649  -4428598.80845  23941355.065    23941363.662
  22047536.596   -19494094.33449 -15166115.53947  22047536.618    22047542.241
  24824380.269    -6486041.82749  -5041278.09045  24824380.180    24824391.263
  22674874.927   -13170079.46949  -9952245.91846  22674874.671    22674882.347
  20639583.605   -27512751.13349 -21105426.45048  20639583.604    20639590.262
  20790131.092   -24584262.32349 -18841187.15648  20790131.611    20790136.939
 04  5 22  3 47  0.0000000  0  7G27G 3G16G 8G20G 1G13
  22398532.479   -17719129.25649 -13510531.18347  22398532.539    22398540.288
  23928357.809    -5775732.45949  -4481818.90945  23928358.043    23928366.650
  22059282.770   -19432367.74949 -15118016.91147  22059282.786    22059288.420
  24807296.813    -6575815.28449  -5111231.25245  24807296.666    24807307.857
  22694476.199   -13067074.11449  -9871982.05546  22694475.981    22694483.679
  20644379.504   -27487548.52549 -21085788.05748  20644379.504    20644386.176
  20781380.663   -24630246.15649 -18877018.70848  20781381.169    20781386.501
 04  5 22  3 47 30.0000000  0  7G27G 3G16G 8G20G 1G13
  22388018.769   -17774378.77749 -13553582.71147  22388018.877    22388026.603
  23915409.126    -5843777.87549  -4534841.25445  23915409.367    23915417.903
  22071115.761   -19370184.86149 -15069562.71547  22071115.804    22071121.463
  24790231.541    -6665493.23149  -5181110.01945  24790231.220    24790242.514
  22714123.097   -12963829.22849  -9791531.52446  22714122.840    22714130.530
  20649240.391   -27462004.24749 -21065883.42048  20649240.408    20649247.073
  20772684.349   -24675945.60749 -18912628.65248  20772684.860    20772690.162
 04  5 22  3 48  0.0000000  0  7G27G 3G16G 8G20G 1G13
  22377538.703   -17829452.12849 -13596496.96847  22377538.772    22377546.453
  23902509.341    -5911566.08049  -4587663.14645  23902509.637    23902518.145
  22083035.201   -19307547.78849 -15020754.61547  22083035.253    22083040.967
  24773184.457    -6755074.76349  -5250913.65445  24773184.221    24773195.354
  22733815.019   -12860347.48649  -9710896.45546  22733814.797    22733822.507
  20654166.491   -27436117.55649 -21045711.97948  20654166.508    20654173.163
  20764042.485   -24721358.77749 -18948015.52748  20764043.012    20764048.305
 04  5 22  3 48 30.0000000  0  7G27G 3G16G 8G20G 1G13
  22367092.127   -17884349.37049 -13639273.98347  22367092.165    22367099.794
  23889659.135    -5979094.70849  -4640282.77445  23889659.352    23889667.750
  22095040.678   -19244458.82449 -14971594.37947  22095040.731    22095046.420
  24756155.853    -6844560.00849  -5320642.27745  24756155.741    24756166.603
  22753551.478   -12756631.99849  -9630079.21946  22753551.214    22753558.968
  20659157.783   -27409888.31749 -21025273.60948  20659157.773    20659164.436
  20755455.342   -24766484.37549 -18983178.31748  20755455.857    20755461.162
 04  5 22  3 49  0.0000000  0  7G27G 3G16G 8G20G 1G13
  22356678.936   -17939070.94149 -13681914.13047  22356678.963    22356686.603
  23876858.852    -6046360.67849  -4692697.74845  23876859.035    23876867.330
  22107131.652   -19180920.44749 -14922083.96547  22107131.691    22107137.435
  24739145.624    -6933948.40049  -5390295.41345  24739145.506    24739156.460
  22773331.864   -12652685.53449  -9549082.02046  22773331.571    22773339.403
  20664214.344   -27383315.89149 -21004567.82248  20664214.342    20664220.982
  20746923.263   -24811320.71949 -19018115.72048  20746923.764    20746929.075
 04  5 22  3 49 30.0000000  0  7G27G 3G16G 8G20G 1G13
  22346299.087   -17993616.87549 -13724417.40847  22346299.169    22346306.770
  23864109.074    -6113360.83949  -4744905.58745  23864109.361    23864117.562
  22119307.700   -19116934.59349 -14872224.86147  22119307.782    22119313.556
  24722154.200    -7023239.25649  -5459872.53145  24722154.139    24722164.901
  22793155.769   -12548510.59549  -9467906.79246  22793155.416    22793163.273
  20669336.345   -27356399.66849 -20983594.13848  20669336.336    20669342.958
  20738446.551   -24855865.98349 -19052826.30648  20738447.062    20738452.368
 04  5 22  3 50  0.0000000  0  7G27G 3G16G 8G20G 1G13
  22335952.626   -18047987.74549 -13766784.28047  22335952.662    22335960.219
  23851410.337    -6180092.73549  -4796904.40845  23851410.532    23851418.716
  22131568.365   -19052504.31049 -14822019.45247  22131568.424    22131574.258
  24705181.128    -7112432.63749  -5529373.72545  24705181.109    24705191.921
  22813022.449   -12444110.78549  -9386556.33446  22813022.074    22813029.953
  20674523.733   -27329139.74649 -20962352.63948  20674523.725    20674530.406
  20730025.378   -24900119.42249 -19087309.49748  20730025.902    20730031.208
 04  5 22  3 50 30.0000000  0  7G27G 3G16G 8G20G 1G13
  22325639.435   -18102183.78149 -13809014.91647  22325639.461    22325646.995
  23838763.244    -6246553.13349  -4848691.68345  23838763.487    23838771.543
  22143913.148   -18987631.89849 -14771469.52747  22143913.218    22143919.087
  24688226.730    -7201528.40749  -5598798.82845  24688226.677    24688237.483
  22832931.283   -12339488.57549  -9305032.56646  22832931.000    22832938.961
  20679776.568   -27301535.62049 -20940842.92648  20679776.569    20679783.280
  20721660.100   -24944079.19849 -19121563.85648  20721660.613    20721665.939
 04  5 22  3 51  0.0000000  0  7G27G 3G16G 8G20G 1G13
  22315359.429   -18156204.93849 -13851109.28347  22315359.498    22315367.079
  23826168.741    -6312738.99649  -4900265.00845  23826168.966    23826176.853
  22156341.773   -18922319.21849 -14720576.54047  22156341.854    22156347.695
  24671290.965    -7290525.64949  -5668147.15845  24671290.881    24671301.692
  22852881.956   -12234646.73549  -9223337.67046  22852881.699    22852889.778
  20685095.101   -27273586.48549 -20919064.37848  20685095.107    20685101.828
  20713350.976   -24987743.70049 -19155588.13048  20713351.505    20713356.832
 04  5 22  3 51 30.0000000  0  7G27G 3G16G 8G20G 1G13
  22305112.789   -18210051.26449 -13893067.43147  22305112.842    22305120.423
  23813626.860    -6378647.45249  -4951622.18045  23813626.940    23813634.995
  22168853.859   -18856568.30349 -14669342.06747  22168853.891    22168859.715
  24654373.870    -7379423.92049  -5737418.37745  24654373.812    24654384.714
  22872873.931   -12129588.10549  -9141473.85146  22872873.679    22872881.798
  20690479.405   -27245291.89149 -20897016.64648  20690479.399    20690486.141
  20705098.407   -25031111.39849 -19189381.13848  20705098.948    20705104.254
 04  5 22  3 52  0.0000000  0  7G27G 3G16G 8G20G 1G13
  22294899.540   -18263722.02549 -13934888.76647  22294899.602    22294907.188
  23801138.239    -6444274.75949  -5002760.30545  23801138.375    23801146.460
  22181448.891   -18790381.33249 -14617767.81147  22181448.873    22181454.721
  24637475.862    -7468222.19949  -5806611.68345  24637475.891    24637486.873
  22892906.761   -12024314.80749  -9059442.75446  22892906.521    22892914.676
  20695929.655   -27216650.61649 -20874698.77348  20695929.666    20695936.403
  20696902.770   -25074179.68949 -19222940.84048  20696903.312    20696908.606
 04  5 22  3 52 30.0000000  0  7G27G 3G16G 8G20G 1G13
  22284719.494   -18317218.43349 -13976574.23447  22284719.560    22284727.132
  23788703.741    -6509618.50449  -5053677.44745  23788703.933    23788711.841
  22194126.276   -18723761.00449 -14565855.87347  22194126.276    22194132.155
  24620596.958    -7556920.31749  -5875726.94145  24620596.896    24620607.970
  22912979.872   -11918830.18549  -8977246.96646  22912979.625    22912987.698
  20701445.835   -27187662.99349 -20852111.01748  20701445.827    20701452.526
  20688764.316   -25116947.75649 -19256266.60548  20688764.856    20688770.107
 04  5 22  3 53  0.0000000  0  7G27G 3G16G 8G20G 1G13
  22274572.589   -18370540.75749 -14018124.06347  22274572.684    22274580.203
  23776323.679    -6574676.42649  -5104371.86645  23776323.874    23776331.681
  22206885.631   -18656710.09449 -14513608.41547  22206885.623    22206891.510
  24603737.094    -7645518.68949  -5944764.46045  24603737.028    24603748.115
  22933092.491   -11813137.51849  -8894889.10246  22933092.270    22933100.345
  20707027.988   -27158328.68549 -20829253.11148  20707027.963    20707034.678
  20680683.222   -25159414.25949 -19289357.37948  20680683.731    20680689.009
 04  5 22  3 53 30.0000000  0  7G27G 3G16G 8G20G 1G13
  22264458.805   -18423688.87949 -14059538.15247  22264458.886    22264466.423
  23763998.536    -6639445.20349  -5154840.97345  23763998.656    23764006.500
  22219726.625   -18589230.55249 -14461026.96347  22219726.613    22219732.430
  24586896.576    -7734016.46249  -6013723.60345  24586896.446    24586907.260
  22953244.395   -11707239.14149  -8812370.90546  22953244.189    22953252.164
  20712676.169   -27128647.12149 -20806124.61748  20712676.163    20712682.874
  20672659.828   -25201577.51249 -19322211.85648  20672660.335    20672665.622
 04  5 22  3 54  0.0000000  0  7G27G 3G16G 8G20G 1G13
  22254378.193   -18476662.82149 -14100816.51447  22254378.274    22254385.808
  23751729.022    -6703921.40649  -5205082.09745  23751729.231    23751737.046
  22232648.687   -18521324.50849 -14408113.16347  22232648.697    22232654.526
  24570075.270    -7822412.47649  -6082603.45745  24570075.181    24570085.793
  22973435.019   -11601137.60249  -8729694.42246  22973434.762    22973442.570
  20718390.593   -27098617.63349 -20782725.01148  20718390.577    20718397.283
  20664694.486   -25243435.59949 -19354828.53748  20664694.999    20664700.317
 04  5 22  3 54 30.0000000  0  7G27G 3G16G 8G20G 1G13
  22244330.854   -18529461.90749 -14141958.61847  22244330.910    22244338.435
  23739515.734    -6768101.50349  -5255092.51945  23739515.945    23739523.718
  22245651.624   -18452993.64449 -14354868.34847  22245651.636    22245657.493
  24553273.421    -7910706.27549  -6151403.68645  24553273.403    24553283.939
  22993663.752   -11494835.48049  -8646861.64546  22993663.468    22993671.286
  20724171.424   -27068239.12049 -20759053.44348  20724171.395    20724178.118
  20656787.587   -25284986.40249 -19387205.77848  20656788.123    20656793.441
 04  5 22  3 55  0.0000000  0  7G27G 3G16G 8G20G 1G13
  22234316.436   -18582087.78649 -14182965.75547  22234316.503    22234324.029
  23727359.157    -6831984.07049  -5304871.09545  23727359.451    23727366.995
  22258734.636   -18384241.97349 -14301295.62347  22258734.669    22258740.534
  24536490.892    -7998898.59949  -6220124.83345  24536490.921    24536501.283
  23013929.849   -11388336.84249  -8563875.72946  23013929.498    23013937.320
  20730018.490   -27037512.53749 -20735110.64948  20730018.477    20730025.197
  20648939.298   -25326229.57649 -19419343.30648  20648939.826    20648945.122
 04  5 22  3 55 30.0000000  0  7G27G 3G16G 8G20G 1G13
  22224335.020   -18634540.10549 -14223837.65347  22224335.103    22224342.643
  23715260.004    -6895565.58649  -5354415.05445  23715260.287    23715267.898
  22271897.468   -18315071.08149 -14247396.23547  22271897.476    22271903.332
  24519728.018    -8086988.07349  -6288765.83945  24519727.976    24519738.225
  23034232.885   -11281643.94749  -8480738.45646  23034232.523    23034240.361
  20735931.967   -27006436.79149 -20710895.77948  20735931.963    20735938.693
  20641149.933   -25367162.93649 -19451239.42348  20641150.449    20641155.722
 04  5 22  3 56  0.0000000  0  7G27G 3G16G 8G20G 1G13
  22214386.659   -18686819.05749 -14264574.45347  22214386.700    22214394.250
  23703218.502    -6958843.19149  -5403722.20045  23703218.763    23703226.540
  22285139.620   -18245483.30949 -14193172.00247  22285139.609    22285145.481
  24502984.566    -8174974.99649  -6357326.93645  24502984.398    24502994.690
  23054572.247   -11174759.47149  -8397451.89046  23054571.962    23054579.852
  20741911.927   -26975011.76649 -20686408.74148  20741911.953    20741918.691
  20633419.759   -25407785.21149 -19482893.13248  20633420.280    20633425.551
 04  5 22  3 56 30.0000000  0  7G27G 3G16G 8G20G 1G13
  22204471.372   -18738924.06949 -14305175.73147  22204471.434    22204478.947
  23691235.719    -7021813.16549  -5452789.65745  23691235.919    23691243.730
  22298460.682   -18175480.45949 -14138624.33847  22298460.687    22298466.584
  24486261.073    -8262857.59249  -6425806.75745  24486260.944    24486271.064
  23074947.811   -11067685.44249  -8314017.61346  23074947.546    23074955.425
  20747958.644   -26943236.19449 -20661648.55248  20747958.637    20747965.392
  20625749.303   -25448093.69549 -19514302.33348  20625749.821    20625755.088
 04  5 22  3 57  0.0000000  0  7G27G 3G16G 8G20G 1G13
  22194588.914   -18790856.40349 -14345642.46247  22194588.986    22194596.503
  23679311.715    -7084473.95349  -5501616.19145  23679311.854    23679319.761
  22311860.165   -18105065.89249 -14083755.85747  22311860.151    22311866.026
  24469557.159    -8350636.87349  -6494206.09945  24469557.028    24469567.039
  23095358.700   -10960425.95949  -8230438.84946  23095358.386    23095366.223
  20754071.929   -26911110.79549 -20636615.77448  20754071.915    20754078.699
  20618138.663   -25488087.95149 -19545466.68148  20618139.179    20618144.426
 04  5 22  3 57 30.0000000  0  7G27G 3G16G 8G20G 1G13
  22184739.317   -18842616.19449 -14385974.74247  22184739.405    22184746.909
  23667447.234    -7146822.26649  -5550199.21845  23667447.327    23667455.359
  22325337.487   -18034242.01849 -14028568.42346  22325337.460    22325343.368
  24452873.102    -8438312.26149  -6562524.48145  24452872.909    24452882.847
  23115804.406   -10852983.87449  -8146717.77046  23115804.022    23115811.793
  20760251.864   -26878635.05749 -20611310.00048  20760251.837    20760258.620
  20610588.097   -25527766.51749 -19576385.03248  20610588.626    20610593.834
 04  5 22  3 58  0.0000000  0  7G27G 3G16G 8G20G 1G13
  22174922.720   -18894202.73449 -14426172.01047  22174922.781    22174930.279
  23655642.835    -7208854.38549  -5598535.88045  23655642.939    23655651.093
  22338892.337   -17963010.51049 -13973063.36446  22338892.327    22338898.281
  24436208.879    -8525882.80449  -6630761.17645  24436208.615    24436218.492
  23136284.366   -10745361.13949  -8062855.93246  23136284.003    23136291.718
  20766498.641   -26845807.86349 -20585730.36348  20766498.632    20766505.411
  20603098.057   -25567126.97549 -19607055.50548  20603098.572    20603103.754
 04  5 22  3 58 30.0000000  0  7G27G 3G16G 8G20G 1G13
  22165139.029   -18945615.84149 -14466234.11947  22165139.114    22165146.612
  23643899.123    -7270567.26349  -5646623.77845  23643899.249    23643907.401
  22352524.342   -17891373.43849 -13917242.28546  22352524.359    22352530.343
  24419564.815    -8613347.42749  -6698915.34945  24419564.617    24419574.530
  23156798.244   -10637560.22349  -7978855.27646  23156797.892    23156805.554
  20772812.463   -26812628.54649 -20559876.35948  20772812.461    20772819.215
  20595668.985   -25606167.17349 -19637476.42548  20595669.505    20595674.655
 04  5 22  3 59  0.0000000  0  7G27G 3G16G 8G20G 1G13
  22155388.164   -18996856.98049 -14506162.23047  22155388.244    22155395.717
  23632216.676    -7331959.34049  -5694461.70745  23632216.837    23632224.838
  22366232.956   -17819334.46049 -13861108.01546  22366232.949    22366238.942
  24402940.522    -8700707.24249  -6766987.84745  24402940.356    24402950.516
  23177345.245   -10529585.27849  -7894718.98146  23177344.928    23177352.494
  20779193.146   -26779097.89149 -20533748.57048  20779193.124    20779199.870
  20588300.899   -25644886.79449 -19667647.54448  20588301.396    20588306.512
 04  5 22  3 59 30.0000000  0  7G27G 3G16G 8G20G 1G13
  22145670.065   -19047926.10849 -14545956.31247  22145670.132    22145677.516
  23620595.906    -7393027.33449  -5742047.09945  23620596.071    23620603.934
  22380017.552   -17746895.74549 -13804662.27746  22380017.546    22380023.597
  24386336.519    -8787961.13449  -6834977.79845  24386336.351    24386346.566
  23197924.886   -10421438.82249  -7810449.06746  23197924.541    23197932.138
  20785640.780   -26745215.42049 -20507346.64248  20785640.760    20785647.495
  20580994.132   -25683284.07549 -19697567.49848  20580994.634    20580999.718
 04  5 22  4  0  0.0000000  0  7G27G 3G16G 8G20G 1G13
  22135984.774   -19098822.56849 -14585615.84947  22135984.817    22135992.190
  23609037.336    -7453767.85949  -5789377.30745  23609037.434    23609045.474
  22393877.861   -17674059.01949 -13747906.39246  22393877.901    22393884.000
  24369753.070    -8875107.95249  -6902884.33145  24369752.751    24369762.937
  23218536.688   -10313122.79349  -7726047.00346  23218536.401    23218544.053
  20792155.588   -26710979.89349 -20480669.60448  20792155.580    20792162.299
  20573749.122   -25721356.71049 -19727234.46748  20573749.630    20573754.703
 04  5 22  4  0 30.0000000  0  7G27G 3G16G 8G20G 1G13
  22126332.135   -19149546.95849 -14625141.31347  22126332.219    22126339.623
  23597541.374    -7514178.29549  -5836450.30545  23597541.542    23597549.777
  22407813.429   -17600827.12749 -13690842.58746  22407813.513    22407819.529
  24353189.830    -8962148.32049  -6970707.92245  24353189.548    24353199.554
  23239180.122   -10204640.49549  -7641515.39046  23239179.881    23239187.585
  20798737.562   -26676391.38949 -20453717.52648  20798737.594    20798744.293
  20566566.146   -25759103.46749 -19756647.51148  20566566.652    20566571.736
 04  5 22  4  1  0.0000000  0  7G27G 3G16G 8G20G 1G13
  22116712.128   -19200100.27949 -14664533.47747  22116712.199    22116719.643
  23586108.925    -7574256.59749  -5883264.51145  23586108.987    23586117.184
  22421823.710   -17527203.29949 -13633473.37746  22421823.705    22421829.665
  24336646.797    -9049082.43149  -7038448.69645  24336646.550    24336656.503
  23259854.516   -10095995.53449  -7556857.02546  23259854.278    23259862.096
  20805386.584   -26641450.42049 -20426490.80148  20805386.601    20805393.320
  20559445.270   -25796523.68949 -19785806.11748  20559445.772    20559450.901
 04  5 22  4  1 30.0000000  0  7G27G 3G16G 8G20G 1G13
  22107124.744   -19250482.29949 -14703792.16147  22107124.816    22107132.230
  23574740.103    -7633999.52549  -5929817.38545  23574740.187    23574748.251
  22435908.054   -17453189.60949 -13575800.38846  22435908.034    22435913.931
  24320124.190    -9135909.25849  -7106105.87945  24320123.859    24320133.845
  23280559.473    -9987190.36549  -7472073.81846  23280559.234    23280567.114
  20812102.818   -26606156.29449 -20398988.88848  20812102.831    20812109.564
  20552386.960   -25833615.11249 -19814708.50748  20552387.468    20552392.634
 04  5 22  4  2  0.0000000  0  7G27G 3G16G 8G20G 1G13
  22097570.078   -19300692.31649 -14742916.80647  22097570.141    22097577.571
  23563435.763    -7693403.55849  -5976106.17445  23563435.873    23563444.126
  22450066.262   -17378787.73749 -13517824.89746  22450066.242    22450072.068
  24303622.133    -9222627.65249  -7173678.57645  24303621.852    24303631.828
  23301294.555    -9878226.90549  -7387167.26246  23301294.319    23301302.287
  20818886.503   -26570507.79549 -20371210.83348  20818886.505    20818893.242
  20545391.688   -25870375.57449 -19843353.00548  20545392.191    20545397.356
 04  5 22  4  2 30.0000000  0  7G27G 3G16G 8G20G 1G13
  22088048.110   -19350730.30749 -14781907.41747  22088048.183    22088055.611
  23552196.619    -7752465.61649  -6022128.50545  23552196.714    23552204.892
  22464297.901   -17303999.90649 -13459548.67046  22464297.890    22464303.731
  24287140.818    -9309237.21749  -7241166.45745  24287140.592    24287150.516
  23322059.207    -9769108.16449  -7302139.69946  23322058.934    23322066.884
  20825737.727   -26534504.43849 -20343156.27748  20825737.732    20825744.451
  20538459.752   -25906803.05049 -19871738.03748  20538460.270    20538465.428
 04  5 22  4  3  0.0000000  0  7G27G 3G16G 8G20G 1G13
  22078558.685   -19400597.54949 -14820764.96147  22078558.742    22078566.152
  23541022.905    -7811183.86149  -6067882.94645  23541023.049    23541031.017
  22478602.331   -17228829.56849 -13400974.38946  22478602.328    22478608.148
  24270680.225    -9395738.22649  -7308569.77045  24270679.978    24270689.841
  23342852.771    -9659837.80349  -7216993.99546  23342852.479    23342860.422
  20832656.333   -26498146.94049 -20314825.76448  20832656.332    20832663.060
  20531591.259   -25942897.20649 -19899863.33448  20531591.775    20531596.945
 04  5 22  4  3 30.0000000  0  7G27G 3G16G 8G20G 1G13
  22069101.706   -19450294.01649 -14859489.44347  22069101.789    22069109.151
  23529914.957    -7869555.41149  -6113367.20845  23529915.000    23529923.095
  22492979.084   -17153278.82949 -13342103.68346  22492979.134    22492984.960
  24254240.326    -9482130.34649  -7375888.22445  24254240.079    24254249.930
  23363674.653    -9550418.10249  -7131731.92346  23363674.365    23363682.267
  20839642.395   -26461434.81449 -20286218.91248  20839642.396    20839649.148
  20524786.567   -25978655.93449 -19927727.25548  20524787.096    20524792.247
 04  5 22  4  4  0.0000000  0  7G27G 3G16G 8G20G 1G13
  22059677.464   -19499818.53049 -14898079.91747  22059677.553    22059684.883
  23518873.897    -7927576.28649  -6158578.21145  23518873.992    23518882.179
  22507428.033   -17077349.19949 -13282937.73746  22507428.072    22507433.924
  24237821.400    -9568411.79649  -7443120.45045  24237821.106    24237831.038
  23384524.582    -9440851.18249  -7046355.13946  23384524.291    23384532.277
  20846696.242   -26424366.55449 -20257334.56148  20846696.242    20846702.981
  20518046.233   -26014076.66849 -19955327.81248  20518046.772    20518051.909
 04  5 22  4  4 30.0000000  0  7G27G 3G16G 8G20G 1G13
  22050285.720   -19549172.41149 -14936537.45147  22050285.785    22050293.107
  23507900.130    -7985244.36949  -6203514.33645  23507900.189    23507908.195
  22521948.467   -17001044.04149 -13223479.17346  22521948.460    22521954.316
  24221423.318    -9654583.37149  -7510267.07245  24221423.128    24221433.068
  23405401.794    -9331140.49449  -6960866.32246  23405401.557    23405409.439
  20853817.788   -26386942.81949 -20228173.21848  20853817.782    20853824.492
  20511370.301   -26049158.92149 -19982664.62448  20511370.833    20511375.983
 04  5 22  4  5  0.0000000  0  7G27G 3G16G 8G20G 1G13
  22040926.251   -19598356.66549 -14974862.79347  22040926.324    22040933.590
  23496993.644    -8042558.14249  -6248174.37145  23496993.730    23497001.680
  22536539.685   -16924366.87349 -13163730.73646  22536539.658    22536545.494
  24205046.021    -9740645.64849  -7577328.52045  24205045.915    24205055.820
  23426305.619    -9221290.06749  -6875268.63046  23426305.387    23426313.351
  20861006.840   -26349164.31549 -20198735.43348  20861006.815    20861013.514
  20504758.936   -26083901.81249 -20009736.98848  20504759.480    20504764.617
 04  5 22  4  5 30.0000000  0  7G27G 3G16G 8G20G 1G13
  22031599.307   -19647370.08349 -15013055.01847  22031599.381    22031606.619
  23486155.333    -8099513.47649  -6292555.09745  23486155.483    23486163.206
  22551201.462   -16847318.98049 -13103693.40946  22551201.418    22551207.245
  24188690.026    -9826596.79749  -7644303.36645  24188689.909    24188699.773
  23447235.800    -9111301.25249  -6789563.07746  23447235.626    23447243.475
  20868263.653   -26311029.44849 -20169019.95648  20868263.632    20868270.360
  20498212.688   -26118302.44749 -20036542.65348  20498213.222    20498218.379
 04  5 22  4  6  0.0000000  0  7G27G 3G16G 8G20G 1G13
  22022304.791   -19696212.61649 -15051114.09147  22022304.886    22022312.127
  23475385.902    -8156107.34149  -6336654.16345  23475386.018    23475393.602
  22565933.340   -16769902.32749 -13043368.74246  22565933.339    22565939.119
  24172355.267    -9912435.94649  -7711190.94145  24172355.237    24172365.037
  23468191.946    -9001176.21849  -6703751.42645  23468191.669    23468199.646
  20875588.432   -26272537.57149 -20139026.29748  20875588.431    20875595.153
  20491731.911   -26152358.99949 -20063080.20448  20491732.449    20491737.596
 04  5 22  4  6 30.0000000  0  7G27G 3G16G 8G20G 1G13
  22013042.532   -19744885.71349 -15089041.15147  22013042.638    22013049.929
  23464685.492    -8212338.16149  -6380470.32545  23464685.606    23464693.165
  22580734.641   -16692120.87349 -12982759.81246  22580734.683    22580740.454
  24156041.690    -9998164.08549  -7777992.01645  24156041.750    24156051.501
  23489173.193    -8890919.56249  -6617837.15746  23489172.944    23489180.775
  20882980.858   -26233690.00949 -20108755.47548  20882980.863    20882987.583
  20485316.654   -26186071.31749 -20089349.52948  20485317.200    20485322.329
 04  5 22  4  7  0.0000000  0  7G27G 3G16G 8G20G 1G13
  22003812.508   -19793389.60249 -15126836.34847  22003812.647    22003819.964
  23454054.758    -8268203.26949  -6424001.53345  23454054.826    23454062.419
  22595604.960   -16613976.88549 -12921868.39346  22595604.988    22595610.787
  24139749.355   -10083781.30049  -7844706.65345  24139749.329    24139759.055
  23510178.831    -8780533.97949  -6531822.48245  23510178.622    23510186.545
  20890441.070   -26194486.42449 -20078207.22648  20890441.049    20890447.819
  20478967.193   -26219437.74349 -20115349.32348  20478967.756    20478972.874
 04  5 22  4  7 30.0000000  0  7G27G 3G16G 8G20G 1G13
  21994614.810   -19841723.74149 -15164499.27747  21994614.925    21994622.230
  23443494.122    -8323699.37749  -6467245.20045  23443494.207    23443501.795
  22610543.848   -16535472.30949 -12860695.98846  22610543.876    22610549.692
  24123478.182   -10169286.18449  -7911333.77645  24123478.184    24123487.873
  23531208.871    -8670021.51149  -6445708.86545  23531208.544    23531216.408
  20897969.175   -26154925.83249 -20047380.79248  20897969.177    20897975.965
  20472684.097   -26252455.73249 -20141077.60948  20472684.655    20472689.763
 04  5 22  4  8  0.0000000  0  7G27G 3G16G 8G20G 1G13
  21985449.546   -19889887.32849 -15202029.31547  21985449.640    21985456.966
  23433004.381    -8378822.80049  -6510198.49645  23433004.578    23433012.092
  22625551.005   -16456608.93949 -12799244.01346  22625551.047    22625556.872
  24107228.885   -10254677.17849  -7977872.14845  24107228.833    24107238.401
  23552262.414    -8559384.25049  -6359498.06546  23552262.228    23552270.083
  20905565.489   -26115007.07449 -20016275.27248  20905565.488    20905572.279
  20466467.727   -26285123.00249 -20166532.60648  20466468.259    20466473.366
 04  5 22  4  8 30.0000000  0  7G27G 3G16G 8G20G 1G13
  21976316.439   -19937882.08849 -15239427.76947  21976316.533    21976323.866
  23422585.936    -8433572.41749  -6552860.47545  23422585.991    23422593.510
  22640625.666   -16377390.84349 -12737515.62446  22640625.721    22640631.605
  24091000.905   -10339955.66049  -8044322.81545  24091000.738    24091010.395
  23573339.033    -8448626.36049  -6273193.25745  23573338.747    23573346.690
  20913229.678   -26074731.60749 -19984891.79248  20913229.672    20913236.457
  20460318.071   -26317439.50149 -20191714.27348  20460318.596    20460323.702
 04  5 22  4  9  0.0000000  0  8G27G 3G19G16G 8G20G 1G13
  21967215.419   -19985707.98149 -15276694.65347  21967215.513    21967222.822
  23412239.135    -8487945.26249  -6595228.86545  23412239.184    23412246.788
  24733637.518    -4608892.63349  -3564098.81645  24733637.079    24733643.708
  22655767.422   -16297820.24649 -12675512.55946  22655767.449    22655773.374
  24074794.371   -10425121.66149  -8110685.84945  24074794.127    24074803.716
  23594438.024    -8337750.49249  -6186796.49745  23594437.780    23594445.791
  20920961.802   -26034098.94149 -19953229.97447  20920961.790    20920968.571
  20454235.479   -26349403.63649 -20216621.37648  20454236.017    20454241.104
 04  5 22  4  9 30.0000000  0  8G27G 3G19G16G 8G20G 1G13
  21958146.758   -20033364.24649 -15313829.38147  21958146.841    21958154.064
  23401964.609    -8541937.31949  -6637300.53145  23401964.717    23401972.305
  24717657.877    -4692865.90349  -3629532.52345  24717657.442    24717664.162
  22670975.972   -16217898.57249 -12613235.92046  22670976.050    22670982.004
  24058609.472   -10510173.18849  -8176959.68245  24058609.262    24058618.774
  23615559.090    -8226758.34449  -6100309.14045  23615558.849    23615566.892
  20928762.120   -25993107.83549 -19921288.86147  20928762.129    20928768.917
  20448220.515   -26381012.36349 -20241251.53448  20448221.031    20448226.148
 04  5 22  4 10  0.0000000  0  8G27G 3G19G16G 8G20G 1G13
  21949110.387   -20080850.69249 -15350831.75947  21949110.447    21949117.637
  23391763.123    -8595546.03449  -6679073.52445  23391763.239    23391770.835
  24701684.110    -4776808.64449  -3694942.36145  24701683.690    24701690.275
  22686250.939   -16137628.04149 -12550687.45646  22686251.015    22686257.012
  24042446.339   -10595109.76149  -8243143.93245  24042446.222    24042455.815
  23636701.861    -8115652.46549  -6013733.14645  23636701.631    23636709.635
  20936630.763   -25951757.90049 -19889068.12547  20936630.772    20936637.543
  20442273.449   -26412264.24849 -20265603.62748  20442273.978    20442279.110
 04  5 22  4 10 30.0000000  0  8G27G 3G19G16G 8G20G 1G13
  21940105.914   -20128169.17649 -15387703.25647  21940106.001    21940113.151
  23381634.714    -8648770.27449  -6720546.87945  23381634.942    23381642.671
  24685716.427    -4860719.70049  -3760327.52345  24685715.864    24685722.355
  22701591.542   -16057012.72649 -12487870.32746  22701591.585    22701597.591
  24026305.016   -10679932.35949  -8309239.37945  24026304.906    24026314.556
  23657865.327    -8004437.37549  -5927072.06845  23657865.120    23657873.178
  20944567.381   -25910050.72449 -19856569.02247  20944567.388    20944574.142
  20436394.338   -26443159.28049 -20289677.66048  20436394.848    20436399.985
 04  5 22  4 11  0.0000000  0  8G27G 3G19G16G 8G20G 1G13
  21931133.437   -20175319.72549 -15424443.90547  21931133.532    21931140.645
  23371580.091    -8701607.23849  -6761718.49046  23371580.401    23371588.087
  24669755.311    -4944595.98149  -3825685.63345  24669754.724    24669761.190
  22716997.177   -15976055.36249 -12424786.67246  22716997.250    22717003.242
  24010185.416   -10764641.04149  -8375246.05945  24010185.335    24010194.993
  23679049.159    -7893115.76649  -5840327.97345  23679048.906    23679057.051
  20952572.028   -25867986.01249 -19823791.32047  20952572.036    20952578.788
  20430583.462   -26473695.63949 -20313472.21248  20430583.981    20430589.074
 04  5 22  4 11 30.0000000  0  8G27G 3G19G16G 8G20G 1G13
  21922192.997   -20222302.02549 -15461053.46847  21922193.072    21922200.175
  23361599.951    -8754053.94949  -6802585.98146  23361600.191    23361607.783
  24653801.286    -5028434.15349  -3891013.99845  24653800.849    24653807.258
  22732467.647   -15894757.87449 -12361437.97646  22732467.690    22732473.550
  23994087.701   -10849234.48849  -8441162.91545  23994087.789    23994097.424
  23700252.699    -7781690.01149  -5753502.71445  23700252.527    23700260.729
  20960644.871   -25825562.83049 -19790734.29347  20960644.887    20960651.670
  20424841.181   -26503871.52049 -20336985.86348  20424841.686    20424846.768
 04  5 22  4 12  0.0000000  0  8G27G 3G19G16G 8G20G 1G13
  21913284.578   -20269116.01049 -15497531.87347  21913284.659    21913291.727
  23351694.444    -8806107.55149  -6843147.18745  23351694.658    23351702.095
  24637855.153    -5112231.02049  -3956310.24445  24637854.808    24637861.122
  22748002.346   -15813122.57549 -12297826.06146  22748002.365    22748008.213
  23978012.110   -10933712.52449  -8506989.86145  23978012.197    23978021.703
  23721475.699    -7670162.64949  -5666598.31745  23721475.575    23721483.704
  20968785.974   -25782781.12149 -19757397.89047  20968785.972    20968792.730
  20419167.859   -26533684.93049 -20360217.07248  20419168.374    20419173.434
 04  5 22  4 12 30.0000000  0  8G27G 3G19G16G 8G20G 1G13
  21904408.204   -20315761.57949 -15533879.03847  21904408.284    21904415.358
  23341864.368    -8857765.06349  -6883399.74746  23341864.593    23341871.900
  24621917.646    -5195983.23949  -4021571.67245  24621917.162    24621923.516
  22763600.921   -15731151.79249 -12233952.72246  22763600.927    22763606.748
  23961958.414   -11018074.46349  -8572726.33745  23961958.611    23961968.173
  23742717.623    -7558536.15149  -5579616.64445  23742717.408    23742725.569
  20976995.382   -25739640.22249 -19723781.59947  20976995.388    20977002.155
  20413563.909   -26563134.06949 -20383164.43748  20413564.413    20413569.442
 04  5 22  4 13  0.0000000  0  8G27G 3G19G16G 8G20G 1G13
  21895563.730   -20362239.30549 -15570095.40047  21895563.817    21895570.904
  23332110.011    -8909024.37149  -6923342.02246  23332110.276    23332117.555
  24605989.033    -5279688.38649  -4086796.42245  24605988.449    24605994.934
  22779262.647   -15648848.63549 -12169820.39146  22779262.645    22779268.514
  23945926.896   -11102320.46149  -8638372.46245  23945926.980    23945936.492
  23763977.680    -7446813.79449  -5492560.27045  23763977.431    23763985.656
  20985273.067   -25696140.64949 -19689885.82847  20985273.068    20985279.807
  20408029.415   -26592218.01049 -20405827.22648  20408029.905    20408034.906
 04  5 22  4 13 30.0000000  0  8G27G 3G19G16G 8G20G 1G13
  21886751.115   -20408549.57549 -15606181.29747  21886751.207    21886758.281
  23322431.799    -8959883.22449  -6962972.23846  23322432.017    23322439.362
  24590069.928    -5363343.48849  -4151982.15345  24590069.310    24590075.708
  22794987.241   -15566215.53049 -12105430.95946  22794987.259    22794993.041
  23929917.525   -11186450.38149  -8703928.10545  23929917.543    23929926.930
  23785255.451    -7334998.59049  -5405431.54745  23785255.240    23785263.318
  20993619.004   -25652282.50449 -19655710.64747  20993619.000    20993625.745
  20402564.666   -26620935.46649 -20428204.44848  20402565.168    20402570.154
 04  5 22  4 14  0.0000000  0  8G27G 3G19G16G 8G20G 1G13
  21877970.423   -20454692.34349 -15642136.68347  21877970.516    21877977.574
  23312830.344    -9010338.53349  -7002288.01346  23312830.643    23312838.100
  24574160.979    -5446945.43249  -4217126.41945  24574160.383    24574166.820
  22810774.084   -15483254.78749 -12040786.22846  22810774.080    22810779.915
  23913930.353   -11270463.17549  -8769392.47445  23913930.291    23913939.604
  23806550.315    -7223092.79049  -5318232.25345  23806550.138    23806558.142
  21002033.276   -25608065.19049 -19621255.59947  21002033.255    21002040.000
  20397170.057   -26649284.27149 -20450294.40348  20397170.573    20397175.524
 04  5 22  4 14 30.0000000  0  8G27G 3G19G16G 8G20G 1G13
  21869221.584   -20500667.82549 -15677961.69947  21869221.663    21869228.701
  23303306.315    -9060387.81949  -7041287.40846  23303306.547    23303314.034
  24558262.635    -5530491.50149  -4282227.20245  24558262.119    24558268.471
  22826622.822   -15399969.17049 -11975888.33846  22826622.827    22826628.651
  23897965.424   -11354358.68749  -8834765.48345  23897965.343    23897974.751
  23827861.944    -7111099.59749  -5230964.84145  23827861.704    23827869.674
  21010515.828   -25563488.84349 -19586520.78847  21010515.823    21010522.602
  20391845.841   -26677263.12049 -20472096.08248  20391846.339    20391851.277
 04  5 22  4 15  0.0000000  0  8G27G 3G19G16G 8G20G 1G13
  21860504.631   -20546476.11949 -15713656.44247  21860504.678    21860511.668
  23293860.036    -9110028.55449  -7079968.44746  23293860.276    23293867.645
  24542375.650    -5613978.52649  -4347281.98845  24542375.037    24542381.127
  22842532.975   -15316361.07449 -11910739.17846  22842533.003    22842538.804
  23882022.876   -11438136.90849  -8900047.09545  23882022.780    23882032.270
  23849189.647    -6999021.66349  -5143631.41745  23849189.450    23849197.474
  21019066.758   -25518553.38349 -19551506.14247  21019066.743    21019073.570
  20386592.342   -26704870.44449 -20493608.25748  20386592.855    20386597.757
 04  5 22  4 15 30.0000000  0  8G27G 3G19G16G 8G20G 1G13
  21851819.320   -20592117.64549 -15749221.23247  21851819.390    21851826.326
  23284491.781    -9159258.67749  -7118329.52946  23284492.002    23284499.389
  24526500.513    -5697403.65949  -4412288.53545  24526499.957    24526505.839
  22858503.934   -15232433.53349 -11845341.09846  22858503.907    22858509.754
  23866102.753   -11521797.21849  -8965236.81945  23866102.591    23866112.101
  23870532.807    -6886861.99849  -5056234.28245  23870532.704    23870540.750
  21027685.982   -25473259.10849 -19516211.90047  21027685.966    21027692.805
  20381409.718   -26732105.18549 -20514830.11048  20381410.233    20381415.135
 04  5 22  4 16  0.0000000  0  8G27G 3G19G16G 8G20G 1G13
  21843165.754   -20637592.09749 -15784655.82947  21843165.821    21843172.780
  23275202.159    -9208075.08649  -7156368.24546  23275202.403    23275209.890
  24510637.513    -5780763.57049  -4477244.27045  24510636.999    24510642.983
  22874535.120   -15148188.57149 -11779695.67446  22874535.159    22874541.013
  23850205.056   -11605339.58349  -9030334.64145  23850204.797    23850214.253
  23891891.353    -6774622.93349  -4968775.27345  23891891.098    23891899.160
  21036373.594   -25427605.32849 -19480637.52547  21036373.582    21036380.410
  20376298.439   -26758965.09749 -20535759.88648  20376298.942    20376303.861
 04  5 22  4 16 30.0000000  0  8G27G 3G19G16G 8G20G 1G13
  21834544.043   -20682899.28549 -15819960.09547  21834544.130    21834551.069
  23265991.993    -9256475.04249  -7194082.46146  23265992.149    23265999.737
  24494787.568    -5864055.18349  -4542146.77145  24494787.122    24494793.106
  22890626.327   -15063628.27149 -11713804.53546  22890626.389    22890632.326
  23834329.901   -11688762.97549  -9095339.75245  23834329.697    23834339.215
  23913264.337    -6662306.94349  -4881256.36045  23913264.132    23913272.189
  21045129.731   -25381591.69449 -19444782.75947  21045129.720    21045136.506
  20371258.766   -26785448.43149 -20556396.23048  20371259.291    20371264.241
 04  5 22  4 17  0.0000000  0  8G27G 3G19G16G 8G20G 1G13
  21825954.090   -20728039.46049 -15855134.22247  21825954.186    21825961.123
  23256861.338    -9304456.10449  -7231470.24646  23256861.540    23256869.310
  24478951.190    -5947275.38149  -4606993.60445  24478950.686    24478956.779
  22906777.013   -14978755.56349 -11647669.94446  22906777.128    22906783.036
  23818477.556   -11772067.12449  -9160251.97545  23818477.471    23818486.815
  23934651.594    -6549917.01449  -4793679.81045  23934651.276    23934659.241
  21053954.271   -25335218.41749 -19408647.74347  21053954.281    21053961.058
  20366291.050   -26811553.73349 -20576738.00848  20366291.570    20366296.533
 04  5 22  4 17 30.0000000  0  8G27G 3G19G16G 8G20G 1G13
  21817395.771   -20773013.48549 -15890178.88347  21817395.891    21817402.821
  23247811.065    -9352016.36849  -7268530.14346  23247811.215    23247818.848
  24463128.880    -6030421.76049  -4671782.96145  24463128.329    24463134.545
  22922986.626   -14893573.38549 -11581294.22246  22922986.727    22922992.674
  23802648.027   -11855251.93249  -9225071.20845  23802647.970    23802657.120
  23956052.264    -6437456.32649  -4706048.12245  23956051.910    23956059.840
  21062847.209   -25288485.91349 -19372232.81247  21062847.194    21062853.978
  20361395.505   -26837279.88649 -20596784.34848  20361396.029    20361401.021
 04  5 22  4 18  0.0000000  0  8G27G 3G19G16G 8G20G 1G13
  21808869.051   -20817821.66749 -15925094.30647  21808869.164    21808876.115
  23238841.140    -9399153.48149  -7305260.33346  23238841.285    23238848.903
  24447321.086    -6113491.63649  -4736512.69045  24447320.603    24447326.695
  22939254.648   -14808084.52449 -11514679.53146  22939254.724    22939260.730
  23786840.941   -11938318.14849  -9289798.05945  23786840.913    23786850.053
  23977465.905    -6324927.95249  -4618363.68145  23977465.396    23977473.247
  21071808.410   -25241394.43849 -19335538.15747  21071808.421    21071815.203
  20356572.242   -26862626.07949 -20616534.61148  20356572.778    20356577.779
 04  5 22  4 18 30.0000000  0  8G27G 3G19G16G 8G20G 1G13
  21800373.896   -20862463.84549 -15959880.38847  21800373.995    21800380.952
  23229952.216    -9445864.58349  -7341658.57646  23229952.379    23229959.817
  24431528.462    -6196481.40949  -4801179.94745  24431528.065    24431534.349
  22955580.587   -14722291.16949 -11447827.56046  22955580.622    22955586.632
  23771056.650   -12021264.45149  -9354431.44645  23771056.680    23771065.758
  23998891.863    -6212334.24349  -4530628.37345  23998891.344    23998899.291
  21080838.060   -25193943.39049 -19298563.32047  21080838.079    21080844.848
  20351821.760   -26887589.94449 -20635986.95348  20351822.297    20351827.298
 04  5 22  4 19  0.0000000  0  8G27G 3G19G16G 8G20G 1G13
  21791910.339   -20906939.79649 -15994536.93347  21791910.444    21791917.442
  23221144.796    -9492147.32449  -7377722.98646  23221144.946    23221152.526
  24415752.047    -6279387.94849  -4865782.35745  24415751.526    24415757.837
  22971964.005   -14636195.82949 -11380740.28446  22971964.010    22971969.997
  23755295.290   -12104090.52949  -9418971.16145  23755295.301    23755304.394
  24020329.673    -6099677.73449  -4442844.09645  24020329.242    24020337.038
  21089936.181   -25146132.69249 -19261308.23847  21089936.151    21089942.907
  20347144.282   -26912170.08249 -20655140.30148  20347144.815    20347149.826
 04  5 22  4 19 30.0000000  0  8G27G 3G19G16G 8G20G 1G13
  21783478.347   -20951250.03349 -16029064.34147  21783478.452    21783485.473
  23212419.450    -9537999.43449  -7413451.85446  23212419.626    23212427.228
  24399991.694    -6362208.74849  -4930317.98245  24399991.109    24399997.394
  22988404.344   -14549801.19949 -11313419.78246  22988404.339    22988410.237
  23739556.847   -12186796.35349  -9483417.16845  23739556.857    23739565.897
  24041778.898    -5986961.59949  -4355013.35245  24041778.453    24041786.281
  21099102.610   -25097962.68149 -19223773.17447  21099102.605    21099109.341
  20342540.083   -26936365.34649 -20673993.74348  20342540.622    20342545.596
 04  5 22  4 20  0.0000000  0  8G27G 3G19G16G 8G20G 1G13
  21775077.844   -20995394.84749 -16063462.84347  21775077.937    21775084.970
  23203776.537    -9583418.46549  -7448843.26446  23203776.680    23203784.209
  24384248.039    -6444940.68449  -4994784.36545  24384247.617    24384253.980
  23004901.203   -14463110.04849 -11245868.23646  23004901.139    23004906.958
  23723841.411   -12269381.90049  -9547769.45945  23723841.346    23723850.297
  24063238.895    -5874188.57449  -4267138.29545  24063238.526    24063246.421
  21108337.437   -25049433.49549 -19185958.22847  21108337.442    21108344.140
  20338009.395   -26960174.49649 -20692546.30648  20338009.919    20338014.863
 04  5 22  4 20 30.0000000  0  8G27G 3G19G16G 8G20G 1G13
  21766708.820   -21039374.16249 -16097732.39747  21766708.921    21766715.930
  23195216.396    -9628401.80249  -7483895.18246  23195216.556    23195224.040
  24368521.984    -6527580.27649  -5059178.75145  24368521.573    24368528.123
  23021453.937   -14376124.42949 -11178087.24146  23021453.929    23021459.780
  23708149.064   -12351845.89149  -9612027.03546  23708148.880    23708157.895
  24084709.184    -5761361.05649  -4179220.75945  24084708.913    24084716.741
  21117640.673   -25000544.71849 -19147863.08347  21117640.652    21117647.368
  20333552.537   -26983595.28549 -20710796.25848  20333553.054    20333557.993
 04  5 22  4 21  0.0000000  0  8G27G 3G19G16G 8G20G 1G13
  21758371.286   -21083187.98149 -16131873.02147  21758371.383    21758378.383
  23186739.670    -9672946.95349  -7518605.63146  23186739.854    23186747.390
  24352814.281    -6610124.65949  -5123498.95845  24352813.818    24352820.488
  23038062.289   -14288846.77849 -11110078.67246  23038062.332    23038068.225
  23692479.620   -12434188.18349  -9676189.78245  23692479.568    23692488.676
  24106189.412    -5648481.80749  -4091262.92745  24106189.093    24106196.968
  21127012.310   -24951296.37149 -19109487.76047  21127012.294    21127019.022
  20329169.908   -27006626.12449 -20728742.35448  20329170.428    20329175.386
 04  5 22  4 21 30.0000000  0  8G27G 3G19G16G 8G20G 1G13
  21750065.182   -21126836.58349 -16165884.88547  21750065.273    21750072.278
  23178346.756    -9717051.93549  -7552973.09046  23178346.894    23178354.412
  24337125.397    -6692570.83349  -5187742.67745  24337124.938    24337131.495
  23054725.674   -14201280.04549 -11041844.84346  23054725.685    23054731.616
  23676833.439   -12516408.88849  -9740257.78346  23676833.379    23676842.571
  24127678.791    -5535553.68449  -4003266.98845  24127678.536    24127686.391
  21136452.321   -24901688.67649 -19070832.41647  21136452.329    21136459.083
  20324861.649   -27029265.98749 -20746383.79948  20324862.181    20324867.131
 04  5 22  4 22  0.0000000  0  8G27G 3G19G16G 8G20G 1G13
  21741790.479   -21170320.31049 -16199768.27147  21741790.552    21741797.571
  23170037.932    -9760714.40649  -7586995.75346  23170038.077    23170045.630
  24321455.666    -6774916.06549  -5251907.71945  24321455.177    24321461.580
  23071443.623   -14113426.93149 -10973387.86546  23071443.602    23071449.539
  23661210.449   -12598507.86649  -9804230.92845  23661210.415    23661219.529
  24149176.984    -5422579.53349  -3915235.19545  24149176.733    24149184.628
  21145960.675   -24851721.83149 -19031897.21447  21145960.666    21145967.470
  20320628.118   -27051513.43849 -20763719.46648  20320628.662    20320633.589
 04  5 22  4 22 30.0000000  0  8G27G 3G19G16G 8G20G 1G13
  21733547.211   -21213638.85449 -16233522.94247  21733547.278    21733554.280
  23161813.827    -9803931.92449  -7620671.70046  23161814.000    23161821.610
  24305805.613    -6857157.12349  -5315991.60545  24305805.211    24305811.441
  23088215.627   -14025289.55449 -10904709.37946  23088215.531    23088221.511
  23645610.757   -12680484.34149  -9868108.61245  23645610.685    23645619.843
  24170683.417    -5309561.89549  -3827169.54045  24170683.165    24170691.260
  21155537.499   -24801395.37649 -18992681.80047  21155537.506    21155544.271
  20316469.580   -27073366.69749 -20780747.96148  20316470.130    20316475.008
 04  5 22  4 23  0.0000000  0  8G27G 3G19G16G 8G20G 1G13
  21725335.363   -21256792.45249 -16267149.06747  21725335.403    21725342.386
  23153675.051    -9846702.05049  -7653999.02446  23153675.264    23153682.690
  24290176.007    -6939290.79949  -5379991.79845  24290175.682    24290181.886
  23105041.167   -13936870.66049 -10835811.55346  23105041.073    23105047.032
  23630034.586   -12762337.75949  -9931890.41045  23630034.437    23630043.550
  24192197.613    -5196503.49749  -3739072.07445  24192197.410    24192205.538
  21165182.695   -24750709.61949 -18953186.41047  21165182.699    21165189.434
  20312386.387   -27094824.12849 -20797468.02148  20312386.917    20312391.774
 04  5 22  4 23 30.0000000  0  9G27G 3G19G16G 8G20G31G 1G13
  21717154.843   -21299781.30849 -16300646.83147  21717154.897    21717161.813
  23145621.797    -9889022.52849  -7686975.97146  23145621.979    23145629.302
  24274567.287    -7021314.43549  -5443906.22445  24274566.917    24274573.124
  23121919.780   -13848172.75849 -10766696.30246  23121919.718    23121925.692
  23614481.638   -12844068.17449  -9995576.37045  23614481.506    23614490.641
  24213719.223    -5083406.85049  -3650944.83545  24213719.021    24213727.118
  24634951.672    -4072876.73949  -3144898.33045  24634951.808    24634960.606
  21174896.245   -24699664.62849 -18913411.09947  21174896.225    21174902.947
  20308378.639   -27115884.86249 -20813878.96948  20308379.172    20308384.025
 04  5 22  4 24  0.0000000  0  9G27G 3G19G16G 8G20G31G 1G13
  21709005.786   -21342604.97349 -16334015.90447  21709005.818    21709012.693
  23137654.548    -9930890.22949  -7719600.08846  23137654.785    23137662.157
  24258980.448    -7103223.95449  -5507731.75345  24258979.977    24258986.227
  23138851.203   -13759197.78449 -10697365.15746  23138851.047    23138857.100
  23598952.261   -12925674.81749 -10059165.87445  23598952.185    23598961.371
  24235247.628    -4970274.37449  -3562789.65845  24235247.408    24235255.662
  24615681.924    -4174140.22049  -3223804.81845  24615681.948    24615690.971
  21184678.267   -24648259.88849 -18873355.46347  21184678.252    21184684.958
  20304446.814   -27136546.59549 -20829979.00148  20304447.354    20304452.204
